     2.10           OBSERVATION DATA    G (GPS)             RINEX VERSION / TYPE
teqc 2003Nov3 GPS Data Processor 20031211 22:36:35UTC       PGM / RUN BY / DATE
Solaris 2.7|Ultra 2|cc SC5.0|=+-|*Sparc                     COMMENT
2 OBSERVATION DATA                                          COMMENT
ASHTORIN USGS 25 - JUN - 92 13:40                           COMMENT
                                                            COMMENT
knee Kneeland_1932_USGS                                     MARKER NAME
                                                            MARKER NUMBER
KWC USGS                                                    OBSERVER / AGENCY
1104 ASHTECH L-XII 7A24                                     REC # / TYPE / VERS
1068 ASH700228D NONE                                        ANT # / TYPE
 -2705316.0000 -4014599.0000  4139977.0000                  APPROX POSITION XYZ
        1.4885        0.0000        0.0000                  ANTENNA: DELTA H/E/N
HI is vertical height to base of antenna                    COMMENT
     1     1                                                WAVELENGTH FACT L1/2
     3    L1    L2    C1                                    # / TYPES OF OBSERV
    30.0000                                                 INTERVAL
                                                            COMMENT
Receiver type modified to reflect codeless receiver         COMMENT
Original receiver designation: ASHTECH LM-XII3              COMMENT
                                                            COMMENT
                                                            COMMENT
  1992     6    13     0    28    0.0000000     GPS         TIME OF FIRST OBS
                                                            END OF HEADER
 92  6 13  0 28  0.0000000  0  3G 3G12G16
 -11649160.63116   -177973.55732  23239440.070
 -25941801.53315    264172.39331  24215038.058
   -476417.05316   -154182.63031  22309348.300
 92  6 13  0 28 30.0000000  0  6G 3G25G20G12G16G24
 -11722135.848 6   -234837.37423  23225557.641
    -73967.17916    -72565.31331  24063069.244
  -9977570.24218    -76482.93731  20658692.075
 -25833990.575 5    348180.48622  24235562.089
   -540416.022 7   -204048.55524  22297172.319
   5691237.66318    114779.38734  21703251.382
 92  6 13  0 29  0.0000000  0  6G 3G25G20G12G16G24
 -11794828.211 6   -291480.69425  23211726.926
   -107588.648 5    -98763.83923  24056665.377
 -10012484.925 8   -103689.67222  20652049.304
 -25725923.826 5    432388.15924  24256117.569
   -603790.962 6   -253431.58425  22285115.356
   5753760.764 8    163498.66825  21715148.915
 92  6 13  0 29 30.0000000  0  6G 3G25G20G12G16G24
 -11867164.991 6   -347846.95425  23197957.098
   -140421.168 5   -124347.59524  24050421.929
 -10046604.066 8   -130273.61921  20645553.281
 -25617532.020 5    516849.20025  24276740.922
   -666452.801 6   -302258.94925  22273186.134
   5816840.408 8    212651.60926  21727150.956
 92  6 13  0 30  0.0000000  0  6G 3G25G20G12G16G24
 -11939134.457 6   -403927.06025  23184263.658
   -172451.427 5   -149306.22525  24044328.528
 -10079937.497 8   -156251.51421  20639211.441
 -25508806.380 5    601570.34625  24297437.124
   -728411.979 6   -350538.79625  22261396.496
   5880470.209 8    262233.26026  21739260.443
 92  6 13  0 30 30.0000000  0  6G 3G25G20G12G16G24
 -12010733.877 6   -459718.75225  23170643.697
   -203674.599 5   -173635.93825  24038380.525
 -10112495.805 8   -181611.91125  20633018.089
 -25399747.203 5    686551.37225  24318201.859
   -789676.838 6   -398277.62425  22249737.447
   5944638.322 8    312234.37526  21751470.240
 92  6 13  0 31  0.0000000  0  6G 3G25G20G12G16G24
 -12081973.023 6   -515229.68025  23157082.345
   -234108.631 5   -197350.78325  24032594.291
 -10144300.109 8   -206394.48626  20626963.630
 -25290367.251 5    771782.37025  24339001.100
   -850262.284 6   -445487.01826  22238209.228
   6009305.359 7    362624.25327  21763776.151
 92  6 13  0 31 30.0000000  0  6G 3G25G20G12G16G24
 -12152860.093 6   -570466.31925  23143594.683
   -263767.252 5   -220461.39025  24026946.201
 -10175356.259 8   -230594.07427  20621050.674
 -25180677.841 5    857254.47225  24359881.525
   -910188.637 6   -492182.86126  22226807.072
   6074452.488 7    413388.21527  21776170.621
 92  6 13  0 32  0.0000000  0  6G 3G25G20G12G16G24
 -12223412.993 6   -625442.58025  23130165.540
   -292661.086 5   -242976.06225  24021457.691
 -10205681.158 8   -254223.85128  20615285.065
 -25070700.091 5    942951.27625  24380804.370
   -969475.233 6   -538380.15526  22215522.764
   6140057.042 7    464508.62127  21788659.765
 92  6 13  0 32 30.0000000  0  6G 3G25G20G12G16G24
 -12293651.591 6   -680173.91225  23116807.237
   -320817.674 5   -264916.20125  24016094.104
 -10235286.581 8   -277293.02428  20609650.076
 -24960456.939 5   1028854.89225  24401782.078
  -1028111.076 6   -584070.40126  22204361.400
   6206109.242 7    515977.85327  21801227.394
 92  6 13  0 33  0.0000000  0  6G 3G25G20G12G16G24
 -12363588.027 6   -734669.79125  23103493.784
   -348240.770 5   -286284.88025  24010872.229
 -10264171.795 8   -299800.96529  20604152.842
 -24849963.544 5   1114953.52925  24422812.309
  -1086093.954 6   -629251.81426  22193329.338
   6272606.709 7    567794.05427  21813880.885
 92  6 13  0 33 30.0000000  0  6G 3G25G20G12G16G24
 -12433232.238 6   -788937.92925  23090239.989
   -374920.078 5   -307073.94825  24005806.246
 -10292334.194 8   -321745.70729  20598794.531
 -24739232.834 5   1201237.04125  24443888.468
  -1143434.201 6   -673932.49126  22182420.190
   6339570.330 7    619973.47627  21826625.062
 92  6 13  0 34  0.0000000  0  6G 3G25G20G12G16G24
 -12502593.490 6   -842985.59825  23077039.258
   -400844.044 5   -327274.43125  24000868.544
 -10319767.019 8   -343121.92629  20593572.386
 -24628277.353 5   1287695.72125  24464999.044
  -1200139.480 6   -718118.39126  22171629.041
   6407001.026 7    672516.85027  21839453.661
 92  6 13  0 34 30.0000000  0  6G 3G25G20G12G16G24
 -12571681.916 6   -896820.70925  23063890.391
   -426027.523 5   -346897.87125  23996061.762
 -10346465.783 8   -363926.15129  20588495.341
 -24517110.145 5   1374319.34025  24486150.391
  -1256206.834 6   -761807.21126  22160957.688
   6474892.412 7    725419.19427  21852373.367
 92  6 13  0 35  0.0000000  0  6G 3G25G20G12G16G24
 -12640516.868 6   -950458.27725  23050792.968
   -450486.993 5   -365957.22625  23991418.906
 -10372448.261 8   -384172.22929  20583549.815
 -24405753.771 5   1461090.43825  24507343.559
  -1311661.344 6   -805018.49326  22150408.741
   6543212.437 7    778655.55127  21865375.875
 92  6 13  0 35 30.0000000  0  6G 3G25G20G12G16G24
 -12709108.257 6  -1003906.07425  23037743.572
   -474243.116 5   -384468.49125  23986901.963
 -10397741.911 8   -403881.55729  20578733.499
 -24294220.828 5   1547999.07925  24528575.161
  -1366508.873 6   -847756.79526  22139966.550
   6611933.270 7    832204.23727  21878454.321
 92  6 13  0 36  0.0000000  0  6G 3G25G20G12G16G24
 -12777460.276 6  -1057167.34325  23024742.982
   -497317.238 5   -402448.30825  23982503.438
 -10422370.069 8   -423072.30829  20574048.373
 -24182518.997 5   1635039.33425  24549827.688
  -1420734.739 7   -890010.69726  22129649.972
   6681019.153 7    886037.35127  21891597.732
 92  6 13  0 36 30.0000000  0  6G 3G25G20G12G16G24
 -12845580.047 6  -1110247.60625  23011768.984
   -519722.036 5   -419906.55525  23978243.597
 -10446358.556 7   -441764.65129  20569481.065
 -24070658.225 5   1722203.39425  24571119.608
  -1474338.803 6   -931780.03126  22119449.714
   6750455.634 7    940143.69627  21904813.693
 92  6 13  0 37  0.0000000  0  6G 3G25G20G12G16G24
 -12913477.485 6  -1163154.64725  22998855.124
   -541458.276 5   -436843.86725  23974107.061
 -10469734.197 8   -459979.42029  20565043.657
 -23958651.646 5   1809481.13025  24592427.387
  -1527347.159 6   -973085.23826  22109361.398
   6820221.840 7    994506.95927  21918090.632
 92  6 13  0 37 30.0000000  0  6G 3G25G20G12G16G24
 -12981159.308 6  -1215893.70125  22985978.258
   -562520.406 5   -453255.93725  23970099.645
 -10492495.617 8   -477715.57429  20560702.512
 -23846509.002 5   1896864.78625  24613764.276
  -1579774.944 6  -1013938.03426  22099385.534
   6890311.794 7   1049122.46827  21931427.049
 92  6 13  0 38  0.0000000  0  6G 3G25G20G12G16G24
 -13048629.385 6  -1268467.76425  22973141.895
   -582905.639 5   -469140.56725  23966224.918
 -10514616.515 8   -494952.65029  20556496.394
 -23734237.249 5   1984349.16325  24635128.595
  -1631624.715 6  -1054340.42726  22089522.002
   6960737.736 7   1103999.81227  21944827.472
 92  6 13  0 38 30.0000000  0  6G 3G25G20G12G16G24
 -13115897.353 6  -1320884.32925  22960328.375
   -602619.992 5   -484502.37225  23962468.518
 -10536078.952 8   -511676.61029  20552405.905
 -23621848.843 5   2071924.36125  24656515.849
  -1682907.051 6  -1094300.62926  22079761.479
   7031502.630 7   1159141.25927  21958292.201
 92  6 13  0 39  0.0000000  0  6G 3G25G20G12G16G24
 -13182966.922 6  -1373146.29525  22947575.144
   -621677.585 5   -499352.41525  23958838.901
 -10556874.858 8   -527881.23629  20548455.210
 -23509351.125 5   2159584.85725  24677919.682
  -1733622.806 6  -1133819.41026  22070102.586
   7102601.758 7   1214543.14727  21971823.963
 92  6 13  0 39 30.0000000  0  6G 3G25G20G12G16G24
 -13249842.580 6  -1425257.12625  22934841.340
   -640090.559 6   -513700.20325  23955338.854
 -10576999.113 8   -543562.45829  20544620.805
 -23396751.089 5   2247324.93025  24699346.598
  -1783764.008 7  -1172890.44726  22060568.047
   7174041.039 8   1270210.07927  21985418.382
 92  6 13  0 40  0.0000000  0  6G 3G25G20G12G16G24
 -13316529.851 6  -1477221.19925  22922151.635
   -657880.012 5   -527562.11125  23951953.208
 -10596468.898 8   -558733.72529  20540917.349
 -23284057.383 5   2335138.09125  24720784.577
  -1833322.052 7  -1211507.05626  22051140.713
   7245815.184 8   1326137.95027  21999076.536
 92  6 13  0 40 30.0000000  0  6G 3G25G20G12G16G24
 -13383032.532 6  -1529041.45825  22909495.266
   -675043.625 5   -540936.32625  23948685.710
 -10615316.479 8   -573420.15629  20537333.330
 -23171276.896 5   2423018.83425  24742254.184
  -1882303.981 6  -1249674.79326  22041817.707
   7317904.181 7   1382311.17227  22012792.671
 92  6 13  0 41  0.0000000  0  6G 3G25G20G12G16G24
 -13449354.399 6  -1580720.76525  22896876.732
   -691579.529 6   -553821.44325  23945546.943
 -10633561.534 8   -587637.06929  20533859.275
 -23058416.597 5   2510961.75025  24763718.185
  -1930722.420 7  -1287403.44026  22032603.346
   7390293.568 8   1438718.44227  22026569.393
 92  6 13  0 41 30.0000000  0  6G 3G25G20G12G16G24
 -13515500.905 6  -1632263.47925  22884296.511
   -707490.382 5   -566219.49725  23942505.249
 -10651213.669 8   -601391.98129  20530500.700
 -22945485.028 5   2598960.23125  24785219.540
  -1978585.974 6  -1324699.71926  22023488.996
   7462975.121 7   1495353.40927  22040402.327
 92  6 13  0 42  0.0000000  0  6G 3G25G20G12G16G24
 -13581472.740 6  -1683670.03325  22871740.004
   -722773.451 5   -578128.36725  23939604.097
 -10668270.096 8   -614682.70929  20527254.817
 -22832485.690 5   2687011.47125  24806724.732
  -2025892.283 6  -1361561.72826  22014492.044
   7535937.237 7   1552206.96927  22054281.159
 92  6 13  0 42 30.0000000  0  6G 3G25G20G12G16G24
 -13647273.641 6  -1734943.42025  22859221.570
   -737426.116 5   -589546.00725  23936822.503
 -10684723.612 8   -627503.62129  20524124.954
 -22719425.456 5   2775110.20925  24828245.243
  -2072656.216 6  -1398001.15626  22005596.782
   7609166.421 7   1609268.64227  22068221.268
 92  6 13  0 43  0.0000000  0  6G 3G25G20G12G16G24
 -13712902.007 6  -1786082.35125  22846730.568
   -751457.136 5   -600479.36625  23934139.990
 -10700547.831 8   -639834.19929  20521112.789
 -22606305.834 5   2863255.17325  24849765.755
  -2118879.649 6  -1434019.38226  21996796.105
   7682665.836 7   1666540.89827  22082208.025
 92  6 13  0 43 30.0000000  0  6G 3G25G20G12G16G24
 -13778364.241 6  -1837091.84825  22834266.636
   -764870.760 5   -610931.52325  23931595.861
 -10715736.501 7   -651669.50729  20518219.642
 -22493136.163 5   2951439.20325  24871302.605
  -2164563.607 7  -1469617.26626  21988102.393
   7756431.211 7   1724020.37627  22096243.109
 92  6 13  0 44  0.0000000  0  6G 3G25G20G12G16G24
 -13843676.131 6  -1887984.17825  22821845.485
   -777677.015 5   -620910.37725  23929156.300
 -10730298.816 8   -663016.76329  20515454.267
 -22379935.495 5   3039647.34225  24892849.919
  -2209709.112 6  -1504795.56226  21979518.106
   7830443.814 7   1781692.52127  22110325.860
 92  6 13  0 44 30.0000000  0  6G 3G25G20G12G16G24
 -13908822.882 6  -1938747.84525  22809441.722
   -789855.284 5   -630399.95625  23926842.681
 -10744217.393 7   -673862.40729  20512803.682
 -22266692.027 5   3127888.86525  24914404.457
  -2254296.644 6  -1539539.04126  21971032.601
   7904732.413 7   1839579.70827  22124463.772
 92  6 13  0 45  0.0000000  0  6G 3G25G20G12G16G24
 -13973810.161 6  -1989387.25425  22797081.759
   -801418.171 5   -639409.94925  23924645.083
 -10757511.308 7   -684221.29329  20510269.806
 -22153414.225 5   3216157.10325  24935955.577
  -2298317.295 6  -1573840.84926  21962651.663
   7979299.633 7   1897683.99427  22138654.119
 92  6 13  0 45 30.0000000  0  6G 3G25G20G12G16G24
 -14038643.103 6  -2039906.39725  22784741.432
   -812373.981 5   -647946.92425  23922561.855
 -10770199.776 7   -694108.42729  20507857.196
 -22040110.396 5   3304445.67425  24957512.514
  -2341757.613 6  -1607690.41126  21954387.284
   8054146.160 7   1956005.92727  22152896.299
 92  6 13  0 46  0.0000000  0  6G 3G25G20G12G16G24
 -14103331.147 6  -2090312.63825  22772430.125
   -822739.151 6   -656023.74125  23920589.131
 -10782308.086 8   -703543.45629  20505552.901
 -21926793.288 5   3392744.56025  24979086.598
  -2384620.357 7  -1641089.96926  21946228.102
   8129260.174 7   2014536.32527  22167190.373
 92  6 13  0 46 30.0000000  0  6G 3G25G20G12G16G24
 -14167859.966 6  -2140594.79125  22760145.709
   -832505.788 5   -663634.07925  23918720.344
 -10793829.345 8   -712521.05229  20503361.658
 -21813451.065 5   3481063.00125  25000648.571
  -2426895.440 7  -1674031.52226  21938186.110
   8204643.861 7   2073276.82727  22181533.104
 92  6 13  0 47  0.0000000  0  6G 3G25G20G12G16G24
 -14232237.116 6  -2190758.77525  22747901.855
   -841686.944 5   -670788.20825  23916973.993
 -10804772.808 8   -721048.42729  20501278.940
 -21700094.818 5   3569392.42325  25022209.974
  -2468595.242 7  -1706524.85726  21930247.965
   8280266.787 7   2132203.74827  22195925.211
 92  6 13  0 47 30.0000000  0  6G 3G25G20G12G16G24
 -14296464.279 7  -2240805.88825  22735681.026
   -850271.841 5   -677477.75725  23915342.493
 -10815118.931 8   -729110.33729  20499310.233
 -21586728.921 5   3657729.25125  25043799.319
  -2509728.855 7  -1738577.00826  21922423.232
   8356120.533 7   2191310.55727  22210358.449
 92  6 13  0 48  0.0000000  0  6G 3G25G20G12G16G24
 -14360541.193 6  -2290735.89325  22723485.858
   -858245.519 5   -683690.96125  23913817.778
 -10824856.003 8   -736697.67229  20497457.845
 -21473356.483 5   3746071.22925  25065371.994
  -2550310.618 7  -1770199.19526  21914702.077
   8432190.032 7   2250585.47027  22224837.285
 92  6 13  0 48 30.0000000  0  6G 3G25G20G12G16G24
 -14424465.455 6  -2340547.01625  22711323.968
   -865609.944 5   -689429.53225  23912413.461
 -10833963.253 8   -743794.27929  20495724.955
 -21359977.922 5   3834417.96525  25086933.637
  -2590345.203 7  -1801394.97526  21907080.993
   8508473.482 7   2310027.02827  22239352.397
 92  6 13  0 49  0.0000000  0  6G 3G25G20G12G16G24
 -14488231.330 6  -2390234.63025  22699186.330
   -872357.637 5   -694687.43825  23911133.886
 -10842422.792 8   -750386.07829  20494117.468
 -21246590.584 5   3922771.64325  25108524.300
  -2629827.824 6  -1832160.54426  21899568.434
   8584987.913 7   2369648.70227  22253913.886
 92  6 13  0 49 30.0000000  0  6G 3G25G20G12G16G24
 -14551831.737 6  -2439793.32925  22687084.338
   -878485.113 5   -699462.03225  23909976.748
 -10850225.376 7   -756466.02429  20492628.938
 -21133190.428 5   4011135.22225  25130080.997
  -2668749.988 6  -1862489.49526  21892154.867
   8661745.633 7   2429459.88427  22268519.954
 92  6 13  0 50  0.0000000  0  5G 3G25G20G16G24
 -14615267.072 6  -2489223.41925  22675009.028
   -884005.290 5   -703763.57725  23908925.345
 -10857388.589 8   -762047.72129  20491266.651
  -2707101.684 6  -1892373.92726  21884861.216
   8738745.858 7   2489460.02227  22283172.850
 92  6 13  0 50 30.0000000  0  5G 3G25G20G16G24
 -14678528.522 6  -2538518.01725  22662968.733
   -888918.910 5   -707592.28325  23907991.762
 -10863915.646 8   -767133.75029  20490022.513
  -2744860.211 7  -1921796.16226  21877676.989
   8816006.486 7   2549663.07027  22297875.662
 92  6 13  0 51  0.0000000  0  5G 3G25G20G16G24
 -14741618.253 6  -2587678.82325  22650972.418
   -893216.304 5   -710940.96125  23907173.748
 -10869819.047 7   -771733.80129  20488899.100
  -2782015.346 7  -1950748.15926  21870606.654
   8893531.588 7   2610072.22627  22312625.151
 92  6 13  0 51 30.0000000  0  5G 3G25G20G16G24
 -14804539.289 7  -2636708.17325  22638999.007
   -896904.047 5   -713814.54925  23906473.103
 -10875101.252 8   -775849.80929  20487896.684
  -2818560.657 7  -1979225.03226  21863653.658
   8971321.694 7   2670687.85527  22327428.483
 92  6 13  0 52  0.0000000  0  5G 3G25G20G16G24
 -14867295.605 6  -2685609.14325  22627052.997
   -899979.017 5   -716210.61625  23905877.505
 -10879761.578 8   -779481.24529  20487009.149
  -2854495.212 7  -2007225.95827  21856817.640
   9049381.492 7   2731513.64527  22342279.692
 92  6 13  0 52 30.0000000  0  5G 3G25G20G16G24
 -14929890.753 6  -2734384.55925  22615141.463
   -902440.155 5   -718128.41425  23905414.776
 -10883788.968 8   -782619.46629  20486245.158
  -2889832.311 7  -2034761.34027  21850087.959
   9127714.584 7   2792552.38227  22357190.589
 92  6 13  0 53  0.0000000  0  5G 3G25G20G16G24
 -14992322.146 6  -2783032.36325  22603259.759
   -904288.248 5   -719568.54925  23905060.781
 -10887167.654 7   -785252.21129  20485601.653
  -2924577.058 7  -2061835.15927  21843481.343
   9206326.897 7   2853808.74027  22372147.355
 92  6 13  0 53 30.0000000  0  5G 3G25G20G16G24
 -15054594.242 6  -2831556.05325  22591408.753
   -905535.707 5   -720540.54125  23904829.821
 -10889901.132 8   -787382.18729  20485080.794
  -2958748.083 7  -2088461.90127  21836975.576
   9285207.931 7   2915274.44526  22387161.591
 92  6 13  0 54  0.0000000  0  5G 3G25G20G16G24
 -15116705.956 6  -2879954.74325  22579592.044
   -906165.947 6   -721031.68125  23904717.548
 -10891993.795 8   -789012.84629  20484680.271
  -2992355.938 7  -2114649.83127  21830578.725
   9364342.649 7   2976937.82026  22402217.228
 92  6 13  0 54 30.0000000  0  5G 3G25G20G16G24
 -15178662.388 7  -2928232.47325  22567804.144
   -906186.907 5   -721048.03125  23904708.285
 -10893459.216 8   -790154.73629  20484402.213
  -3025407.149 7  -2140403.98727  21824291.417
   9443702.054 7   3038776.28926  22417319.423
 92  6 13  0 55  0.0000000  0  5G 3G25G20G16G24
 -15240463.935 7  -2976389.47625  22556041.607
   -905604.355 5   -720594.07925  23904815.341
 -10894302.841 8   -790812.09129  20484242.424
  -3057890.287 7  -2165715.50127  21818110.416
   9523260.160 7   3100769.59126  22432458.732
 92  6 13  0 55 30.0000000  0  5G 3G25G20G16G24
 -15302118.405 6  -3024431.87925  22544303.833
   -904413.145 5   -719665.88225  23905041.174
 -10894531.534 8   -790990.29729  20484199.404
  -3089807.513 7  -2190586.07926  21812035.842
   9602994.015 7   3162899.84326  22447633.657
 92  6 13  0 56  0.0000000  0  6G 3G25G20G16G17G24
 -15363622.828 6  -3072357.36225  22532601.704
   -902617.201 5   -718266.49325  23905381.169
 -10894144.126 7   -790688.43029  20484271.894
  -3121143.066 7  -2215003.35426  21806074.139
    522181.87215   -204659.85432  23939842.762
   9682903.797 7   3225167.16226  22462837.661
 92  6 13  0 56 30.0000000  0  6G 3G25G20G16G17G24
 -15424977.796 7  -3120166.40825  22520926.197
   -900244.319 5   -716417.46225  23905826.900
 -10893145.220 8   -789910.06329  20484464.780
  -3151885.780 7  -2238958.70226  21800221.111
    421508.528 5   -283106.46323  23920691.510
   9762988.428 7   3287570.75126  22478076.831
 92  6 13  0 57  0.0000000  0  6G 3G25G20G16G17G24
 -15486184.939 7  -3167860.26225  22509287.564
   -897293.657 5   -714118.27425  23906391.230
 -10891532.833 8   -788653.66429  20484766.431
  -3182032.147 7  -2262449.35027  21794488.270
    321056.867 5   -361380.43824  23901562.173
   9843263.370 7   3350122.61726  22493356.323
 92  6 13  0 57 30.0000000  0  6G 3G25G20G16G17G24
 -15547245.573 7  -3215439.93925  22497662.722
   -893757.793 5   -711363.07125  23907067.831
 -10889315.997 7   -786926.25829  20485192.077
  -3211593.024 7  -2285483.77827  21788863.234
    220829.188 5   -439479.82624  23882492.375
   9923739.877 7   3412831.54426  22508668.193
 92  6 13  0 58  0.0000000  0  6G 3G25G20G16G17G24
 -15608161.811 6  -3262907.08125  22486069.598
   -889654.524 5   -708165.75825  23907836.050
 -10886512.362 8   -784741.59129  20485724.598
  -3240571.724 7  -2308064.59727  21783344.444
    120829.812 5   -517401.33225  23863463.018
  10004414.225 6   3475694.63326  22524023.533
 92  6 13  0 58 30.0000000  0  6G 3G25G20G16G17G24
 -15668931.940 6  -3310260.39625  22474505.404
   -884972.995 5   -704517.80925  23908736.146
 -10883114.841 8   -782094.18129  20486372.659
  -3268965.380 7  -2330189.47027  21777946.172
     21051.032 5   -595150.93825  23844471.646
  10085285.511 7   3538711.17226  22539410.351
 92  6 13  0 59  0.0000000  0  6G 3G25G20G16G17G24
 -15729555.383 6  -3357499.39025  22462965.523
   -879698.521 5   -700407.85425  23909756.550
 -10879110.741 7   -778974.10929  20487132.453
  -3296771.516 7  -2351856.57027  21772652.466
    -78529.611 5   -672746.14225  23825539.093
  10166362.311 7   3601887.88326  22554840.009
 92  6 13  0 59 30.0000000  0  6G 3G25G20G16G17G24
 -15790033.810 6  -3404625.39725  22451460.028
   -873846.029 5   -695847.49325  23910858.497
 -10874495.996 8   -775378.19429  20488012.074
  -3323985.171 7  -2373062.00527  21767473.552
   -177927.440 5   -750198.88125  23806616.492
  10247642.398 7   3665222.97126  22570305.732
 92  6 13  1  0  0.0000000  0  6G 3G25G20G16G17G24
 -15850370.081 6  -3451640.61526  22439979.655
   -867430.676 5   -690848.56225  23912075.265
 -10869265.624 7   -771302.57529  20489008.644
  -3350588.225 7  -2393791.67027  21762411.466
   -277135.534 5   -827503.77025  23787737.632
  10329120.598 6   3728712.44126  22585807.761
 92  6 13  1  0 30.0000000  0  6G 3G25G20G16G17G24
 -15910564.534 7  -3498545.35825  22428527.404
   -860448.265 5   -685407.70225  23913399.628
 -10863407.406 7   -766737.72829  20490121.264
  -3376572.816 7  -2414039.35427  21757466.359
   -376147.701 5   -904655.98125  23768901.072
  10410800.284 7   3792358.91726  22601356.706
 92  6 13  1  1  0.0000000  0  6G 3G25G20G16G17G24
 -15970616.919 7  -3545339.40825  22417102.553
   -852898.110 5   -679524.46025  23914854.731
 -10856922.214 7   -761684.34329  20491355.810
  -3401939.475 7  -2433805.58927  21752637.632
   -474951.420 5   -981645.81225  23750095.391
  10492677.493 6   3856159.32426  22616932.124
 92  6 13  1  1 30.0000000  0  6G 3G25G20G16G17G24
 -16030528.768 7  -3592023.91826  22405692.152
   -844776.130 5   -673195.64725  23916391.377
 -10849831.119 7   -756158.79829  20492707.064
  -3426698.013 6  -2453097.89927  21747930.891
   -573533.887 5  -1058463.20425  23731341.754
  10574733.355 6   3920098.93726  22632548.253
 92  6 13  1  2  0.0000000  0  6G 3G25G20G16G17G24
 -16090302.975 7  -3638601.17826  22394324.562
   -836071.189 5   -666412.64325  23918045.452
 -10842137.773 7   -750163.99829  20494168.912
  -3450861.311 7  -2471926.45627  21743329.496
   -671896.539 5  -1135109.36025  23712613.509
  10656952.766 6   3984165.96426  22648194.451
 92  6 13  1  2 30.0000000  0  6G 3G25G20G16G17G24
 -16149935.392 7  -3685067.98526  22382975.409
   -826770.851 5   -659165.54925  23919811.439
 -10833833.836 7   -743693.39229  20495752.896
  -3474442.844 7  -2490301.66927  21738843.162
   -770051.113 5  -1211593.32925  23693943.005
  10739331.988 6   4048357.55026  22663868.290
 92  6 13  1  3  0.0000000  0  6G 3G25G20G16G17G24
 -16209424.895 7  -3731423.39826  22371656.654
   -816876.982 5   -651456.06825  23921704.958
 -10824922.014 7   -736749.13129  20497446.543
  -3497451.323 7  -2508230.31427  21734466.162
   -868003.578 5  -1287919.79025  23675300.231
  10821867.267 6   4112670.71326  22679575.946
 92  6 13  1  3 30.0000000  0  6G 3G25G20G16G17G24
 -16268770.721 7  -3777666.88526  22360361.374
   -806400.587 5   -643292.73025  23923694.141
 -10815396.282 7   -729326.48829  20499253.122
  -3519883.698 7  -2525710.08727  21730197.387
   -965746.292 5  -1364082.86325  23656708.721
  10904570.446 6   4177114.70626  22695315.980
 92  6 13  1  4  0.0000000  0  6G 3G25G20G16G17G24
 -16327974.596 7  -3823799.72926  22349091.606
   -795357.806 5   -634687.92625  23925793.828
 -10805234.979 7   -721408.59229  20501189.722
  -3541745.264 7  -2542745.03826  21726035.818
  -1063269.472 5  -1440074.85425  23638140.446
  10987454.682 6   4241699.79626  22711086.952
 92  6 13  1  4 30.0000000  0  6G 3G25G20G16G17G24
 -16387038.432 7  -3869823.47826  22337852.806
   -783760.252 5   -625650.92725  23927995.473
 -10794446.284 7   -713001.83429  20503242.401
  -3563033.348 7  -2559333.14027  21721985.352
  -1160564.174 5  -1515888.76925  23619630.150
  11070526.629 6   4306431.15626  22726898.546
 92  6 13  1  5  0.0000000  0  6G 3G25G20G16G17G24
 -16445960.280 6  -3915736.57726  22326641.138
   -771609.752 5   -616182.98825  23930297.070
 -10783025.401 7   -704102.45729  20505418.894
  -3583738.732 7  -2575467.22627  21718042.122
  -1257615.283 5  -1591512.93525  23601164.134
  11153796.602 6   4371316.80326  22742742.517
 92  6 13  1  5 30.0000000  0  6G 3G25G20G16G17G24
 -16504740.464 7  -3961539.28726  22315456.271
   -758906.672 5   -606284.53025  23932725.959
 -10770966.644 7   -694706.01329  20507712.336
  -3603854.208 7  -2591141.57527  21714217.970
  -1354416.026 5  -1666941.94125  23582728.457
  11237264.332 6   4436356.55926  22758625.342
 92  6 13  1  6  0.0000000  0  6G 3G25G20G16G17G24
 -16563381.283 7  -4007233.41926  22304295.627
   -745649.182 5   -595954.05425  23935259.595
 -10758282.929 7   -684822.60829  20510126.625
  -3623377.311 7  -2606354.40827  21710500.783
  -1450980.318 5  -1742186.72825  23564360.743
  11320904.446 6   4501530.66226  22774538.445
 92  6 13  1  6 30.0000000  0  6G 3G25G20G16G17G24
 -16621882.970 7  -4052819.12426  22293164.483
   -731840.794 5   -585194.29625  23937880.860
 -10744980.909 7   -674457.38529  20512656.423
  -3642295.160 7  -2621095.54527  21706902.404
  -1547318.567 5  -1817255.41625  23546030.952
  11404695.233 6   4566822.12726  22790487.404
 92  6 13  1  7  0.0000000  0  6G 3G25G20G16G17G24
 -16680247.717 7  -4098298.12526  22282060.231
   -717487.667 5   -574010.02525  23940609.121
 -10731059.553 8   -663609.58929  20515305.150
  -3660611.785 7  -2635368.25427  21703417.107
  -1643435.362 5  -1892151.53325  23527740.734
  11488617.629 6   4632216.11926  22806456.209
 92  6 13  1  7 30.0000000  0  6G 3G25G20G16G17G24
 -16738477.760 7  -4143672.15426  22270978.372
   -702599.405 5   -562408.81125  23943439.342
 -10716537.157 7   -652293.43629  20518067.198
  -3678331.180 7  -2649175.54827  21700044.262
  -1739332.978 5  -1966876.82125  23509500.581
  11572644.255 6   4697691.39026  22822443.631
 92  6 13  1  8  0.0000000  0  6G 3G25G20G16G17G24
 -16796572.178 7  -4188940.50126  22259925.444
   -687178.616 5   -550392.69025  23946366.635
 -10701427.596 8   -640519.74829  20520945.085
  -3695461.432 7  -2662523.78427  21696785.758
  -1835020.745 5  -2041438.60025  23491290.108
  11656761.430 6   4763237.21326  22838452.848
 92  6 13  1  8 30.0000000  0  6G 3G25G20G16G17G24
 -16854528.681 7  -4234101.40826  22248892.962
   -671228.849 5   -537964.28925  23949419.752
 -10685729.070 7   -628287.13929  20523928.890
  -3712003.695 7  -2675413.85227  21693639.706
  -1930493.457 5  -2115832.81125  23473114.861
  11740987.435 6   4828867.82126  22854478.913
 92  6 13  1  9  0.0000000  0  6G 3G25G20G16G17G24
 -16912348.433 7  -4279155.72926  22237892.527
   -654733.083 5   -525110.44325  23952543.379
 -10669451.603 7   -615603.40229  20527030.213
  -3727961.777 7  -2687848.70127  21690598.581
  -2025750.323 5  -2190058.83725  23454987.070
  11825343.018 6   4894599.38026  22870533.519
 92  6 13  1  9 30.0000000  0  6G 3G25G20G16G17G24
 -16970030.153 7  -4324102.50326  22226916.526
   -637683.364 5   -511824.99025  23955793.879
 -10652593.311 7   -602467.04929  20530240.570
  -3743330.643 7  -2699824.44327  21687674.825
  -2120788.958 5  -2264114.79425  23436894.236
  11909844.375 6   4960444.57726  22886613.817
 92  6 13  1 10  0.0000000  0  6G 3G25G20G16G17G24
 -17027572.284 7  -4368940.49726  22215961.090
   -620071.802 5   -498101.72425  23959141.781
 -10635138.636 8   -588866.02529  20533562.151
  -3758110.374 7  -2711341.08427  21684860.374
  -2215604.084 5  -2337996.62925  23418850.147
  11994521.948 6   5026427.04726  22902730.899
 92  6 13  1 10 30.0000000  0  6G 3G25G20G16G17G24
 -17084974.875 7  -4413669.77926  22205044.328
   -601886.728 5   -483931.57425  23962610.860
 -10617067.214 7   -574784.39729  20536996.783
  -3772293.905 7  -2722393.19027  21682164.940
  -2310176.738 5  -2411689.49225  23400861.311
  12079400.261 6   5092565.94626  22918883.057
 92  6 13  1 11  0.0000000  0  6G 3G25G20G16G17G24
 -17142238.552 7  -4458290.80126  22194144.563
   -583123.336 5   -469310.72125  23966196.288
 -10598379.896 7   -560222.84929  20540555.769
  -3785886.410 7  -2732984.72827  21679579.919
  -2404503.464 5  -2485190.73025  23382911.387
  12164467.666 6   5158852.18326  22935066.334
 92  6 13  1 11 30.0000000  0  6G 3G25G20G16G17G24
 -17199362.687 7  -4502803.08226  22183276.517
   -563802.760 5   -454255.91125  23969861.940
 -10579078.019 7   -545182.43529  20544227.028
  -3798890.251 7  -2743117.59827  21677101.475
  -2498582.988 5  -2558499.35125  23365007.002
  12249695.735 6   5225263.62926  22951284.057
 92  6 13  1 12  0.0000000  0  6G 3G25G20G16G17G24
 -17256346.604 7  -4547206.11626  22172431.945
   -543929.938 5   -438770.41625  23973640.164
 -10559167.266 7   -529667.55929  20548020.391
  -3811300.173 7  -2752787.65327  21674741.149
  -2592421.121 5  -2631619.88725  23347145.727
  12335083.083 6   5291799.18326  22967532.028
 92  6 13  1 12 30.0000000  0  6G 3G25G20G16G17G24
 -17313190.931 7  -4591500.36826  22161611.356
   -523513.411 5   -422861.51025  23977533.989
 -10538653.809 8   -513683.06229  20551923.479
  -3823103.456 7  -2761985.01927  21672495.643
  -2686019.249 5  -2704553.38025  23329339.255
  12420607.376 7   5358441.45226  22983808.540
 92  6 13  1 13  0.0000000  0  6G 3G25G20G16G17G24
 -17369896.195 7  -4635686.28026  22150822.964
   -502579.666 5   -406549.52325  23981514.813
 -10517553.072 7   -497240.94829  20555934.643
  -3834295.324 7  -2770705.94627  21670364.809
  -2779388.894 6  -2777308.86525  23311576.941
  12506243.241 6   5425170.65226  23000106.578
 92  6 13  1 13 30.0000000  0  6G 3G25G20G16G17G24
 -17426458.929 7  -4679761.09026  22140057.957
   -481127.562 5   -389833.60625  23985589.022
 -10495850.066 7   -480329.50929  20560065.303
  -3844860.404 7  -2778938.43327  21668356.679
  -2872524.703 6  -2849882.15525  23293853.901
  12592001.624 6   5491995.31826  23016420.654
 92  6 13  1 14  0.0000000  0  6G 3G25G20G16G17G24
 -17482882.563 7  -4723727.54126  22129319.121
   -459157.843 5   -372714.43625  23989770.348
 -10473528.572 7   -462936.13329  20564315.041
  -3854792.483 7  -2786677.73427  21666460.941
  -2965422.821 5  -2922270.16925  23276170.253
  12677892.018 6   5558922.84326  23032766.657
 92  6 13  1 14 30.0000000  0  6G 3G25G20G16G17G24
 -17539164.902 7  -4767583.88826  22118612.783
   -436678.242 5   -355197.82625  23994045.208
 -10450580.715 7   -445054.69829  20568679.659
  -3864093.240 7  -2793925.02727  21664694.414
  -3058076.732 5  -2994467.92725  23258538.769
  12763900.008 6   5625942.01226  23049132.657
 92  6 13  1 15  0.0000000  0  6G 3G25G20G16G17G24
 -17595307.430 7  -4811331.27426  22107929.079
   -413685.709 5   -337281.61225  23998424.546
 -10427004.211 8   -426683.40529  20573166.473
  -3872771.091 7  -2800687.03527  21663039.500
  -3150497.135 5  -3066483.71225  23240950.695
  12850023.799 7   5693051.39426  23065523.990
 92  6 13  1 15 30.0000000  0  6G 3G25G20G16G17G24
 -17651310.565 7  -4854970.06126  22097266.031
   -390168.306 5   -318956.39825  24002899.968
 -10402798.754 7   -407822.00529  20577770.656
  -3880833.254 7  -2806969.18427  21661511.218
  -3242684.289 5  -3138317.77225  23223411.187
  12936259.962 6   5760248.36326  23081929.503
 92  6 13  1 16  0.0000000  0  6G 3G25G20G16G17G24
 -17707174.284 7  -4898500.18826  22086637.579
   -366132.970 5   -300227.59525  24007472.912
 -10377981.112 7   -388483.59229  20582495.625
  -3888299.316 7  -2812786.89127  21660090.022
  -3334638.657 5  -3209970.43225  23205921.595
  13022603.418 6   5827528.92326  23098364.755
 92  6 13  1 16 30.0000000  0  6G 3G25G20G16G17G24
 -17762901.100 7  -4941923.66326  22076031.821
   -341571.377 5   -281088.64125  24012158.339
 -10352579.606 8   -368690.21529  20587333.196
  -3895188.223 7  -2818154.88927  21658777.500
  -3426369.025 6  -3281448.54225  23188462.402
  13109052.386 6   5894891.72326  23114814.937
 92  6 13  1 17  0.0000000  0  6G 3G25G20G16G17G24
 -17818489.903 7  -4985239.58826  22065458.771
   -316468.473 5   -261528.04025  24016938.140
 -10326599.241 7   -348445.78229  20592270.868
  -3901505.096 7  -2823077.10627  21657577.371
  -3517872.785 6  -3352750.06325  23171050.995
  13195610.489 6   5962339.54626  23131287.093
 92  6 13  1 17 30.0000000  0  6G 3G25G20G16G17G24
 -17873938.799 7  -5028446.49326  22054905.896
   -290826.280 5   -241547.13325  24021804.461
 -10300051.867 7   -327759.53729  20597323.450
  -3907251.385 7  -2827554.72327  21656481.180
  -3609138.143 5  -3423865.82125  23153683.389
  13282287.614 6   6029880.11926  23147778.466
 92  6 13  1 18  0.0000000  0  6G 3G25G20G16G17G24
 -17929252.029 7  -5071547.69826  22044380.513
   -264637.877 5   -221140.60725  24026779.367
 -10272932.835 8   -306627.83229  20602483.927
  -3912418.876 7  -2831581.34327  21655495.852
  -3700164.090 6  -3494795.03825  23136358.113
  13369092.485 6   6097520.23226  23164296.671
 92  6 13  1 18 30.0000000  0  6G 3G25G20G16G17G24
 -17984426.777 7  -5114540.96226  22033883.430
   -237896.435 5   -200303.17625  24031870.202
 -10245225.534 8   -285037.73329  20607758.086
  -3916980.652 7  -2835135.93927  21654633.020
  -3790952.311 5  -3565539.02325  23119077.146
  13456014.430 6   6165251.57826  23180840.088
 92  6 13  1 19  0.0000000  0  6G 3G25G20G16G17G24
 -18039459.686 7  -5157423.72026  22023405.684
   -210619.347 5   -179048.29925  24037067.045
 -10216915.078 8   -262977.65529  20613146.106
  -3920916.822 7  -2838203.09827  21653880.181
  -3881498.169 5  -3636094.10325  23101837.790
  13543053.852 6   6233074.45526  23197398.225
 92  6 13  1 19 30.0000000  0  6G 3G25G20G16G17G24
 -18094354.030 7  -5200198.50826  22012964.812
   -182823.245 5   -157389.06225  24042353.225
 -10188003.716 8   -240449.34429  20618647.417
  -3924224.978 7  -2840780.86527  21653253.105
  -3971797.223 6  -3706456.91925  23084665.978
  13630215.326 6   6300992.44126  23213990.779
 92  6 13  1 20  0.0000000  0  6G 3G25G20G16G17G24
 -18149109.490 7  -5242865.07626  22002543.306
   -154513.655 5   -135329.68225  24047748.530
 -10158469.354 7   -217435.56229  20624264.059
  -3926899.004 7  -2842864.50427  21652743.548
  -4061848.533 5  -3776626.66525  23067529.032
  13717492.914 6   6369000.89826  23230599.970
 92  6 13  1 20 30.0000000  0  6G 3G25G20G16G17G24
 -18203728.817 7  -5285425.57726  21992148.452
   -125715.538 5   -112889.60625  24053203.913
 -10128323.603 7   -193945.37929  20629999.868
  -3928957.272 7  -2844468.35427  21652348.481
  -4151653.514 6  -3846604.53325  23050443.410
  13804872.497 6   6437088.82926  23247225.711
 92  6 13  1 21  0.0000000  0  6G 3G25G20G16G17G24
 -18258210.100 7  -5327878.48526  21981781.509
    -96441.063 5    -90078.34525  24058789.317
 -10097576.938 8   -169986.95029  20635857.513
  -3930412.748 7  -2845602.50227  21652074.561
  -4241196.725 5  -3916378.34225  23033403.327
  13892363.548 6   6505263.60926  23263876.124
 92  6 13  1 21 30.0000000  0  6G 3G25G20G16G17G24
 -18312554.190 7  -5370224.50626  21971440.438
    -66674.802 5    -66883.91425  24064454.855
 -10066224.725 8   -145556.66629  20641821.824
  -3931273.874 7  -2846273.47727  21651908.176
  -4330476.521 6  -3985946.95625  23016409.861
  13979956.634 6   6573517.88426  23280543.295
 92  6 13  1 22  0.0000000  0  6G 3G25G20G16G17G24
 -18366760.242 7  -5412462.94326  21961127.518
    -36411.429 5    -43302.08025  24070219.354
 -10034270.927 7   -120657.62929  20647900.266
  -3931547.698 7  -2846486.87127  21651858.710
  -4419504.732 5  -4055319.48325  22999459.985
  14067636.442 6   6641839.78226  23297225.097
 92  6 13  1 22 30.0000000  0  6G 3G25G20G16G17G24
 -18420826.334 7  -5454592.34026  21950838.191
     -5658.498 5    -19338.78925  24076071.602
 -10001741.218 7    -95309.80529  20654091.850
  -3931249.536 7  -2846254.51627  21651915.221
  -4508278.912 6  -4124494.11225  22982588.445
  14155395.930 6   6710223.77025  23313923.746
 92  6 13  1 23  0.0000000  0  6G 3G25G20G16G17G24
 -18474750.133 7  -5496610.86926  21940576.865
     25593.262 5      5013.16225  24082010.641
  -9968633.602 7    -69511.67129  20660394.686
  -3930368.914 7  -2845568.27127  21652083.225
  -4596797.675 6  -4193469.68025  22965733.064
  14243236.817 6   6778671.16425  23330642.692
 92  6 13  1 23 30.0000000  0  6G 3G25G20G16G17G24
 -18528531.586 7  -5538518.47526  21930339.942
     57356.765 5     29763.91625  24088061.622
  -9934940.061 7    -43256.97029  20666802.241
  -3928906.017 7  -2844428.36927  21652361.222
  -4685076.122 6  -4262258.00225  22948936.412
  14331155.163 6   6847178.93925  23347371.471
 92  6 13  1 24  0.0000000  0  6G 3G25G20G16G17G24
 -18582173.301 7  -5580317.17826  21920131.079
     89607.336 5     54894.23025  24094195.256
  -9900670.343 7    -16553.31629  20673325.095
  -3926859.837 7  -2842833.91027  21652750.143
  -4773113.355 6  -4330858.36925  22932171.298
  14419154.677 6   6915749.97625  23364118.357
 92  6 13  1 24 30.0000000  0  6G 3G25G20G16G17G24
 -18635674.144 7  -5622006.13026  21909957.592
    122338.993 5     80399.40625  24100409.504
  -9865819.497 7     10603.18229  20679956.024
  -3924212.117 7  -2840770.75427  21653255.083
  -4860885.619 6  -4399252.26825  22915475.406
  14507242.193 6   6984389.58225  23380880.503
 92  6 13  1 25  0.0000000  0  6G 3G25G20G16G17G24
 -18689032.421 7  -5663583.99326  21899800.414
    155566.756 5    106291.08825  24106750.264
  -9830376.224 7     38221.30829  20686699.496
  -3920941.222 6  -2838221.97327  21653878.022
  -4948400.870 5  -4467445.89725  22898820.976
  14595432.759 6   7053109.45725  23397665.223
 92  6 13  1 25 30.0000000  0  6G 3G25G20G16G17G24
 -18742245.721 7  -5705048.87626  21889674.594
    189284.097 5    132564.32125  24113171.699
  -9794337.154 7     66303.67929  20693558.568
  -3917048.416 7  -2835188.65627  21654617.400
  -5035668.906 6  -4535446.87825  22882212.534
  14683732.578 6   7121914.45425  23414467.332
 92  6 13  1 26  0.0000000  0  6G 3G25G20G16G17G24
 -18795318.045 7  -5746403.90726  21879570.988
    223478.242 5    159209.05225  24119672.068
  -9757709.334 7     94844.82229  20700528.832
  -3912543.792 6  -2831678.51326  21655472.948
  -5122683.470 6  -4603250.35425  22865657.095
  14772139.390 6   7190802.81425  23431290.695
 92  6 13  1 26 30.0000000  0  6G 3G25G20G16G17G24
 -18848250.502 7  -5787649.97826  21869495.084
    258157.686 5    186231.95525  24126274.758
  -9720495.050 7    123842.95929  20707614.067
  -3907432.449 7  -2827695.66126  21656443.586
  -5209453.986 6  -4670863.67725  22849147.284
  14860643.513 6   7259767.04325  23448131.896
 92  6 13  1 27  0.0000000  0  6G 3G25G20G16G17G24
 -18901038.426 7  -5828783.40226  21859458.662
    293322.239 5    213632.91125  24132960.339
  -9682687.560 7    153303.33929  20714809.446
  -3901729.090 7  -2823251.47727  21657534.231
  -5296002.026 6  -4738303.59425  22832675.847
  14949242.732 6   7328805.32925  23464994.652
 92  6 13  1 27 30.0000000  0  6G 3G25G20G16G17G24
 -18953684.492 7  -5869806.30726  21849442.086
    328963.250 5    241405.08525  24139733.610
  -9644296.388 7    183218.52229  20722111.371
  -3895446.620 7  -2818356.05827  21658727.015
  -5382307.109 6  -4805554.27325  22816252.167
  15037910.956 6   7397897.43625  23481868.021
 92  6 13  1 28  0.0000000  0  6G 3G25G20G16G17G24
 -19006186.993 7  -5910717.32726  21839448.924
    365084.599 5    269551.54125  24146619.213
  -9605336.779 7    213576.63529  20729525.088
  -3888571.076 7  -2812998.46127  21660038.038
  -5468347.713 6  -4872598.80325  22799875.165
  15126639.184 6   7467036.26025  23498750.743
 92  6 13  1 28 30.0000000  0  6G 3G25G20G16G17G24
 -19058545.350 7  -5951516.03126  21829483.163
    401673.885 5    298062.62925  24153579.975
  -9565818.311 7    244370.22229  20737041.815
  -3881082.347 7  -2807163.08327  21661462.681
  -5554126.029 6  -4939438.97425  22783549.607
  15215414.528 6   7536211.77725  23515644.978
 92  6 13  1 29  0.0000000  0  6G 3G25G20G16G17G24
 -19110758.668 7  -5992201.70126  21819550.889
    438719.372 5    326929.23125  24160628.215
  -9525748.899 7    275593.11929  20744670.094
  -3872984.300 7  -2800852.96527  21663003.195
  -5639634.255 6  -5006068.70825  22767290.573
  15304247.182 6   7605431.96325  23532548.266
 92  6 13  1 29 30.0000000  0  6G 3G25G20G16G17G24
 -19162827.900 7  -6032775.11026  21809640.080
    476203.775 5    356137.77625  24167767.922
  -9485131.208 7    307243.27729  20752398.773
  -3864280.194 7  -2794070.48127  21664655.801
  -5724866.149 6  -5072483.08725  22751068.293
  15393146.962 6   7674704.48825  23549463.456
 92  6 13  1 30  0.0000000  0  6G 3G25G20G16G17G24
 -19214751.872 7  -6073235.33926  21799755.263
    514113.632 5    385677.92425  24174986.865
  -9443961.580 7    339323.48029  20760232.050
  -3854959.143 6  -2786807.34327  21666427.814
  -5809844.042 6  -5138699.54725  22734886.336
  15482129.802 6   7744041.71525  23566398.072
 92  6 13  1 30 30.0000000  0  6G 3G25G20G16G17G24
 -19266528.819 7  -6113580.98227  21789907.711
    552446.539 5    415547.67225  24182280.516
  -9402232.036 7    371839.97229  20768175.741
  -3845044.131 7  -2779081.40527  21668321.903
  -5894581.569 6  -5204728.75325  22718771.742
  15571209.829 6   7813454.66825  23583349.147
 92  6 13  1 31  0.0000000  0  6G 3G25G20G16G17G24
 -19318162.431 7  -6153814.95227  21780079.944
    591223.992 5    445763.85125  24189665.483
  -9359945.340 7    404790.62929  20776221.031
  -3834554.987 7  -2770907.97627  21670313.214
  -5979072.360 6  -5270565.65525  22702691.144
  15660391.975 6   7882947.18525  23600316.471
 92  6 13  1 31 30.0000000  0  6G 3G25G20G16G17G24
 -19369650.418 7  -6193935.46227  21770281.648
    630470.841 5    476345.76525  24197115.236
  -9317093.916 8    438181.32429  20784378.654
  -3823469.494 7  -2762269.93927  21672424.263
  -6063310.646 6  -5336205.83025  22686648.320
  15749661.384 6   7952507.74125  23617308.797
 92  6 13  1 32  0.0000000  0  6G 3G25G20G16G17G24
 -19420993.742 7  -6233943.22427  21760510.662
    670211.608 5    507312.58725  24204649.350
  -9273688.746 7    472003.51829  20792637.397
  -3811775.840 7  -2753158.00727  21674651.451
  -6147292.753 6  -5401646.36225  22670681.943
  15839000.352 6   8022122.47525  23634306.820
 92  6 13  1 32 30.0000000  0  6G 3G25G20G16G17G24
 -19472194.556 7  -6273839.95126  21750765.758
    710454.259 5    538670.49125  24212328.264
  -9229720.170 7    506264.72629  20801000.257
  -3799500.745 7  -2743592.99227  21676986.235
  -6230995.336 6  -5466869.10025  22654750.642
  15928396.534 6   8091781.74825  23651322.830
 92  6 13  1 33  0.0000000  0  6G 3G25G20G16G17G24
 -19523248.374 7  -6313622.10026  21741052.513
    751203.336 5    570422.88225  24220098.405
  -9185162.546 7    540984.93729  20809481.536
  -3786631.425 7  -2733564.96527  21679433.111
  -6314402.250 6  -5531861.42025  22638881.848
  16017841.168 6   8161478.82525  23668333.534
 92  6 13  1 33 30.0000000  0  6G 3G25G20G16G17G24
 -19574157.001 7  -6353291.16926  21731366.998
    792420.508 5    602540.13325  24227936.569
  -9140009.893 8    576168.81029  20818075.206
  -3773171.817 7  -2723076.96927  21681999.604
  -6397535.704 6  -5596640.67925  22623061.530
  16107325.070 6   8231206.43625  23685371.129
 92  6 13  1 34  0.0000000  0  6G 3G25G20G16G17G24
 -19624919.940 7  -6392846.66127  21721703.608
    834075.348 5    634998.40125  24235861.402
  -9094254.233 7    611822.53429  20826779.800
  -3759147.904 7  -2712149.23127  21684666.318
  -6480396.438 6  -5661207.38925  22607293.257
  16196857.953 5   8300972.25925  23702404.797
 92  6 13  1 34 30.0000000  0  6G 3G25G20G16G17G24
 -19675536.809 7  -6432288.38527  21712074.873
    876154.777 5    667787.56824  24243874.585
  -9047890.577 7    647950.03929  20835602.003
  -3744568.379 7  -2700788.55127  21687438.769
  -6562981.526 6  -5725559.34925  22591579.305
  16286449.851 5   8370784.03025  23719450.966
 92  6 13  1 35  0.0000000  0  6G 3G25G20G16G17G24
 -19726004.595 7  -6471613.90627  21702465.925
    918651.883 5    700902.13624  24251951.473
  -9000933.955 7    684539.60829  20844539.655
  -3729407.701 7  -2688975.03027  21690324.901
  -6645303.877 6  -5789706.55225  22575917.248
  16376101.171 6   8440642.15125  23736514.403
 92  6 13  1 35 30.0000000  0  6G 3G25G20G16G17G24
 -19776323.823 7  -6510823.68027  21692902.606
    961562.760 5    734339.10025  24260126.424
  -8953417.626 7    721565.31229  20853586.073
  -3713661.600 7  -2676705.37827  21693318.808
  -6727366.952 6  -5853651.77625  22560296.592
  16465811.991 5   8510546.59025  23753584.586
 92  6 13  1 36  0.0000000  0  6G 3G25G20G16G17G24
 -19826493.102 7  -6549916.61127  21683346.751
   1004918.201 5    768122.52425  24268383.788
  -8905357.023 7    759015.09129  20862725.456
  -3697323.232 7  -2663974.18627  21696430.863
  -6809155.678 6  -5917383.15025  22544740.091
  16555584.022 6   8580498.81925  23770670.777
 92  6 13  1 36 30.0000000  0  6G 3G25G20G16G17G24
 -19876509.803 7  -6588890.64927  21673829.300
   1048737.474 5    802267.34824  24276725.872
  -8856766.898 7    796877.51729  20871976.092
  -3680380.648 7  -2650772.11327  21699656.930
  -6890665.823 6  -5980897.49425  22529220.315
  16645413.736 6   8650495.91425  23787766.622
 92  6 13  1 37  0.0000000  0  6G 3G25G20G16G17G24
 -19926372.609 7  -6627744.76927  21664344.197
   1093008.055 5    836763.78024  24285148.362
  -8807661.490 7    835141.44729  20881319.064
  -3662828.266 7  -2637094.94227  21702995.389
  -6971905.468 6  -6044201.03625  22513760.108
  16735289.306 5   8720528.76825  23804875.957
 92  6 13  1 37 30.0000000  0  6G 3G25G20G16G17G24
 -19976078.373 7  -6666476.52427  21654878.490
   1137739.147 5    871619.05225  24293647.508
  -8758031.462 7    873814.17729  20890764.025
  -3644669.655 7  -2622945.41527  21706451.486
  -7052870.370 6  -6107290.49226  22498348.647
  16825222.363 5   8790606.42525  23821975.879
 92  6 13  1 38  0.0000000  0  6G 3G25G20G16G17G24
 -20025626.350 7  -6705085.33627  21645458.051
   1182919.397 5    906824.48425  24302245.106
  -8707859.590 7    912909.11729  20900309.837
  -3625910.195 7  -2608327.66327  21710022.134
  -7133561.627 6  -6170166.73026  22482994.897
  16915220.990 5   8860735.11025  23839107.789
 92  6 13  1 38 30.0000000  0  6G 3G25G20G16G17G24
 -20075017.668 7  -6743572.04227  21636053.982
   1228511.675 5    942350.86524  24310925.926
  -8657150.014 7    952423.06329  20909962.734
  -3606552.668 7  -2593243.86527  21713703.046
  -7213979.353 6  -6232829.79426  22467692.530
  17005283.730 5   8930913.86325  23856245.395
 92  6 13  1 39  0.0000000  0  6G 3G25G20G16G17G24
 -20124251.899 7  -6781936.35627  21626684.028
   1274505.619 5    978190.24224  24319681.425
  -8605893.045 7    992363.53229  20919715.342
  -3586588.499 7  -2577687.36327  21717500.937
  -7294119.599 6  -6295276.70726  22452437.861
  17095407.923 5   9001140.42425  23873394.243
 92  6 13  1 39 30.0000000  0  6G 3G25G20G16G17G24
 -20173324.670 7  -6820174.86827  21617347.712
   1320905.388 5   1014345.82724  24328514.960
  -8554069.339 7   1032745.62229  20929572.518
  -3566017.549 7  -2561658.04027  21721420.124
  -7373969.382 6  -6357497.24826  22437251.994
  17185602.630 6   9071421.97925  23890561.498
 92  6 13  1 40  0.0000000  0  6G 3G25G20G16G17G24
 -20222233.833 7  -6858285.90827  21608039.605
   1367697.392 5   1050807.08624  24337404.495
  -8501685.839 7   1073563.90129  20939544.185
  -3544839.268 6  -2545155.51127  21725447.056
  -7453516.221 6  -6419481.72926  22422105.579
  17275855.227 6   9141748.63925  23907734.270
 92  6 13  1 40 30.0000000  0  6G 3G25G20G16G17G24
 -20270980.565 7  -6896270.34627  21598763.097
   1414892.591 5   1087582.53824  24346400.098
  -8448744.125 7   1114817.15729  20949618.711
  -3523047.797 6  -2528175.14526  21729596.633
  -7532754.028 6  -6481225.41026  22407037.651
  17366142.291 5   9212102.08625  23924916.425
 92  6 13  1 41  0.0000000  0  6G 3G25G20G16G17G24
 -20319563.997 7  -6934127.55827  21589520.106
   1462506.714 5   1124684.38125  24355444.417
  -8395223.541 7   1156521.50129  20959805.808
  -3500651.516 7  -2510723.49727  21733855.455
  -7611689.546 6  -6542733.55026  22392015.650
  17456457.989 5   9282477.90425  23942098.370
 92  6 13  1 41 30.0000000  0  6G 3G25G20G16G17G24
 -20367985.370 8  -6971858.47027  21580305.086
   1510532.397 5   1162106.93724  24364600.378
  -8341133.431 7   1198669.60829  20970096.095
  -3477676.746 7  -2492821.11027  21738226.339
  -7690339.554 6  -6604019.19026  22377045.664
  17546795.817 5   9352870.96825  23959293.206
 92  6 13  1 42  0.0000000  0  6G 3G25G20G16G17G24
 -20416243.087 7  -7009461.86427  21571121.603
   1558973.702 5   1199853.36524  24373805.685
  -8286481.105 7   1241255.80729  20980493.826
  -3454123.723 7  -2474468.09627  21742711.174
  -7768707.810 6  -6665085.29126  22362135.636
  17637149.625 6   9423276.48825  23976481.807
 92  6 13  1 42 30.0000000  0  5G 3G20G16G17G24
 -20464337.150 7  -7046937.75727  21561967.201
  -8231268.198 7   1284278.82429  20991002.481
  -3430009.425 7  -2455677.74327  21747299.168
  -7846807.863 6  -6725942.42326  22347268.688
  17727527.466 6   9493700.75125  23993688.605
 92  6 13  1 43  0.0000000  0  5G 3G20G16G17G24
 -20512265.720 7  -7084284.64027  21552849.253
  -8175506.991 7   1327729.08629  21001615.224
  -3405347.363 7  -2436460.53627  21751994.997
  -7924644.657 6  -6786594.41626  22332461.159
  17817942.558 5   9564154.01925  24010887.399
 92  6 13  1 43 30.0000000  0  5G 3G20G16G17G24
 -20560024.424 7  -7121499.21827  21543762.693
  -8119211.265 7   1371595.88529  21012327.169
  -3380128.029 7  -2416809.12127  21756789.038
  -8002196.448 6  -6847024.30926  22317695.781
  17908407.014 6   9634645.79925  24028101.661
 92  6 13  1 44  0.0000000  0  5G 3G20G16G17G24
 -20607609.764 7  -7158578.69027  21534708.751
  -8062379.566 7   1415880.28529  21023141.192
  -3354333.956 6  -2396709.86126  21761698.799
  -8079444.647 6  -6907217.64126  22302996.447
  17998937.104 6   9705188.66625  24045329.715
 92  6 13  1 44 30.0000000  0  5G 3G20G16G17G24
 -20655021.510 7  -7195522.89127  21525684.579
  -8005018.951 7   1460576.83829  21034056.246
  -3327967.604 7  -2376164.63526  21766715.946
  -8156389.321 6  -6967174.44926  22288362.708
  18089528.722 6   9775779.45325  24062571.139
 92  6 13  1 45  0.0000000  0  5G 3G20G16G17G24
 -20702258.309 8  -7232330.77027  21516696.501
  -7947127.554 7   1505686.97829  21045072.899
  -3300996.871 6  -2355148.47126  21771843.596
  -8233024.612 6  -7026890.22226  22273772.198
  18180175.683 6   9846413.48225  24079824.584
 92  6 13  1 45 30.0000000  0  5G 3G20G16G17G24
 -20749318.332 7  -7269000.90027  21507738.942
  -7888710.669 7   1551206.60729  21056189.443
  -3273417.260 6  -2333657.93426  21777097.669
  -8309354.644 6  -7086368.10526  22259251.871
  18270880.444 6   9917092.46925  24097082.107
 92  6 13  1 46  0.0000000  0  5G 3G20G16G17G24
 -20796200.214 8  -7305532.20727  21498819.397
  -7829779.871 7   1597126.69329  21067404.709
  -3245229.862 6  -2311693.72526  21782460.446
  -8385397.100 6  -7145621.88926  22244783.317
  18361625.514 6   9987802.82225  24114350.542
 92  6 13  1 46 30.0000000  0  5G 3G20G16G17G24
 -20842902.222 7  -7341923.37727  21489926.983
  -7770335.589 7   1643446.87129  21078716.688
  -3216439.496 7  -2289259.64726  21787941.342
  -8461150.864 6  -7204650.74126  22230360.092
  18452399.144 6  10058535.49225  24131619.248
 92  6 13  1 47  0.0000000  0  5G 3G20G16G17G24
 -20889423.448 7  -7378173.65527  21481080.797
  -7710370.836 7   1690172.62329  21090122.562
  -3187054.604 6  -2266362.34326  21793530.163
  -8536611.362 6  -7263451.04826  22216001.652
  18543212.142 5  10129298.81825  24148907.199
 92  6 13  1 47 30.0000000  0  5G 3G20G16G17G24
 -20935760.848 7  -7414280.71827  21472261.053
  -7649890.496 7   1737300.14829  21101636.031
  -3157091.999 6  -2243014.88326  21799232.755
  -8611772.457 6  -7322018.06626  22201701.342
  18634068.363 5  10200095.78125  24166190.984
 92  6 13  1 48  0.0000000  0  5G 3G20G16G17G24
 -20981917.125 7  -7450246.61827  21463476.834
  -7588877.171 7   1784842.97329  21113247.233
  -3126547.390 6  -2219213.89126  21805046.570
  -8686627.148 6  -7380346.34726  22187456.823
  18724954.389 5  10270916.06425  24183488.319
 92  6 13  1 48 30.0000000  0  5G 3G20G16G17G24
 -21027893.379 8  -7486072.25927  21454727.601
  -7527318.702 7   1832810.59129  21124961.414
  -3095419.857 6  -2194958.68426  21810967.531
  -8761178.158 6  -7438437.94826  22173269.595
  18815879.855 5  10341766.97425  24200791.171
 92  6 13  1 49  0.0000000  0  5G 3G20G16G17G24
 -21073686.299 8  -7521755.06427  21446012.574
  -7465221.596 7   1881197.89628  21136774.196
  -3063694.674 6  -2170237.75326  21817004.332
  -8835432.350 6  -7496298.33226  22159143.854
  18906850.812 5  10412653.34825  24218101.068
 92  6 13  1 49 30.0000000  0  5G 3G20G16G17G24
 -21119297.396 7  -7557296.14627  21437335.831
  -7402597.760 7   1929995.67928  21148691.905
  -3031371.035 6  -2145050.52426  21823158.472
  -8909402.381 6  -7553937.24126  22145066.979
  18997856.844 5  10483567.10625  24235416.660
 92  6 13  1 50  0.0000000  0  5G 3G20G16G17G24
 -21164727.155 8  -7592695.96527  21428690.176
  -7339445.561 7   1979205.17128  21160714.932
  -2998460.150 6  -2119405.62826  21829416.160
  -8983086.898 6  -7611353.66726  22131039.930
  19088901.188 5  10554510.68625  24252744.334
 92  6 13  1 50 30.0000000  0  5G 3G20G16G17G24
 -21209975.422 7  -7627954.33227  21420076.659
  -7275779.400 7   2028815.14028  21172826.937
  -2964971.911 6  -2093310.92326  21835793.015
  -9056490.121 6  -7668550.94726  22117071.100
  19179995.102 5  10625492.87325  24270085.350
 92  6 13  1 51  0.0000000  0  5G 3G20G16G17G24
 -21255040.192 8  -7663069.74727  21411502.415
  -7211597.370 7   2078827.07228  21185039.882
  -2930920.205 6  -2066777.11826  21842265.654
  -9129596.721 6  -7725517.05526  22103154.764
  19271140.616 5  10696515.31825  24287417.521
 92  6 13  1 51 30.0000000  0  5G 3G20G16G17G24
 -21299922.130 7  -7698042.65927  21402959.290
  -7146886.996 7   2129250.69728  21197352.748
  -2896326.299 6  -2039820.86226  21848850.865
  -9202392.274 6  -7782240.82826  22089306.751
  19362330.668 5  10767572.37225  24304777.363
 92  6 13  1 52  0.0000000  0  5G 3G20G16G17G24
 -21344620.744 8  -7732872.76327  21394454.597
  -7081639.591 7   2180092.82328  21209771.021
  -2861193.984 7  -2012445.02026  21855539.745
  -9274857.291 6  -7838706.99826  22075521.455
  19453560.995 5  10838660.90925  24322144.430
 92  6 13  1 52 30.0000000  0  5G 3G20G16G17G24
 -21389132.546 8  -7767557.25427  21385989.627
  -7015855.234 7   2231353.32528  21222287.026
  -2825512.413 7  -1984641.20926  21862331.033
  -9346996.788 6  -7894919.56326  22061789.101
  19544817.723 5  10909769.95925  24339503.133
 92  6 13  1 53  0.0000000  0  5G 3G20G16G17G24
 -21433456.538 8  -7802095.43228  21377553.288
  -6949547.470 7   2283021.68128  21234906.430
  -2789281.137 7  -1956409.07526  21869225.990
  -9418810.199 6  -7950878.01826  22048129.508
  19636088.124 5  10980889.67025  24356869.330
 92  6 13  1 53 30.0000000  0  5G 3G20G16G17G24
 -21477594.030 7  -7836488.26428  21369152.923
  -6882734.429 7   2335083.76228  21247622.487
  -2752491.547 7  -1927741.86426  21876224.735
  -9490302.259 6  -8006586.04926  22034519.619
  19727354.994 5  11052006.65925  24374235.108
 92  6 13  1 54  0.0000000  0  5G 3G20G16G17G24
 -21521541.424 8  -7870732.98228  21360790.572
  -6815431.503 7   2387527.56028  21260429.981
  -2715128.002 7  -1898627.40426  21883335.782
  -9561487.668 6  -8062055.14526  22020973.168
  19818627.253 5  11123127.84725  24391612.758
 92  6 13  1 54 30.0000000  0  5G 3G20G16G17G24
 -21565299.968 7  -7904830.52128  21352461.948
  -6747659.957 7   2440336.54428  21273325.343
  -2677183.630 7  -1869060.39726  21890558.442
  -9632386.587 6  -8117301.02926  22007482.027
  19909907.121 5  11194254.93925  24408982.103
 92  6 13  1 55  0.0000000  0  5G 3G20G16G17G24
 -21608867.802 7  -7938779.49528  21344173.496
  -6679414.470 7   2493514.80728  21286312.682
  -2638651.989 7  -1839035.71427  21897887.918
  -9702989.233 6  -8172316.02026  21994045.989
  20001204.234 5  11265395.49825  24426351.299
 92  6 13  1 55 30.0000000  0  5G 3G20G16G17G24
 -21652245.633 8  -7972580.37328  21335917.662
  -6610681.493 7   2547072.96528  21299388.190
  -2599534.219 6  -1808554.34027  21905328.107
  -9773295.525 6  -8227100.07626  21980671.408
  20092521.141 5  11336551.43225  24443725.651
 92  6 13  1 56  0.0000000  0  5G 3G20G16G17G24
 -21695434.570 8  -8006234.09528  21327700.950
  -6541454.717 7   2601015.85328  21312563.110
  -2559838.121 6  -1777622.31427  21912886.804
  -9843311.989 6  -8281658.31626  21967349.291
  20183869.906 5  11407732.18225  24461109.956
 92  6 13  1 56 30.0000000  0  5G 3G20G16G17G24
 -21738431.101 8  -8039737.86828  21319519.344
  -6471724.419 7   2655351.13628  21325834.112
  -2519572.610 7  -1746246.59727  21920550.249
  -9913027.843 6  -8335982.29826  21954085.213
  20275241.058 5  11478930.42925  24478497.259
 92  6 13  1 57  0.0000000  0  5G 3G20G16G17G24
 -21781237.793 7  -8073093.70928  21311371.704
  -6401481.280 7   2710085.99928  21339194.333
  -2478751.706 7  -1714438.10527  21928318.111
  -9982423.763 6  -8390056.96626  21940877.796
  20366632.288 5  11550144.37625  24495890.588
 92  6 13  1 57 30.0000000  0  5G 3G20G16G17G24
 -21823853.952 8  -8106301.11128  21303261.629
  -6330737.134 7   2765211.29428  21352659.721
  -2437389.956 7  -1682208.20326  21936190.182
 -10051504.060 6  -8443885.71226  21927727.580
  20458050.698 5  11621379.43725  24513291.052
 92  6 13  1 58  0.0000000  0  5G 3G20G16G17G24
 -21866280.155 7  -8139360.45128  21295186.419
  -6259496.710 7   2820723.27228  21366218.075
  -2395490.877 7  -1649559.61026  21944159.475
 -10120265.066 6  -8497465.65126  21914652.462
  20549491.449 5  11692631.93225  24530686.059
 92  6 13  1 58 30.0000000  0  5G 3G20G16G17G24
 -21908517.233 8  -8172272.46528  21287151.082
  -6187770.351 7   2876613.93028  21379871.193
  -2353058.962 7  -1616495.78126  21952236.423
 -10188698.011 7  -8550789.96226  21901624.891
  20640944.004 5  11763893.60425  24548082.146
 92  6 13  1 59  0.0000000  0  5G 3G20G16G17G24
 -21950563.431 8  -8205035.69828  21279147.523
  -6115566.221 7   2932876.85128  21393608.073
  -2310097.107 7  -1583019.01527  21960410.054
 -10256802.448 6  -8603858.28426  21888665.762
  20732412.771 5  11835167.84725  24565497.360
 92  6 13  1 59 30.0000000  0  5G 3G20G16G17G24
 -21992418.755 7  -8237650.23628  21271186.894
  -6042897.305 7   2989501.96128  21407438.519
  -2266609.247 7  -1549132.38627  21968685.436
 -10324605.333 6  -8656691.67226  21875763.504
  20823886.091 6  11906445.72525  24582904.659
 92  6 13  2  0  0.0000000  0  5G 3G20G16G17G24
 -22034082.704 8  -8270115.63728  21263254.385
  -5969769.106 8   3046484.94928  21421355.964
  -2222597.265 7  -1514837.32227  21977062.776
 -10392104.525 7  -8709288.38826  21862923.183
  20915353.394 6  11977718.93825  24600306.952
 92  6 13  2  0 30.0000000  0  5G 3G20G16G17G24
 -22075552.952 7  -8302430.09728  21255364.927
  -5896190.782 7   3103818.67928  21435355.102
  -2178058.115 7  -1480131.51527  21985536.949
 -10459307.595 6  -8761654.35726  21850129.030
  21006819.600 5  12048991.27825  24617714.581
 92  6 13  2  1  0.0000000  0  5G 3G20G16G17G24
 -22116828.400 8  -8334592.78228  21247509.975
  -5822157.168 7   3161507.18028  21449442.530
  -2132975.956 7  -1445002.56627  21994115.870
 -10526229.782 6  -8813801.47326  21837392.138
  21098290.705 5  12120267.27525  24635118.552
 92  6 13  2  1 30.0000000  0  5G 3G20G16G17G24
 -22157907.629 7  -8366602.55828  21239692.587
  -5747664.872 7   3219553.08328  21463618.576
  -2087339.191 7  -1409441.48727  22002799.269
 -10592869.424 6  -8865728.40626  21824717.662
  21189777.353 5  12191555.56425  24652529.839
 92  6 13  2  2  0.0000000  0  5G 3G20G16G17G24
 -22198789.537 8  -8398458.57528  21231917.260
  -5672707.207 7   3277961.62227  21477880.153
  -2041143.392 7  -1373444.76227  22011592.122
 -10659209.860 6  -8917422.19926  21812090.614
  21281283.723 5  12262859.24825  24669946.971
 92  6 13  2  2 30.0000000  0  5G 3G20G16G17G24
 -22239474.999 8  -8430161.51528  21224172.241
  -5597286.303 7   3336731.12927  21492228.999
  -1994383.674 7  -1337008.64027  22020488.883
 -10725262.179 6  -8968891.48826  21799523.674
  21372800.210 5  12334170.76625  24687361.675
 92  6 13  2  3  0.0000000  0  5G 3G20G16G17G24
 -22279965.380 7  -8461712.45428  21216465.686
  -5521401.564 7   3395862.06627  21506669.642
  -1947075.656 6  -1300145.22827  22029490.121
 -10791013.280 6  -9020126.07026  21787010.516
  21464314.666 5  12405480.62925  24704770.833
 92  6 13  2  3 30.0000000  0  5G 3G20G16G17G24
 -22320259.530 8  -8493110.47828  21208798.404
  -5445063.902 7   3455345.93327  21521203.431
  -1899240.307 6  -1262870.93527  22038593.649
 -10856444.839 6  -9071111.62326  21774552.491
  21555819.021 5  12476782.68825  24722189.854
 92  6 13  2  4  0.0000000  0  5G 3G20G16G17G24
 -22360355.220 7  -8524353.86828  21201165.808
  -5368280.293 7   3515177.28227  21535814.176
  -1850884.761 7  -1225191.30527  22047796.318
 -10921551.130 6  -9121843.75026  21762171.602
  21647298.976 5  12548065.72625  24739597.603
 92  6 13  2  4 30.0000000  0  5G 3G20G16G17G24
 -22400254.628 8  -8555444.29728  21193575.153
  -5291064.757 7   3575345.19527  21550506.165
  -1802016.002 6  -1187111.78027  22057093.842
 -10986328.233 6  -9172319.36226  21749835.652
  21738757.415 5  12619331.98425  24756995.219
 92  6 13  2  5  0.0000000  0  5G 3G20G16G17G24
 -22439956.111 8  -8586380.49828  21186021.822
  -5213414.159 7   3635852.13227  21565284.944
  -1752646.555 6  -1148642.09427  22066491.646
 -11050761.721 6  -9222527.22926  21737569.764
  21830199.828 5  12690585.78525  24774405.246
 92  6 13  2  5 30.0000000  0  5G 3G20G16G17G24
 -22479455.836 7  -8617159.50328  21178506.745
  -5135328.457 7   3696698.10727  21580141.909
  -1702774.585 7  -1109780.83527  22075978.398
 -11114870.037 6  -9272481.70127  21725378.194
  21921635.326 5  12761834.10125  24791793.628
 92  6 13  2  6  0.0000000  0  5G 3G20G16G17G24
 -22518756.396 8  -8647783.29828  21171025.004
  -5056809.079 7   3757881.99927  21595083.835
  -1652401.190 7  -1070528.85127  22085564.862
 -11178666.023 6  -9322192.81827  21713237.199
  22013063.999 5  12833077.26525  24809206.384
 92  6 13  2  6 30.0000000  0  5G 3G20G16G17G24
 -22557854.747 7  -8678249.53128  21163585.415
  -4977845.737 7   3819411.83627  21610108.713
  -1601534.183 7  -1030892.23226  22095245.010
 -11242159.602 6  -9371668.28727  21701152.175
  22104485.477 5  12904314.81225  24826592.488
 92  6 13  2  7  0.0000000  0  5G 3G20G16G17G24
 -22596751.486 8  -8708558.70028  21156182.670
  -4898432.277 7   3881292.42527  21625221.521
  -1550182.620 7   -990878.07226  22105018.724
 -11305366.269 6  -9420920.17827  21689125.881
  22195896.032 5  12975543.78225  24843982.009
 92  6 13  2  7 30.0000000  0  4G 3G20G16G17
 -22635443.718 7  -8738708.47228  21148819.527
  -4818576.416 6   3943517.75327  21640413.863
  -1498338.593 7   -950480.12826  22114884.594
 -11368290.614 7  -9469952.09127  21677158.885
 92  6 13  2  8  0.0000000  0  4G 3G20G16G17
 -22673928.916 8  -8768696.93328  21141499.554
  -4738278.939 7   4006087.14927  21655699.141
  -1445993.027 7   -909691.40226  22124845.318
 -11430916.202 6  -9518751.22327  21665235.090
 92  6 13  2  8 30.0000000  0  4G 3G20G16G17
 -22712208.179 8  -8798524.92228  21134211.450
  -4657547.120 7   4068995.03627  21671061.976
  -1393148.760 7   -868514.07226  22134901.826
 -11493248.649 6  -9567321.89527  21653371.973
 92  6 13  2  9  0.0000000  0  4G 3G20G16G17
 -22750281.556 8  -8828192.47228  21126968.314
  -4576401.086 7   4132225.68927  21686499.039
  -1339798.185 7   -826942.19926  22145051.900
 -11555280.009 6  -9615657.98727  21641570.552
 92  6 13  2  9 30.0000000  0  4G 3G20G16G17
 -22788147.767 8  -8857698.60528  21119763.852
  -4494851.730 7   4195770.60227  21702021.453
  -1285929.046 7   -784966.27326  22155304.232
 -11617002.627 7  -9663753.51927  21629828.012
 92  6 13  2 10  0.0000000  0  4G 3G20G16G17
 -22825805.098 7  -8887041.95628  21112595.604
  -4412902.033 7   4259627.48527  21717613.239
  -1231538.272 7   -742583.84826  22165655.946
 -11678415.856 6  -9711607.92127  21618135.446
 92  6 13  2 10 30.0000000  0  4G 3G20G16G17
 -22863250.721 8  -8916220.36928  21105474.964
  -4330554.153 6   4323794.62427  21733285.070
  -1176627.178 7   -699795.98826  22176106.201
 -11739518.378 7  -9759220.26527  21606508.296
 92  6 13  2 11  0.0000000  0  4G 3G20G16G17
 -22900484.328 8  -8945233.55228  21098387.390
  -4247798.266 7   4388279.68627  21749034.727
  -1121193.443 7   -656600.89127  22186651.821
 -11800303.600 7  -9806585.33527  21594946.020
 92  6 13  2 11 30.0000000  0  4G 3G20G16G17
 -22937503.856 8  -8974079.90428  21091339.539
  -4164617.007 7   4453096.23627  21764864.068
  -1065244.647 6   -613004.41027  22197298.620
 -11860762.891 7  -9853696.44327  21583440.045
 92  6 13  2 12  0.0000000  0  4G 3G20G16G17
 -22974309.374 8  -9002759.54328  21084338.696
  -4081004.539 7   4518248.75027  21780774.803
  -1008804.947 6   -569025.44127  22208040.424
 -11920909.257 7  -9900563.69427  21571994.659
 92  6 13  2 12 30.0000000  0  4G 3G20G16G17
 -23010898.264 8  -9031270.36228  21077372.359
  -3996950.663 7   4583745.23527  21796767.892
   -951888.674 6   -524675.08627  22218869.527
 -11980744.075 7  -9947188.22327  21560607.762
 92  6 13  2 13  0.0000000  0  4G 3G20G16G17
 -23047270.392 8  -9059612.25728  21070453.449
  -3912465.281 7   4649577.97627  21812850.977
   -894504.600 6   -479960.21927  22229786.769
 -12040262.065 7  -9993565.85627  21549281.183
 92  6 13  2 13 30.0000000  0  4G 3G20G16G17
 -23083424.979 8  -9087784.65828  21063576.300
  -3827575.142 7   4715726.07827  21829000.887
   -836661.926 7   -434888.04927  22240798.536
 -12099468.561 6 -10039700.73127  21538009.346
 92  6 13  2 14  0.0000000  0  4G 3G20G16G17
 -23119359.874 7  -9115785.86528  21056732.308
  -3742300.257 7   4782174.00327  21845227.574
   -778352.980 7   -389452.46027  22251891.186
 -12158369.008 7 -10085597.17027  21526807.271
 92  6 13  2 14 30.0000000  0  4G 3G20G16G17
 -23155076.294 8  -9143616.82628  21049940.270
  -3656655.662 6   4848910.01627  21861519.105
   -719566.374 7   -343644.76427  22263080.940
 -12216938.653 7 -10131235.80927  21515661.228
 92  6 13  2 15  0.0000000  0  4G 3G20G16G17
 -23190576.231 8  -9171279.10328  21043178.511
  -3570646.337 7   4915930.19827  21877891.791
   -660297.391 7   -297461.14926  22274359.552
 -12275174.844 7 -10176614.65027  21504577.541
 92  6 13  2 15 30.0000000  0  4G 3G20G16G17
 -23225860.407 8  -9198773.25628  21036467.087
  -3484269.376 7   4983236.89027  21894330.161
   -600539.898 7   -250896.90626  22285728.521
 -12333093.066 6 -10221745.69827  21493555.671
 92  6 13  2 16  0.0000000  0  4G 3G20G16G17
 -23260923.538 8  -9226095.17829  21029796.255
  -3397508.527 7   5050842.71027  21910841.410
   -540292.439 7   -203950.88626  22297194.204
 -12390684.885 7 -10266622.41827  21482599.396
 92  6 13  2 16 30.0000000  0  4G 3G20G16G17
 -23295767.704 8  -9253246.43528  21023170.632
  -3310364.109 6   5118747.39327  21927420.533
   -479570.742 6   -156635.27926  22308748.355
 -12447959.620 7 -10311252.05727  21471699.692
 92  6 13  2 17  0.0000000  0  4G 3G20G16G17
 -23330389.144 8  -9280224.19428  21016578.615
  -3222832.915 7   5186953.46927  21944082.548
   -418374.418 7   -108949.87426  22320393.463
 -12504942.789 7 -10355654.48627  21460856.798
 92  6 13  2 17 30.0000000  0  4G 3G20G16G17
 -23364789.284 8  -9307029.49529  21010031.358
  -3134934.697 7   5255445.53227  21960803.982
   -356718.812 7    -60906.56726  22332125.991
 -12561640.453 7 -10399834.47527  21450064.090
 92  6 13  2 18  0.0000000  0  5G 3G20G23G16G17
 -23398965.363 8  -9333660.18529  21003528.350
  -3046667.319 7   5324225.27927  21977602.103
   -273593.16215   -200491.52931  24361344.542
   -294616.791 7    -12515.39326  22343945.129
 -12618049.367 7 -10443789.43927  21439327.353
 92  6 13  2 18 30.0000000  0  5G 3G20G23G16G17
 -23432915.855 8  -9360115.10928  20997064.675
  -2958026.359 6   5393296.11227  21994465.518
   -381698.394 5   -284729.34722  24340779.469
   -232063.405 6     36227.50926  22355849.917
 -12674171.733 7 -10487521.12527  21428650.184
 92  6 13  2 19  0.0000000  0  5G 3G20G23G16G17
 -23466638.103 8  -9386392.16528  20990646.898
  -2869001.843 7   5462665.80527  22011411.437
   -489742.459 5   -368919.37624  24320210.678
   -169057.344 7     85323.13926  22367841.645
 -12729997.001 7 -10531021.31427  21418029.317
 92  6 13  2 19 30.0000000  0  5G 3G20G23G16G17
 -23500131.525 7  -9412490.91729  20984275.378
  -2779596.751 7   5532332.04827  22028423.280
   -597710.270 5   -453050.05425  24299659.726
   -105603.686 6    134767.55227  22379912.279
 -12785514.379 7 -10574281.59527  21407466.849
 92  6 13  2 20  0.0000000  0  5G 3G20G23G16G17
 -23533393.862 8  -9438409.63329  20977947.479
  -2689810.035 7   5602295.68127  22045509.681
   -705586.571 5   -537109.33725  24279137.043
    -41684.082 6    184575.01027  22392074.589
 -12840713.345 7 -10617293.75827  21396963.321
 92  6 13  2 20 30.0000000  0  5G 3G20G23G16G17
 -23566425.181 8  -9464148.29028  20971664.699
  -2599661.600 7   5672541.18127  22062666.054
   -813362.025 5   -621090.08825  24258628.541
     22707.435 7    234750.19027  22404330.375
 -12895576.434 7 -10660044.17927  21386513.725
 92  6 13  2 21  0.0000000  0  5G 3G20G23G16G17
 -23599222.402 8  -9489704.54829  20965421.880
  -2509174.513 7   5743050.55327  22079881.006
   -921016.419 5   -704976.51925  24238143.123
     87564.712 7    285288.28827  22416671.331
 -12950104.866 7 -10702533.85327  21376144.383
 92  6 13  2 21 30.0000000  0  5G 3G20G23G16G17
 -23631782.677 8  -9515076.21529  20959224.960
  -2418363.522 7   5813812.32027  22097161.763
  -1028535.321 5   -788757.37125  24217688.553
    152887.528 7    336189.15727  22429099.348
 -13004303.602 7 -10744766.60427  21365831.523
 92  6 13  2 22  0.0000000  0  5G 3G20G23G16G17
 -23664104.739 8  -9540262.22329  20953072.770
  -2327227.333 7   5884827.50227  22114508.115
  -1135925.896 5   -872438.18925  24197246.935
    218667.032 7    387445.89927  22441618.831
 -13058173.639 7 -10786743.22127  21355574.304
 92  6 13  2 22 30.0000000  0  5G 3G20G23G16G17
 -23696185.579 8  -9565260.24329  20946967.826
  -2235755.806 7   5956103.95427  22131914.844
  -1243193.763 5   -956023.46325  24176838.653
    284878.524 7    439039.24726  22454218.178
 -13111729.785 7 -10828475.24127  21345387.506
 92  6 13  2 23  0.0000000  0  5G 3G20G23G16G17
 -23728023.916 8  -9590069.35529  20940912.468
  -2143930.345 7   6027656.19727  22149389.447
  -1350348.293 5  -1039520.32925  24156455.824
    351511.784 7    490961.23526  22466899.789
 -13164992.227 7 -10869978.44427  21335253.981
 92  6 13  2 23 30.0000000  0  5G 3G20G23G16G17
 -23759617.122 8  -9614687.41829  20934900.250
  -2051733.657 6   6099497.74827  22166929.494
  -1457398.541 5  -1122935.98725  24136065.380
    418567.812 6    543212.65026  22479660.035
 -13217943.191 7 -10911238.92127  21325174.899
 92  6 13  2 24  0.0000000  0  5G 3G20G23G16G17
 -23790964.128 8  -9639113.64129  20928932.911
  -1959165.283 6   6171628.85626  22184542.960
  -1564351.232 5  -1206275.63725  24115710.941
    486048.654 6    595795.11326  22492501.945
 -13270575.863 7 -10952251.33427  21315156.914
 92  6 13  2 24 30.0000000  0  5G 3G20G23G16G17
 -23822065.401 7  -9663348.38929  20923013.779
  -1866232.660 7   6244043.85326  22202229.666
  -1671202.852 5  -1289536.52025  24095381.445
    553963.419 6    648715.65026  22505421.831
 -13322895.730 7 -10993020.03427  21305207.432
 92  6 13  2 25  0.0000000  0  5G 3G20G23G16G17
 -23852920.383 8  -9687391.24529  20917144.262
  -1772951.540 6   6316730.38726  22219982.116
  -1777941.804 5  -1372709.60825  24075071.915
    622320.584 6    701980.95326  22518432.374
 -13374886.687 7 -11033532.45828  21295312.782
 92  6 13  2 25 30.0000000  0  5G 3G20G23G16G17
 -23883525.165 8  -9711239.11429  20911320.704
  -1679336.347 7   6389677.23626  22237798.482
  -1884557.989 5  -1455787.06325  24054784.569
    691123.990 6    755594.00726  22531524.340
 -13426541.807 7 -11073783.15628  21285483.486
 92  6 13  2 26  0.0000000  0  5G 3G20G23G16G17
 -23913877.543 8  -9734890.30529  20905545.052
  -1585399.556 6   6462874.70226  22255672.289
  -1991056.356 5  -1538772.70825  24034516.261
    760372.252 6    809553.64226  22544700.549
 -13477882.982 7 -11113789.26928  21275706.835
 92  6 13  2 26 30.0000000  0  5G 3G20G23G16G17
 -23943975.932 8  -9758343.60029  20899816.168
  -1491143.370 7   6536321.01126  22273612.679
  -2097430.652 5  -1621661.64825  24014277.362
    830056.516 6    863853.06826  22557960.429
 -13528907.641 7 -11153548.71628  21265999.015
 92  6 13  2 27  0.0000000  0  5G 3G20G23G16G17
 -23973820.909 8  -9781599.41729  20894135.761
  -1396576.724 6   6610009.24326  22291602.775
  -2203675.780 5  -1704449.96025  23994053.303
    900163.873 6    918482.14926  22571302.662
 -13579606.196 7 -11193054.07328  21256351.124
 92  6 13  2 27 30.0000000  0  5G 3G20G23G16G17
 -24003409.981 8  -9804655.81329  20888504.549
  -1301704.447 7   6683935.63626  22309656.966
  -2309798.507 5  -1787142.85325  23973860.272
    970701.331 7    973446.35626  22584725.930
 -13629988.797 7 -11232313.19928  21246764.481
 92  6 13  2 28  0.0000000  0  5G 3G20G23G16G17
 -24032742.222 8  -9827512.10229  20882926.011
  -1206524.616 6   6758101.69426  22327769.647
  -2415800.292 5  -1869741.59525  23953687.717
   1041662.330 7   1028740.62726  22598231.010
 -13680055.293 7 -11271326.02528  21237243.312
 92  6 13  2 28 30.0000000  0  5G 3G20G23G16G17
 -24061816.701 7  -9850167.52929  20877391.513
  -1111034.286 6   6832509.70726  22345942.376
  -2521667.703 5  -1952235.52125  23933545.111
   1113040.040 7   1084359.61326  22611814.547
 -13729798.402 7 -11310086.90028  21227776.946
 92  6 13  2 29  0.0000000  0  5G 3G20G23G16G17
 -24090632.552 8  -9872621.45029  20871904.921
  -1015238.407 7   6907155.79026  22364170.717
  -2627401.106 5  -2034625.06425  23913422.052
   1184838.511 7   1140306.43426  22625474.350
 -13779227.718 7 -11348603.20428  21218369.548
 92  6 13  2 29 30.0000000  0  5G 3G20G23G16G17
 -24119189.484 8  -9894873.58129  20866471.722
   -919131.202 6   6982044.47026  22382456.198
  -2733008.171 5  -2116916.17525  23893315.572
   1257050.639 7   1196575.60026  22639219.025
 -13828351.727 7 -11386881.64428  21209019.681
 92  6 13  2 30  0.0000000  0  5G 3G20G23G16G17
 -24147484.894 8  -9916921.93829  20861088.349
   -822697.674 6   7057187.44126  22400811.801
  -2838474.458 5  -2199097.59625  23873254.930
   1329666.444 6   1253159.31326  22653033.731
 -13877163.192 7 -11424916.51628  21199731.271
 92  6 13  2 30 30.0000000  0  5G 3G20G23G16G17
 -24175517.047 8  -9938765.17229  20855753.482
   -725943.140 6   7132580.51426  22419217.649
  -2943795.197 5  -2281165.58725  23853208.857
   1402690.698 6   1310061.32826  22666932.829
 -13925647.211 7 -11462696.25728  21190502.640
 92  6 13  2 31  0.0000000  0  5G 3G20G23G16G17
 -24203284.608 8  -9960402.21629  20850468.741
   -628875.151 6   7208217.87126  22437690.020
  -3048972.208 5  -2363121.61025  23833199.120
   1476130.556 6   1367287.18026  22680906.845
 -13973796.120 7 -11500214.86028  21181337.925
 92  6 13  2 31 30.0000000  0  5G 3G20G23G16G17
 -24230786.819 8  -9981832.49529  20845236.193
   -531491.672 6   7284101.04926  22456220.882
  -3154002.186 5  -2444963.06125  23813215.014
   1549974.860 6   1424828.16026  22694961.325
 -14021607.111 7 -11537470.14528  21172239.284
 92  6 13  2 32  0.0000000  0  5G 3G20G23G16G17
 -24258022.400 8 -10003055.01329  20840055.750
   -433807.629 6   7360218.43126  22474815.239
  -3258877.731 6  -2526684.15025  23793261.398
   1624232.671 6   1482691.34626  22709090.364
 -14069081.875 7 -11574463.45028  21163206.747
 92  6 13  2 32 30.0000000  0  5G 3G20G23G16G17
 -24284987.275 8 -10024066.59829  20834925.881
   -335831.372 6   7436563.53926  22493458.882
  -3363598.979 5  -2608285.03525  23773328.797
   1698907.366 6   1540879.38626  22723301.995
 -14116221.980 7 -11611195.97128  21154235.218
 92  6 13  2 33  0.0000000  0  5G 3G20G23G16G17
 -24311678.552 8 -10044864.99829  20829844.369
   -237557.582 6   7513140.43726  22512162.934
  -3468152.597 6  -2689755.30325  23753435.409
   1773992.343 7   1599387.18326  22737591.993
 -14163047.046 7 -11647683.01328  21145326.315
 92  6 13  2 33 30.0000000  0  5G 3G20G23G16G17
 -24338094.221 8 -10065448.62829  20824817.029
   -138983.538 6   7589951.32126  22530915.012
  -3572543.167 5  -2771098.49225  23733569.572
   1849480.774 7   1658209.28326  22751951.152
 -14209561.432 7 -11683927.95928  21136475.932
 92  6 13  2 34  0.0000000  0  5G 3G20G23G16G17
 -24364235.266 8 -10085818.25429  20819843.382
    -40110.087 6   7666995.52626  22549732.205
  -3676776.167 5  -2852318.93525  23713731.046
   1925370.252 7   1717343.92126  22766394.853
 -14255764.287 7 -11719930.16928  21127684.548
 92  6 13  2 34 30.0000000  0  5G 3G20G23G16G17
 -24390100.788 8 -10105973.19029  20814920.520
     59062.330 6   7744272.65626  22568603.421
  -3780852.169 5  -2933417.00525  23693921.390
   2001646.067 7   1776779.60326  22780908.615
 -14301653.279 7 -11755687.78928  21118948.356
 92  6 13  2 35  0.0000000  0  5G 3G20G23G16G17
 -24415689.477 8 -10125912.42829  20810050.991
    158529.079 6   7821779.15726  22587531.148
  -3884770.401 5  -3014392.14125  23674147.319
   2078298.082 6   1836508.41726  22795491.959
 -14347217.047 7 -11791191.99628  21110282.406
 92  6 13  2 35 30.0000000  0  5G 3G20G23G16G17
 -24440999.839 8 -10145634.78429  20805234.886
    258280.201 6   7899507.25926  22606503.303
  -3988540.283 5  -3095251.71725  23654399.840
   2155318.964 6   1896524.68426  22810149.862
 -14392434.904 7 -11826426.68228  21101677.193
 92  6 13  2 36  0.0000000  0  5G 3G20G23G16G17
 -24466031.793 8 -10165140.19029  20800474.121
    358301.051 6   7977445.52226  22625546.270
  -4092141.825 6  -3175980.13525  23634692.443
   2232702.263 6   1956823.33826  22824878.066
 -14437313.046 7 -11861396.63128  21093137.994
 92  6 13  2 36 30.0000000  0  5G 3G20G23G16G17
 -24490783.407 8 -10184427.14429  20795761.174
    458578.840 6   8055583.98226  22644623.413
  -4195567.534 5  -3256571.48825  23615016.284
   2310449.565 6   2017405.64526  22839675.971
 -14481851.036 7 -11896101.55128  21084656.776
 92  6 13  2 37  0.0000000  0  5G 3G20G23G16G17
 -24515252.396 8 -10203493.88429  20791105.937
    559116.958 6   8133925.31226  22663759.376
  -4298816.679 6  -3337025.26725  23595367.917
   2388565.308 6   2078275.03026  22854533.326
 -14526049.177 7 -11930541.63528  21076254.163
 92  6 13  2 37 30.0000000  0  5G 3G20G23G16G17
 -24539435.819 8 -10222338.10229  20786500.015
    659911.092 6   8212466.13226  22682937.579
  -4401888.249 6  -3417340.67825  23575757.113
   2467049.200 6   2139431.28626  22869472.224
 -14569931.743 7 -11964735.83628  21067900.926
 92  6 13  2 38  0.0000000  0  5G 3G20G23G16G17
 -24563335.317 8 -10240961.08929  20781954.173
    760962.861 6   8291207.71826  22702170.195
  -4504777.107 6  -3497513.75225  23556168.764
   2545904.797 6   2200877.20226  22884481.783
 -14613516.669 7 -11998698.07828  21059606.808
 92  6 13  2 38 30.0000000  0  5G 3G20G23G16G17
 -24586947.286 8 -10259360.02529  20777462.142
    862288.221 6   8370162.47326  22721446.790
  -4607495.345 6  -3577553.83425  23536620.437
   2625136.395 6   2262616.10126  22899549.022
 -14656793.269 7 -12032420.09629  21051372.288
 92  6 13  2 39  0.0000000  0  5G 3G20G23G16G17
 -24610272.150 8 -10277535.25429  20773024.135
    963889.716 6   8449332.40026  22740784.243
  -4710031.494 6  -3657452.05325  23517116.449
   2704734.629 6   2324640.67626  22914705.300
 -14699765.580 7 -12065904.99529  21043192.751
 92  6 13  2 39 30.0000000  0  5G 3G20G23G16G17
 -24633306.596 8 -10295484.17329  20768638.711
   1065762.460 6   8528713.69626  22760171.401
  -4812368.797 5  -3737195.28325  23497634.616
   2784701.427 6   2386952.40226  22929920.846
 -14742425.406 7 -12099146.38429  21035077.189
 92  6 13  2 40  0.0000000  0  5G 3G20G23G16G17
 -24656050.523 8 -10313206.70829  20764309.797
   1167908.057 6   8608307.64226  22779606.407
  -4914497.360 6  -3816775.91425  23478207.405
   2865045.936 6   2449558.46426  22945211.191
 -14784759.913 7 -12132134.31029  21027021.406
 92  6 13  2 40 30.0000000  0  5G 3G20G23G16G17
 -24678500.015 8 -10330699.80329  20760041.143
   1270313.238 6   8688103.79826  22799085.721
  -5016421.009 6  -3896196.85825  23458798.332
   2945761.592 6   2512453.74926  22960567.340
 -14826765.814 7 -12164866.15529  21019022.434
 92  6 13  2 41  0.0000000  0  5G 3G20G23G16G17
 -24700658.089 8 -10347965.82329  20755822.583
   1372949.457 6   8768079.99226  22818625.504
  -5118142.618 6  -3975460.37325  23439452.305
   3026835.792 6   2575628.44426  22975995.259
 -14868449.024 7 -12197346.57529  21011093.942
 92  6 13  2 41 30.0000000  0  5G 3G20G23G16G17
 -24722522.870 8 -10365003.30329  20751663.322
   1475802.458 6   8848225.14426  22838201.772
  -5219677.622 6  -4054578.44525  23420135.568
   3108274.584 6   2639087.20526  22991495.369
 -14909813.357 7 -12229578.49929  21003225.889
 92  6 13  2 42  0.0000000  0  5G 3G20G23G16G17
 -24744093.264 8 -10381811.42329  20747558.744
   1578865.999 6   8928534.31726  22857808.049
  -5321044.871 6  -4133565.83725  23400839.786
   3190070.129 6   2702823.94826  23007058.285
 -14950864.808 7 -12261566.63729  20995409.640
 92  6 13  2 42 30.0000000  0  5G 3G20G23G16G17
 -24765367.775 8 -10398388.97529  20743509.777
   1682137.050 6   9009005.21126  22877467.149
  -5422249.658 6  -4212426.62625  23381585.705
   3272216.234 6   2766833.87526  23022692.522
 -14991592.179 7 -12293302.23329  20987665.042
 92  6 13  2 43  0.0000000  0  5G 3G20G23G16G17
 -24786345.786 8 -10414735.47529  20739517.801
   1785620.370 6   9089641.49026  22897156.289
  -5523264.542 6  -4291139.45625  23362361.694
   3354723.118 6   2831124.91926  23038389.445
 -15031992.773 7 -12324783.19329  20979970.988
 92  6 13  2 43 30.0000000  0  5G 3G20G23G16G17
 -24807022.382 8 -10430847.08929  20735583.234
   1889332.839 6   9170456.35526  22916888.988
  -5624068.526 6  -4369687.92425  23343175.516
   3437588.282 6   2895695.16226  23054160.237
 -15072066.438 7 -12356009.42129  20972346.487
 92  6 13  2 44  0.0000000  0  5G 3G20G23G16G17
 -24827400.448 8 -10446726.08629  20731702.931
   1993277.903 6   9251452.42825  22936665.847
  -5724656.782 6  -4448068.31525  23324033.198
   3520792.847 6   2960529.88826  23069992.217
 -15111806.191 7 -12386975.42429  20964781.824
 92  6 13  2 44 30.0000000  0  5G 3G20G23G16G17
 -24847477.258 8 -10462370.33829  20727883.755
   2097453.488 6   9332628.16126  22956496.488
  -5825006.174 6  -4526262.56325  23304934.859
   3604337.033 6   3025629.21626  23085890.271
 -15151205.587 7 -12417676.24729  20957285.003
 92  6 13  2 45  0.0000000  0  5G 3G20G23G16G17
 -24867252.196 8 -10477779.36128  20724117.912
   2201848.865 6   9413975.14926  22976360.527
  -5925118.672 6  -4604272.22225  23285883.199
   3688203.827 6   3090979.92026  23101847.804
 -15190275.919 7 -12448120.64329  20949850.450
 92  6 13  2 45 30.0000000  0  5G 3G20G23G16G17
 -24886725.389 8 -10492953.26229  20720414.785
   2306450.653 6   9495482.93826  22996265.007
  -6025029.665 6  -4682124.87225  23266872.549
   3772378.387 6   3156570.49426  23117869.492
 -15229022.814 7 -12478313.01629  20942478.674
 92  6 13  2 46  0.0000000  0  5G 3G20G23G16G17
 -24905890.480 7 -10507887.10129  20716769.999
   2411255.803 6   9577149.25125  23016212.028
  -6124745.761 6  -4759825.60725  23247894.757
   3856881.234 6   3222416.84326  23133958.154
 -15267437.304 7 -12508246.36829  20935171.982
 92  6 13  2 46 30.0000000  0  5G 3G20G23G16G17
 -24924751.880 7 -10522584.29129  20713179.864
   2516250.413 6   9658963.15425  23036192.026
  -6224269.800 6  -4837376.73825  23228960.255
   3941714.527 6   3288520.64626  23150096.342
 -15305531.123 7 -12537929.85729  20927914.516
 92  6 13  2 47  0.0000000  0  5G 3G20G23G16G17
 -24943305.652 8 -10537041.78229  20709648.009
   2621441.933 6   9740930.52425  23056212.436
  -6323602.974 6  -4914779.11925  23210059.240
   4026873.613 6   3354878.34526  23166297.126
 -15343313.771 7 -12567370.85829  20920730.140
 92  6 13  2 47 30.0000000  0  5G 3G20G23G16G17
 -24961551.801 8 -10551259.56529  20706175.813
   2726849.996 6   9823066.60325  23076269.001
  -6422738.833 6  -4992027.79925  23191197.648
   4112364.691 6   3421494.72326  23182569.681
 -15380782.625 7 -12596567.36029  20913600.266
 92  6 13  2 48  0.0000000  0  5G 3G20G23G16G17
 -24979490.179 8 -10565237.50529  20702763.065
   2832492.062 6   9905385.02325  23096362.441
  -6521665.839 6  -5069113.67625  23172369.542
   4198178.276 6   3488362.43926  23198899.136
 -15417941.420 7 -12625522.26229  20906531.549
 92  6 13  2 48 30.0000000  0  5G 3G20G23G16G17
 -24997117.977 8 -10578973.44829  20699409.347
   2938365.641 6   9987883.85125  23116517.518
  -6620373.418 6  -5146028.61125  23153582.868
   4284300.677 6   3555470.74426  23215285.342
 -15454799.641 7 -12654242.92429  20899516.886
 92  6 13  2 49  0.0000000  0  5G 3G20G23G16G17
 -25014434.606 8 -10592466.91629  20696112.230
   3044472.644 6  10070564.57225  23136710.009
  -6718868.223 6  -5222777.73525  23134837.955
   4370723.527 6   3622813.22326  23231722.063
 -15491366.114 7 -12682736.25829  20892559.062
 92  6 13  2 49 30.0000000  0  5G 3G20G23G16G17
 -25031434.487 8 -10605713.56629  20692879.328
   3150804.513 6  10153420.49725  23156943.212
  -6817145.958 6  -5299357.70125  23116137.351
   4457458.485 6   3690398.83725  23248240.088
 -15527631.887 7 -12710995.28429  20885657.480
 92  6 13  2 50  0.0000000  0  5G 3G20G23G16G17
 -25048116.637 8 -10618712.62829  20689703.236
   3257326.930 6  10236424.92725  23177219.855
  -6915195.690 6  -5375760.01025  23097485.973
   4544509.465 6   3758230.76425  23264800.624
 -15563594.480 7 -12739018.07529  20878812.859
 92  6 13  2 50 30.0000000  0  5G 3G20G23G16G17
 -25064479.431 8 -10631462.84129  20686590.132
   3364013.146 6  10319556.96425  23197512.836
  -7013001.974 6  -5451972.63225  23078870.480
   4631885.727 6   3826316.18125  23281430.591
 -15599246.629 7 -12766798.95629  20872026.127
 92  6 13  2 51  0.0000000  0  5G 3G20G23G16G17
 -25080521.670 8 -10643963.29829  20683538.634
   3470864.453 6  10402817.63125  23217849.797
  -7110567.856 6  -5527997.92325  23060303.524
   4719589.679 6   3894656.87925  23298117.969
 -15634574.816 7 -12794327.41929  20865303.491
 92  6 13  2 51 30.0000000  0  5G 3G20G23G16G17
 -25096241.619 7 -10656212.59729  20680545.536
   3577869.811 6  10486198.35125  23238219.975
  -7207888.464 6  -5603832.09925  23041782.166
   4807617.288 6   3963249.79825  23314869.202
 -15669563.662 7 -12821591.41729  20858647.379
 92  6 13  2 52  0.0000000  0  5G 3G20G23G16G17
 -25111638.891 7 -10668210.45629  20677614.825
   3685024.839 6  10569695.70325  23258599.387
  -7304965.457 6  -5679476.44025  23023307.456
   4895949.981 6   4032080.42825  23331674.428
 -15704209.253 8 -12848587.98229  20852051.255
 92  6 13  2 52 30.0000000  0  5G 3G20G23G16G17
 -25126712.538 7 -10679956.16028  20674750.998
   3792338.419 6  10653316.59625  23279024.247
  -7401811.852 6  -5754941.06825  23004879.753
   4984568.128 6   4101133.53225  23348540.452
 -15738515.081 7 -12875319.77829  20845522.405
 92  6 13  2 53  0.0000000  0  5G 3G20G23G16G17
 -25141461.311 7 -10691448.69628  20671943.261
   3899815.092 6  10737064.58225  23299467.694
  -7498431.111 6  -5830228.74326  22986494.651
   5073459.526 6   4170399.54925  23365459.929
 -15772490.325 7 -12901793.99329  20839058.010
 92  6 13  2 53 30.0000000  0  5G 3G20G23G16G17
 -25155883.595 7 -10702686.83728  20669199.081
   4007442.912 6  10820930.37225  23319957.459
  -7594819.336 6  -5905336.37626  22968145.464
   5162612.442 6   4239869.32325  23382423.265
 -15806146.996 7 -12928019.97929  20832652.855
 92  6 13  2 54  0.0000000  0  5G 3G20G23G16G17
 -25169978.036 7 -10713669.50528  20666512.041
   4115237.248 6  10904925.89325  23340469.229
  -7690964.171 6  -5980254.35326  22949855.246
   5252022.792 6   4309539.69525  23399435.678
 -15839501.633 7 -12954010.57329  20826309.396
 92  6 13  2 54 30.0000000  0  5G 3G20G23G16G17
 -25183744.771 7 -10724396.82628  20663893.984
   4223209.548 6  10989060.09625  23361018.354
  -7786865.437 6  -6054982.53026  22931607.149
   5341708.823 6   4379424.88325  23416499.954
 -15872562.000 7 -12979771.89629  20820016.243
 92  6 13  2 55  0.0000000  0  5G 3G20G23G16G17
 -25197180.602 7 -10734866.30628  20661336.245
   4331360.460 6  11073333.46025  23381600.155
  -7882514.650 6  -6129514.32426  22913404.800
   5431682.156 6   4449533.92426  23433625.299
 -15905325.573 7 -13005301.94829  20813783.318
 92  6 13  2 55 30.0000000  0  5G 3G20G23G16G17
 -25210286.293 7 -10745078.51428  20658844.639
   4439691.569 6  11157747.22325  23402219.131
  -7977921.123 6  -6203856.95326  22895245.921
   5521941.060 6   4519865.52126  23450798.550
 -15937784.791 7 -13030594.82629  20807602.856
 92  6 13  2 56  0.0000000  0  5G 3G20G23G16G17
 -25223059.352 7 -10755031.55128  20656410.505
   4548203.720 6  11242302.08925  23422860.981
  -8073080.936 6  -6278007.39126  22877143.823
   5612496.474 6   4590428.15825  23468026.873
 -15969926.943 7 -13055640.66129  20801487.690
 92  6 13  2 56 30.0000000  0  5G 3G20G23G16G17
 -25235500.631 7 -10764726.05028  20654047.480
   4656866.218 6  11326974.12125  23443540.245
  -8168002.168 6  -6351971.90826  22859077.280
   5703344.067 6   4661218.46525  23485319.142
 -16001733.963 7 -13080425.35029  20795436.589
 92  6 13  2 57  0.0000000  0  5G 3G20G23G16G17
 -25247608.088 7 -10774160.42828  20651741.117
   4765668.536 6  11411755.04725  23464248.409
  -8262677.283 6  -6425744.63626  22841061.702
   5794465.811 6   4732222.38425  23502657.339
 -16033199.186 8 -13104943.68629  20789452.042
 92  6 13  2 57 30.0000000  0  5G 3G20G23G16G17
 -25259379.495 7 -10783332.95328  20649503.616
   4874610.590 6  11496644.90225  23484967.995
  -8357093.304 6  -6499315.49026  22823097.448
   5885851.857 6   4803432.23625  23520050.908
 -16064328.839 7 -13129200.55629  20783528.113
 92  6 13  2 58  0.0000000  0  5G 3G20G23G16G17
 -25270814.367 7 -10792243.24028  20647326.313
   4983676.946 6  11581631.62125  23505731.471
  -8451237.704 6  -6572674.69026  22805180.682
   5977502.079 6   4874847.98325  23537487.317
 -16095137.435 7 -13153207.24329  20777663.003
 92  6 13  2 58 30.0000000  0  5G 3G20G23G16G17
 -25281914.502 8 -10800892.69628  20645212.867
   5092865.096 6  11666713.21325  23526505.409
  -8545110.684 6  -6645822.38826  22787311.043
   6069407.719 6   4946462.71125  23554979.397
 -16125639.025 8 -13176974.71329  20771855.304
 92  6 13  2 59  0.0000000  0  5G 3G20G23G16G17
 -25292674.374 7 -10809277.00428  20643165.854
   5202180.318 6  11751893.85625  23547311.366
  -8638706.318 6  -6718753.97126  22769507.598
   6161572.419 6   5018279.33625  23572517.166
 -16155850.249 8 -13200515.91229  20766109.152
 92  6 13  2 59 30.0000000  0  5G 3G20G23G16G17
 -25303091.233 8 -10817394.03428  20641184.825
   5311611.938 6  11837165.15025  23568129.374
  -8732030.680 6  -6791474.16326  22751744.235
   6253996.987 6   5090298.43525  23590104.730
 -16185777.445 8 -13223835.78429  20760412.735
 92  6 13  3  0  0.0000000  0  5G 3G20G23G16G17
 -25313163.514 8 -10825242.55928  20639265.854
   5421155.416 6  11922523.62425  23588976.581
  -8825107.799 6  -6864001.72226  22734036.544
   6346681.582 6   5162520.15425  23607741.611
 -16215399.345 7 -13246917.78729  20754775.978
 92  6 13  3  0 30.0000000  0  5G 3G20G23G16G17
 -25322891.075 8 -10832822.47428  20637418.023
   5530822.264 6  12007978.26925  23609845.704
  -8917948.380 6  -6936344.95426  22716364.738
   6439612.192 6   5234933.59225  23625428.526
 -16244698.557 8 -13269748.31729  20749205.594
 92  6 13  3  1  0.0000000  0  5G 3G20G23G16G17
 -25332272.595 8 -10840132.75228  20635632.129
   5640603.731 6  12093522.19525  23630735.182
  -9010549.412 6  -7008501.53526  22698744.017
   6532773.182 5   5307526.51925  23643155.224
 -16273669.295 7 -13292322.90029  20743690.642
 92  6 13  3  1 30.0000000  0  5G 3G20G23G16G17
 -25341307.218 8 -10847172.71528  20633912.340
   5750507.100 6  12179161.13825  23651655.120
  -9102906.034 6  -7080467.65926  22681171.682
   6626163.496 6   5380298.18225  23660923.953
 -16302298.461 7 -13314631.33629  20738240.355
 92  6 13  3  2  0.0000000  0  5G 3G20G23G16G17
 -25349994.233 8 -10853941.80629  20632257.126
   5860532.880 6  12264895.44225  23672588.878
  -9194996.009 6  -7152226.01026  22663651.600
   6719783.150 6   5453248.52325  23678741.428
 -16330588.105 8 -13336675.18729  20732860.639
 92  6 13  3  2 30.0000000  0  5G 3G20G23G16G17
 -25358332.192 8 -10860438.91929  20630672.782
   5970662.630 5  12350710.82525  23693543.111
  -9286794.061 6  -7223756.91626  22646177.088
   6813630.413 6   5526376.15325  23696604.742
 -16358576.083 7 -13358483.97029  20727532.518
 92  6 13  3  3  0.0000000  0  5G 3G20G23G16G17
 -25366316.372 8 -10866660.35629  20629155.833
   6080880.628 6  12436594.85925  23714524.926
  -9378287.957 6  -7295050.76026  22628771.018
   6907722.838 5   5599694.94826  23714499.833
 -16386280.518 7 -13380071.84429  20722259.079
 92  6 13  3  3 30.0000000  0  5G 3G20G23G16G17
 -25373947.881 8 -10872606.97129  20627701.569
   6191197.242 5  12522555.77125  23735509.109
  -9469477.843 6  -7366107.73926  22611417.441
   7002074.213 6   5673215.44226  23732464.267
 -16413714.241 7 -13401448.71729  20717035.974
 92  6 13  3  4  0.0000000  0  5G 3G20G23G16G17
 -25381224.642 8 -10878277.16529  20626316.948
   6301603.554 6  12608586.60725  23756525.670
  -9560367.071 6  -7436930.45726  22594121.815
   7096684.324 5   5746937.56726  23750465.125
 -16440878.527 8 -13422615.71729  20711868.812
 92  6 13  3  4 30.0000000  0  5G 3G20G23G16G17
 -25388145.363 7 -10883669.92729  20624998.071
   6412107.520 6  12694693.50425  23777550.115
  -9650974.094 6  -7507533.26826  22576875.504
   7191552.529 6   5820860.77126  23768516.678
 -16467753.862 7 -13443557.50929  20706754.142
 92  6 13  3  5  0.0000000  0  5G 3G20G23G16G17
 -25394706.374 7 -10888782.38829  20623747.637
   6522729.981 6  12780892.77525  23798605.978
  -9741293.440 6  -7577911.89726  22559691.940
   7286679.673 6   5894985.74226  23786616.348
 -16494302.425 7 -13464244.69529  20701702.879
 92  6 13  3  5 30.0000000  0  5G 3G20G23G16G17
 -25400906.813 7 -10893613.89329  20622569.632
   6633472.472 6  12867185.56425  23819679.379
  -9831325.138 6  -7648066.39926  22542551.306
   7382043.533 6   5969295.18626  23804765.933
 -16520501.478 7 -13484659.51029  20696721.108
 92  6 13  3  6  0.0000000  0  5G 3G20G23G16G17
 -25406744.617 7 -10898162.83429  20621458.481
   6744324.062 6  12953563.37225  23840770.828
  -9921077.037 6  -7718002.88926  22525482.833
   7477631.911 6   6043779.63426  23822957.490
 -16546335.774 8 -13504790.13229  20691801.934
 92  6 13  3  6 30.0000000  0  5G 3G20G23G16G17
 -25412219.135 7 -10902428.68029  20620418.082
   6855287.048 6  13040027.95925  23861894.414
 -10010545.297 6  -7787718.35626  22508457.229
   7573427.531 6   6118425.48525  23841182.143
 -16571813.317 7 -13524642.73429  20686955.009
 92  6 13  3  7  0.0000000  0  5G 3G20G23G16G17
 -25417331.267 8 -10906412.15129  20619444.745
   6966341.831 6  13126564.08525  23883019.050
 -10099721.193 6  -7857205.99626  22491481.751
   7669416.628 6   6193222.21725  23859457.971
 -16596964.260 8 -13544240.85429  20682169.362
 92  6 13  3  7 30.0000000  0  5G 3G20G23G16G17
 -25422075.317 8 -10910108.80129  20618542.430
   7077489.310 6  13213172.43825  23904167.219
 -10188610.255 6  -7926470.13626  22474573.996
   7765597.606 6   6268168.37225  23877758.442
 -16621805.371 7 -13563597.56629  20677441.575
 92  6 13  3  8  0.0000000  0  5G 3G20G23G16G17
 -25426450.191 8 -10913517.79329  20617710.386
   7188727.596 6  13299851.60625  23925344.559
 -10277204.613 6  -7995504.61126  22457706.233
   7861979.265 6   6343270.91425  23896096.207
 -16646351.094 8 -13582724.08729  20672768.830
 92  6 13  3  8 30.0000000  0  5G 3G20G23G16G17
 -25430455.041 7 -10916638.44129  20616949.963
   7300041.924 5  13386589.94325  23946527.054
 -10365496.005 6  -8064303.01326  22440908.262
   7958561.790 6   6418530.01225  23914474.294
 -16670624.277 7 -13601638.22829  20668147.679
 92  6 13  3  9  0.0000000  0  5G 3G20G23G16G17
 -25434087.890 7 -10919469.22129  20616256.663
   7411430.617 5  13473386.24625  23967711.798
 -10453478.702 6  -8132860.89026  22424161.766
   8055361.180 6   6493958.07625  23932898.339
 -16694620.996 8 -13620336.97529  20663585.228
 92  6 13  3  9 30.0000000  0  5G 3G20G23G16G17
 -25437346.913 7 -10922008.69529  20615633.724
   7522893.469 5  13560240.39725  23988917.498
 -10541160.113 6  -8201183.98426  22407479.545
   8152378.864 6   6569556.23025  23951358.510
 -16718320.957 7 -13638804.46529  20659073.951
 92  6 13  3 10  0.0000000  0  5G 3G20G23G16G17
 -25440229.722 7 -10924255.01329  20615087.682
   7634408.008 5  13647134.77325  24010150.569
 -10628536.239 6  -8269269.22226  22390855.423
   8249612.882 6   6645322.95925  23969863.109
 -16741715.385 7 -13657033.89329  20654619.664
 92  6 13  3 10 30.0000000  0  5G 3G20G23G16G17
 -25442737.542 8 -10926209.15629  20614609.962
   7745970.196 5  13734066.25025  24031373.596
 -10715613.999 6  -8337121.93726  22374278.040
   8347056.349 6   6721252.89425  23988400.236
 -16764801.706 7 -13675023.21429  20650228.784
 92  6 13  3 11  0.0000000  0  5G 3G20G23G16G17
 -25444865.359 8 -10927867.19129  20614204.403
   7857589.453 6  13821042.27325  24052622.526
 -10802385.871 6  -8404736.29526  22357769.039
   8444704.374 6   6797342.22325  24006984.790
 -16787549.003 7 -13692748.37529  20645903.379
 92  6 13  3 11 30.0000000  0  5G 3G20G23G16G17
 -25446613.464 7 -10929229.34928  20613873.432
   7969252.054 6  13908052.00425  24073869.957
 -10888852.727 6  -8472113.02326  22341317.837
   8542547.099 5   6873583.20225  24025604.810
 -16809948.975 7 -13710202.86429  20641638.741
 92  6 13  3 12  0.0000000  0  5G 3G20G23G16G17
 -25447978.791 7 -10930293.22828  20613611.474
   8080960.070 6  13995097.13825  24095122.304
 -10975006.587 6  -8539245.80026  22324917.601
   8640586.015 5   6949977.14025  24044263.293
 -16832014.532 7 -13727396.81929  20637439.068
 92  6 13  3 12 30.0000000  0  5G 3G20G23G16G17
 -25448960.302 7 -10931058.03328  20613428.780
   8192728.237 5  14082189.12525  24116389.251
 -11060848.034 6  -8606135.21726  22308588.685
   8738819.733 5   7026522.88825  24062953.704
 -16853747.852 7 -13744331.85329  20633299.684
 92  6 13  3 13  0.0000000  0  5G 3G20G23G16G17
 -25449558.060 8 -10931523.79528  20613312.611
   8304546.296 5  14169320.05325  24137673.346
 -11146378.835 6  -8672782.53826  22292313.612
   8837253.067 5   7103224.09925  24081685.996
 -16875150.909 8 -13761009.54429  20629233.779
 92  6 13  3 13 30.0000000  0  5G 3G20G23G16G17
 -25449767.525 8 -10931687.00929  20613274.117
   8416410.771 5  14256487.07025  24158948.148
 -11231606.545 6  -8739193.64726  22276093.971
   8935891.775 5   7180085.39025  24100452.344
 -16896246.571 7 -13777447.72029  20625213.532
 92  6 13  3 14  0.0000000  0  5G 3G20G23G16G17
 -25449588.598 8 -10931547.57828  20613302.148
   8528323.969 5  14343692.10425  24180262.343
 -11316527.555 6  -8805365.80426  22259935.218
   9034730.414 6   7257102.46125  24119267.349
 -16917053.732 8 -13793661.10529  20621254.982
 92  6 13  3 14 30.0000000  0  5G 3G20G23G16G17
 -25449019.494 7 -10931104.10928  20613414.360
   8640281.345 5  14430931.54325  24201548.357
 -11401127.320 6  -8871287.61926  22243834.114
   9133764.370 5   7334271.77425  24138112.662
 -16937557.873 8 -13809638.34329  20617358.460
 92  6 13  3 15  0.0000000  0  5G 3G20G23G16G17
 -25448057.486 7 -10930354.50428  20613597.413
   8752286.520 5  14518208.25325  24222867.618
 -11485395.138 6  -8936950.79226  22227796.117
   9232989.435 6   7411589.95725  24157001.506
 -16957763.120 8 -13825382.67329  20613512.602
 92  6 13  3 15 30.0000000  0  5G 3G20G23G16G17
 -25446701.892 8 -10929298.19128  20613856.734
   8864348.160 5  14605528.93125  24244195.483
 -11569324.909 7  -9002350.55526  22211827.072
   9332383.003 5   7489039.46225  24175915.472
 -16977674.351 7 -13840897.92329  20609722.056
 92  6 13  3 16  0.0000000  0  5G 3G20G23G16G17
 -25444952.387 8 -10927934.92828  20614189.564
   8976474.596 5  14692900.15825  24265533.751
 -11652892.984 6  -9067468.46926  22195925.331
   9431940.774 5   7566616.94225  24194842.959
 -16997270.143 7 -13856167.36329  20605993.148
 92  6 13  3 16 30.0000000  0  5G 3G20G23G16G17
 -25442805.521 7 -10926262.03328  20614599.590
   9088680.321 5  14780333.10125  24286887.847
 -11736104.836 6  -9132308.83326  22180089.873
   9531664.316 5   7644323.47525  24213856.396
 -17016537.723 7 -13871181.07629  20602324.498
 92  6 13  3 17  0.0000000  0  5G 3G20G23G16G17
 -25440260.234 7 -10924278.68228  20615081.146
   9200957.025 5  14867821.36425  24308257.204
 -11818975.949 7  -9196883.67226  22164318.032
   9631558.210 5   7722162.89225  24232827.952
 -17035483.183 8 -13885943.74429  20598722.761
 92  6 13  3 17 30.0000000  0  5G 3G20G23G16G17
 -25437317.043 8 -10921985.30628  20615639.690
   9313276.405 5  14955342.92025  24329628.988
 -11901506.982 6  -9261193.49926  22148613.914
   9731614.982 6   7800129.18025  24251883.181
 -17054104.021 7 -13900453.49629  20595178.435
 92  6 13  3 18  0.0000000  0  5G 3G20G23G16G17
 -25433972.830 8 -10919379.42728  20616279.896
   9425629.591 5  15042890.77325  24351014.024
 -11983697.123 6  -9325237.72027  22132973.351
   9831847.893 5   7878232.64425  24270952.469
 -17072396.000 7 -13914706.97529  20591695.956
 92  6 13  3 18 30.0000000  0  5G 3G20G23G16G17
 -25430223.856 7 -10916458.13428  20616989.565
   9538003.276 5  15130454.64825  24372382.751
 -12065561.706 6  -9389028.25527  22117399.373
   9932257.932 5   7956474.23325  24290057.913
 -17090372.767 8 -13928714.85229  20588275.384
 92  6 13  3 19  0.0000000  0  5G 3G20G23G16G17
 -25426068.878 7 -10913220.46128  20617784.345
   9650373.371 5  15218015.74225  24393775.101
 -12147084.889 6  -9452552.75527  22101882.775
  10032833.973 5   8034845.12125  24309198.492
 -17108039.481 8 -13942481.09529  20584911.682
 92  6 13  3 19 30.0000000  0  5G 3G20G23G16G17
 -25421508.276 8 -10909666.74328  20618650.265
   9762754.210 5  15305585.16925  24415159.897
 -12228255.698 6  -9515802.68927  22086439.566
  10133571.600 5   8113341.93425  24328350.493
 -17125402.135 7 -13956010.42929  20581610.308
 92  6 13  3 20  0.0000000  0  5G 3G20G23G16G17
 -25416539.661 8 -10905795.12428  20619594.792
   9875153.325 5  15393168.80525  24436551.587
 -12309072.935 6  -9578777.09727  22071053.797
  10234485.586 5   8191976.14825  24347566.710
 -17142463.359 7 -13969304.88129  20578365.624
 92  6 13  3 20 30.0000000  0  5G 3G20G23G16G17
 -25411163.741 7 -10901606.08528  20620616.724
   9987554.389 5  15480754.01025  24457935.034
 -12389536.584 6  -9641476.00127  22055737.850
  10335564.893 5   8270739.21325  24366801.904
 -17159226.287 7 -13982366.87929  20575167.258
 92  6 13  3 21  0.0000000  0  5G 3G20G23G16G17
 -25405376.034 7 -10897096.15528  20621721.939
  10099958.863 5  15568341.84825  24479320.609
 -12469637.988 6  -9703892.62127  22040502.038
  10436809.764 5   8349631.26125  24386073.822
 -17175681.071 7 -13995188.79729  20572040.812
 92  6 13  3 21 30.0000000  0  5G 3G20G23G16G17
 -25399174.541 7 -10892263.82828  20622900.723
  10212360.509 5  15655927.46725  24500706.004
 -12549394.207 6  -9766040.28127  22025329.931
  10538226.656 5   8428657.37625  24405361.660
 -17191822.863 7 -14007766.79729  20568970.998
 92  6 13  3 22  0.0000000  0  5G 3G20G23G16G17
 -25392559.633 7 -10887109.39328  20624158.982
  10324741.912 5  15743497.36925  24522104.830
 -12628809.178 7  -9827922.01827  22010219.342
  10639803.687 5   8507808.23625  24424698.033
 -17207646.492 8 -14020096.89329  20565962.311
 92  6 13  3 22 30.0000000  0  5G 3G20G23G16G17
 -25385526.889 7 -10881629.32228  20625497.705
  10437118.001 5  15831063.07425  24543482.341
 -12707876.294 7  -9889532.71827  21995167.992
  10741530.229 5   8587075.66625  24444057.071
 -17223142.698 7 -14032171.84729  20563010.734
 92  6 13  3 23  0.0000000  0  5G 3G20G23G16G17
 -25378079.845 8 -10875826.41628  20626915.304
  10549497.446 5  15918631.44225  24564868.216
 -12786605.777 6  -9950880.30427  21980187.003
  10843401.649 5   8666455.99225  24463444.350
 -17238312.593 7 -14043992.52329  20560121.604
 92  6 13  3 23 30.0000000  0  5G 3G20G23G16G17
 -25370214.594 7 -10869697.64828  20628409.259
  10661887.736 5  16006208.26825  24586263.864
 -12864981.495 7 -10011952.25027  21965272.418
  10945416.674 5   8745948.16725  24482852.584
 -17253163.087 8 -14055564.34129  20557298.728
 92  6 13  3 24  0.0000000  0  5G 3G20G23G16G17
 -25361929.539 7 -10863241.76428  20629987.847
  10774296.334 6  16093799.29925  24607653.036
 -12942979.307 7 -10072729.70027  21950432.602
  11047576.956 5   8825553.53125  24502285.491
 -17267692.603 8 -14066886.00929  20554532.663
 92  6 13  3 24 30.0000000  0  5G 3G20G23G16G17
 -25353223.179 8 -10856457.58928  20631645.609
  10886722.080 5  16181403.74225  24629047.815
 -13020612.630 6 -10133223.14827  21935652.983
  11149880.941 5   8905270.90525  24521764.026
 -17281903.560 7 -14077959.48129  20551826.646
 92  6 13  3 25  0.0000000  0  5G 3G20G23G16G17
 -25344094.259 7 -10849344.11728  20633381.257
  10999150.274 5  16269010.07225  24650439.086
 -13097881.807 6 -10193432.85627  21920949.992
  11252334.956 5   8985105.13725  24541261.238
 -17295808.203 8 -14088794.25629  20549184.875
 92  6 13  3 25 30.0000000  0  5G 3G20G23G16G17
 -25334540.907 7 -10841899.92628  20635198.060
  11111577.572 5  16356615.71125  24671836.173
 -13174775.189 7 -10253349.74027  21906322.548
  11354929.309 5   9065048.73525  24560784.443
 -17309410.805 7 -14099393.67129  20546593.170
 92  6 13  3 26  0.0000000  0  5G 3G20G23G16G17
 -25324560.714 7 -10834123.18328  20637097.695
  11223998.044 5  16444216.05925  24693230.892
 -13251301.697 6 -10312980.74627  21891756.922
  11457661.590 5   9145099.80225  24580322.217
 -17322702.951 7 -14109751.18429  20544062.981
 92  6 13  3 26 30.0000000  0  5G 3G20G23G16G17
 -25314152.051 7 -10826012.53628  20639078.064
  11336409.357 5  16531809.23925  24714617.336
 -13327474.927 7 -10372336.44927  21877261.417
  11560526.997 5   9225254.67125  24599905.290
 -17335689.283 7 -14119870.39629  20541592.182
 92  6 13  3 27  0.0000000  0  5G 3G20G23G16G17
 -25303313.955 7 -10817567.21428  20641141.295
  11448798.474 5  16619385.10225  24736009.327
 -13403269.513 7 -10431397.12027  21862838.732
  11663525.917 5   9305513.55825  24619503.622
 -17348370.026 7 -14129751.51029  20539177.144
 92  6 13  3 27 30.0000000  0  5G 3G20G23G16G17
 -25292048.481 7 -10808788.95728  20643286.790
  11561153.586 5  16706934.55425  24757383.480
 -13478680.686 7 -10490159.02927  21848490.155
  11766654.442 5   9385873.33925  24639132.563
 -17360728.660 8 -14139381.58729  20536828.060
 92  6 13  3 28  0.0000000  0  5G 3G20G23G16G17
 -25280350.194 7 -10799673.39928  20645513.618
  11673459.919 5  16794445.83825  24778745.911
 -13553707.234 7 -10548621.21727  21834208.672
  11869928.118 5   9466346.26425  24658781.561
 -17372758.282 8 -14148755.30829  20534542.112
 92  6 13  3 28 30.0000000  0  5G 3G20G23G16G17
 -25268219.302 8 -10790220.73128  20647823.939
  11785711.508 5  16881914.62525  24800112.839
 -13628341.371 7 -10606777.64327  21820011.820
  11973344.298 5   9546930.25125  24678466.803
 -17384464.534 8 -14157877.06229  20532309.558
 92  6 13  3 29  0.0000000  0  5G 3G20G23G16G17
 -25255654.089 7 -10780429.66428  20650209.148
  11897905.439 5  16969338.40725  24821473.981
 -13702570.565 7 -10664618.52527  21805885.600
  12076899.679 5   9627622.73525  24698173.870
 -17395849.545 8 -14166748.48429  20530147.605
 92  6 13  3 29 30.0000000  0  5G 3G20G23G16G17
 -25242654.986 7 -10770300.49428  20652686.633
  12010052.995 5  17056726.09825  24842817.465
 -13776407.421 6 -10722153.67327  21791831.869
  12180582.660 5   9708414.66325  24717894.638
 -17406923.100 8 -14175377.23729  20528038.685
 92  6 13  3 30  0.0000000  0  5G 3G20G23G16G17
 -25229219.903 7 -10759831.60428  20655241.194
  12122168.872 5  17144089.05525  24864141.373
 -13849862.576 7 -10779391.39927  21777854.375
  12284374.582 5   9789291.45325  24737652.460
 -17417697.690 8 -14183773.01329  20525986.785
 92  6 13  3 30 30.0000000  0  5G 3G20G23G16G17
 -25215349.983 7 -10749023.84328  20657879.997
  12234260.077 5  17231432.80125  24885466.150
 -13922946.023 7 -10836339.49627  21763947.483
  12388256.518 5   9870238.43525  24757410.192
 -17428177.036 7 -14191938.71729  20523994.214
 92  6 13  3 31  0.0000000  0  4G 3G20G23G17
 -25201043.350 7 -10737875.83428  20660604.301
  12346331.940 5  17318761.53225  24906804.058
 -13995665.077 7 -10893003.63327  21750106.005
 -17438348.294 8 -14199864.38929  20522056.236
 92  6 13  3 31 30.0000000  0  5G 3G20G23G16G17
 -25186298.051 7 -10726385.96628  20663408.920
  12458384.863 5  17406075.43525  24928121.161
 -14068022.432 7 -10949385.95027  21736337.467
    -12134.99915     21233.64431  24797003.542
 -17448194.350 8 -14207536.63929  20520185.471
 92  6 13  3 32  0.0000000  0  5G 3G20G23G16G17
 -25171111.550 7 -10714552.34128  20666299.249
  12570404.709 5  17493363.55425  24949437.124
 -14140015.001 6 -11005483.98627  21722640.249
     92005.751 5    102386.99221  24816819.703
 -17457703.041 7 -14214946.02729  20518374.905
 92  6 13  3 32 30.0000000  0  5G 3G20G23G16G17
 -25155486.144 7 -10702376.70428  20669273.490
  12682382.113 5  17580618.66125  24970739.657
 -14211627.591 7 -11061285.97127  21709014.502
    196256.221 5    183621.11922  24836660.478
 -17466875.793 7 -14222093.60029  20516630.172
 92  6 13  3 33  0.0000000  0  4G 3G23G16G17
 -25139421.449 7 -10689858.74428  20672328.645
 -14282841.764 7 -11116777.47627  21695465.232
    300623.824 5    264946.54023  24856519.510
 -17475714.943 7 -14228981.25529  20514948.097
 92  6 13  3 33 30.0000000  0  4G 3G23G16G17
 -25122918.098 7 -10676998.99528  20675472.598
 -14353662.036 7 -11171962.06827  21681985.724
    405108.434 5    346363.03325  24876404.983
 -17484243.176 8 -14235626.62629  20513325.141
 92  6 13  3 34  0.0000000  0  4G 3G23G16G17
 -25105972.356 7 -10663794.51228  20678693.538
 -14424085.856 7 -11226837.71527  21668584.701
    509718.879 5    427877.61325  24896304.127
 -17492477.411 8 -14242042.89829  20511761.243
 92  6 13  3 34 30.0000000  0  3G 3G23G17
 -25088585.503 7 -10650246.30028  20682002.707
 -14494111.860 7 -11281403.37327  21655258.716
 -17500433.008 7 -14248242.07929  20510243.664
 92  6 13  3 35  0.0000000  0  3G 3G23G17
 -25070756.849 7 -10636353.83828  20685394.979
 -14563759.390 7 -11335674.12827  21642003.453
 -17508108.247 8 -14254222.77429  20508783.585
 92  6 13  3 35 30.0000000  0  3G 3G23G17
 -25052483.807 7 -10622115.12128  20688875.180
 -14633031.798 7 -11389652.60227  21628821.458
 -17515495.468 8 -14259979.04929  20507377.528
 92  6 13  3 36  0.0000000  0  3G 3G23G17
 -25033768.019 7 -10607531.34328  20692434.885
 -14701917.167 7 -11443329.47427  21615712.254
 -17522573.928 8 -14265494.71129  20506032.239
 92  6 13  3 36 30.0000000  0  3G 3G23G17
 -25014606.486 7 -10592600.29928  20696079.672
 -14770409.413 7 -11496700.01427  21602680.635
 -17529327.117 8 -14270756.94329  20504747.898
 92  6 13  3 37  0.0000000  0  3G 3G23G17
 -24994999.483 7 -10577322.12428  20699813.467
 -14838506.084 7 -11549762.32327  21589721.717
 -17535744.437 7 -14275757.44429  20503523.786
 92  6 13  3 37 30.0000000  0  3G 3G23G17
 -24974948.240 7 -10561697.74228  20703626.887
 -14906191.054 7 -11602503.81927  21576841.224
 -17541830.178 8 -14280499.59329  20502367.966
 92  6 13  3 38  0.0000000  0  3G 3G23G17
 -24954449.440 7 -10545724.66427  20707527.307
 -14973463.406 7 -11654923.79727  21564042.094
 -17547595.756 8 -14284992.23529  20501273.124
 92  6 13  3 38 30.0000000  0  3G 3G23G17
 -24933505.248 7 -10529404.50828  20711514.307
 -15040330.842 7 -11707028.24327  21551313.386
 -17553061.342 7 -14289251.12929  20500229.157
 92  6 13  3 39  0.0000000  0  3G 3G23G17
 -24912113.788 7 -10512735.83327  20715584.319
 -15106790.001 7 -11758814.56428  21538668.290
 -17558236.645 8 -14293283.81929  20499244.488
 92  6 13  3 39 30.0000000  0  3G 3G23G17
 -24890275.695 7 -10495719.14327  20719739.982
 -15172852.050 7 -11810291.44328  21526100.691
 -17563134.848 8 -14297100.57929  20498314.142
 92  6 13  3 40  0.0000000  0  3G 3G23G17
 -24867992.852 7 -10478355.86327  20723982.735
 -15238526.108 7 -11861465.99528  21513604.472
 -17567762.485 8 -14300706.53529  20497431.763
 92  6 13  3 40 30.0000000  0  3G 3G23G17
 -24845264.528 7 -10460645.48027  20728306.102
 -15303807.002 7 -11912334.19328  21501172.618
 -17572112.687 8 -14304096.29629  20496606.075
 92  6 13  3 41  0.0000000  0  3G 3G23G17
 -24822092.056 7 -10442589.00827  20732717.009
 -15368690.796 7 -11962892.96328  21488831.571
 -17576183.181 8 -14307268.11429  20495823.377
 92  6 13  3 41 30.0000000  0  3G 3G23G17
 -24798473.805 7 -10424185.16527  20737211.827
 -15433179.625 7 -12013143.93728  21476557.229
 -17579968.252 7 -14310217.49729  20495105.524
 92  6 13  3 42  0.0000000  0  3G 3G23G17
 -24774408.659 7 -10405433.12027  20741792.296
 -15497258.852 7 -12063075.76628  21464364.010
 -17583453.482 8 -14312933.26729  20494445.141
 92  6 13  3 42 30.0000000  0  3G 3G23G17
 -24749894.854 7 -10386331.44027  20746453.619
 -15560923.908 7 -12112684.88128  21452248.857
 -17586633.183 8 -14315410.93429  20493841.269
 92  6 13  3 43  0.0000000  0  3G 3G23G17
 -24724933.051 7 -10366880.69727  20751200.893
 -15624181.963 7 -12161976.83028  21440214.858
 -17589507.326 8 -14317650.52729  20493296.846
 92  6 13  3 43 30.0000000  0  3G 3G23G17
 -24699522.955 7 -10347080.61527  20756039.423
 -15687039.673 7 -12210956.83628  21428249.362
 -17592075.515 8 -14319651.70629  20492804.227
 92  6 13  3 44  0.0000000  0  3G 3G23G17
 -24673661.751 7 -10326929.00327  20760960.426
 -15749494.230 7 -12259622.69628  21416361.751
 -17594346.808 8 -14321421.53829  20492375.404
 92  6 13  3 44 30.0000000  0  4G 3G23G17G21
 -24647348.831 7 -10306425.46627  20765965.042
 -15811550.470 7 -12307978.17128  21404555.205
 -17596328.554 8 -14322965.74729  20491994.967
   -558741.43415   -183587.23831  24351648.774
 92  6 13  3 45  0.0000000  0  4G 3G23G17G21
 -24620583.903 7 -10285569.65327  20771062.892
 -15873209.883 7 -12356024.43428  21392828.493
 -17598023.304 8 -14324286.32429  20491671.581
   -663409.950 5   -265146.94222  24331726.366
 92  6 13  3 45 30.0000000  0  4G 3G23G17G21
 -24593362.350 7 -10264358.04227  20776239.918
 -15934466.173 7 -12403756.59628  21381168.785
 -17599437.819 8 -14325388.54629  20491401.318
   -767956.963 5   -346612.00424  24311840.083
 92  6 13  3 46  0.0000000  0  4G 3G23G17G21
 -24565680.122 7 -10242787.48227  20781506.732
 -15995308.212 7 -12451165.93228  21369588.642
 -17600566.161 8 -14326267.75129  20491189.065
   -872385.294 5   -427984.64925  24291973.257
 92  6 13  3 46 30.0000000  0  4G 3G23G17G21
 -24537538.872 7 -10220859.23227  20786863.484
 -16055731.323 7 -12498248.84528  21358088.543
 -17601393.078 7 -14326912.10029  20491032.873
   -976696.148 5   -509265.69825  24272127.086
 92  6 13  3 47  0.0000000  0  4G 3G23G17G21
 -24508938.535 7 -10198573.24827  20792304.147
 -16115739.414 7 -12545008.35428  21346666.390
 -17601917.514 8 -14327320.76329  20490932.682
  -1080874.313 5   -590443.41925  24252293.716
 92  6 13  3 47 30.0000000  0  4G 3G23G17G21
 -24479877.313 7 -10175928.12927  20797838.466
 -16175326.757 7 -12591440.01328  21335334.925
 -17602126.801 8 -14327483.83629  20490891.401
  -1184918.275 5   -671516.49425  24232510.742
 92  6 13  3 48  0.0000000  0  4G 3G23G17G21
 -24450354.532 7 -10152923.35927  20803451.810
 -16234486.266 7 -12637538.29728  21324077.179
 -17602006.153 8 -14327389.81229  20490914.725
  -1288825.048 5   -752482.74125  24212718.594
 92  6 13  3 48 30.0000000  0  4G 3G23G17G21
 -24420370.207 7 -10129558.96027  20809161.357
 -16293223.204 7 -12683307.32228  21312895.909
 -17601552.312 7 -14327036.17229  20491001.935
  -1392589.182 5   -833337.78725  24192972.644
 92  6 13  3 49  0.0000000  0  4G 3G23G17G21
 -24389923.858 7 -10105834.50627  20814953.617
 -16351545.875 7 -12728753.51128  21301797.353
 -17600786.661 8 -14326439.54829  20491147.334
  -1496211.699 5   -914082.53125  24173253.465
 92  6 13  3 49 30.0000000  0  4G 3G23G17G21
 -24359015.679 7 -10081750.20327  20820836.175
 -16409451.328 7 -12773874.59528  21290778.691
 -17599723.624 8 -14325611.19429  20491349.304
  -1599701.261 5   -994723.63825  24153561.327
 92  6 13  3 50  0.0000000  0  4G 3G23G17G21
 -24327644.346 7 -10057305.00527  20826803.754
 -16466943.120 7 -12818673.38828  21279837.555
 -17598387.991 8 -14324570.43529  20491604.727
  -1703048.674 5  -1075254.05325  24133896.051
 92  6 13  3 50 30.0000000  0  5G 3G23G28G17G21
 -24295807.683 7 -10032497.21427  20832861.000
 -16524029.201 7 -12863155.99628  21268975.685
 -15963604.37315   -364653.80434  24912461.802
 -17596788.716 7 -14323324.23529  20491907.218
  -1806245.241 5  -1155666.84225  24114263.303
 92  6 13  3 51  0.0000000  0  5G 3G23G28G17G21
 -24263504.181 7 -10007325.64327  20839013.671
 -16580703.501 7 -12907317.76028  21258192.450
 -16071695.068 5   -448880.30224  24891890.433
 -17594933.632 8 -14321878.70329  20492260.613
  -1909286.327 5  -1235958.50925  24094668.178
 92  6 13  3 51 30.0000000  0  5G 3G23G28G17G21
 -24230734.477 7  -9981790.81827  20845246.176
 -16636950.234 7 -12951146.34128  21247485.302
 -16179756.567 5   -533084.00724  24871341.698
 -17592799.751 8 -14320215.93029  20492666.772
  -2012174.329 5  -1316130.91325  24075077.641
 92  6 13  3 52  0.0000000  0  5G 3G23G28G17G21
 -24197494.997 7  -9955889.92427  20851572.757
 -16692757.929 7 -12994632.85029  21236869.201
 -16287766.768 5   -617247.79725  24850785.649
 -17590358.293 8 -14318313.49829  20493131.450
  -2114895.985 5  -1396173.64725  24055526.885
 92  6 13  3 52 30.0000000  0  5G 3G23G28G17G21
 -24163786.321 7  -9929623.42027  20857986.576
 -16748118.193 7 -13037770.69529  21226335.274
 -16395718.322 5   -701365.80525  24830238.264
 -17587585.091 8 -14316152.55429  20493655.787
  -2217454.574 5  -1476089.29125  24036010.936
 92  6 13  3 53  0.0000000  0  5G 3G23G28G17G21
 -24129608.365 7  -9902991.25427  20864489.944
 -16803019.627 7 -13080550.98729  21215886.577
 -16503617.541 5   -785443.15125  24809702.181
 -17584480.321 8 -14313733.24129  20494249.017
  -2319848.525 5  -1555876.74225  24016526.135
 92  6 13  3 53 30.0000000  0  5G 3G23G28G17G21
 -24094961.205 7  -9875993.44427  20871083.190
 -16857468.180 7 -13122978.41629  21205521.133
 -16611470.339 5   -869484.24125  24789193.438
 -17581051.415 8 -14311061.36129  20494904.903
  -2422078.363 5  -1635536.23825  23997072.392
 92  6 13  3 54  0.0000000  0  5G 3G23G28G17G21
 -24059845.243 7  -9848630.36127  20877765.504
 -16911484.286 7 -13165068.83129  21195244.248
 -16719274.654 5   -953487.56525  24768665.450
 -17577317.319 8 -14308151.64629  20495615.890
  -2524143.525 5  -1715067.43125  23977650.398
 92  6 13  3 54 30.0000000  0  5G 3G23G28G17G21
 -24024261.569 7  -9820902.80927  20884536.496
 -16965074.756 7 -13206827.64629  21185049.415
 -16827043.448 5  -1037463.27525  24748160.485
 -17573303.620 7 -14305024.09729  20496375.954
  -2626050.964 5  -1794475.73825  23958252.237
 92  6 13  3 55  0.0000000  0  5G 3G23G28G17G21
 -23988207.824 7  -9792809.00627  20891397.876
 -17018247.483 7 -13248260.89729  21174928.692
 -16934781.091 5  -1121414.66825  24727646.886
 -17569025.755 8 -14301690.71029  20497190.640
  -2727798.149 5  -1873759.15925  23938889.692
 92  6 13  3 55 30.0000000  0  5G 3G23G28G17G21
 -23951687.407 7  -9764351.53027  20898340.590
 -17071014.964 7 -13289378.39829  21164890.921
 -17042487.863 5  -1205341.93325  24707169.502
 -17564479.618 8 -14298148.25429  20498059.769
  -2829386.150 5  -1952918.54825  23919565.549
 92  6 13  3 56  0.0000000  0  5G 3G23G28G17G21
 -23914699.725 7  -9735529.97127  20905385.773
 -17123368.226 7 -13330173.12129  21154927.079
 -17150163.838 5  -1289245.29325  24686674.221
 -17559654.699 8 -14294388.54729  20498973.656
  -2930805.576 5  -2031946.54825  23900271.117
 92  6 13  3 56 30.0000000  0  5G 3G23G28G17G21
 -23877244.560 7  -9706344.10927  20912513.338
 -17175295.545 7 -13370635.92429  21145044.210
 -17257802.227 5  -1373119.29825  24666187.843
 -17554548.315 8 -14290409.53929  20499942.645
  -3032042.754 5  -2110832.59125  23880997.370
 92  6 13  3 57  0.0000000  0  5G 3G23G28G17G21
 -23839321.194 7  -9676793.44626  20919727.754
 -17226794.480 7 -13410764.93129  21135241.237
 -17365388.104 5  -1456952.38825  24645709.410
 -17549154.054 7 -14286206.21329  20500970.064
  -3133093.964 5  -2189573.68125  23861769.581
 92  6 13  3 57 30.0000000  0  5G 3G23G28G17G21
 -23800928.923 7  -9646877.38226  20927034.685
 -17277851.163 7 -13450549.32629  21125525.893
 -17472892.690 5  -1540722.12825  24625261.136
 -17543468.379 8 -14281775.81429  20502052.614
  -3233963.531 5  -2268173.27425  23842573.600
 92  6 13  3 58  0.0000000  0  5G 3G23G28G17G21
 -23762066.708 7  -9616595.15726  20934432.034
 -17328460.288 7 -13489984.98329  21115896.769
 -17580303.201 5  -1624418.51825  24604834.687
 -17537501.148 8 -14277126.01629  20503190.686
  -3334659.283 5  -2346637.38325  23823409.757
 92  6 13  3 58 30.0000000  0  5G 3G23G28G17G21
 -23722732.795 7  -9585945.32727  20941916.263
 -17378630.148 7 -13529078.36329  21106350.448
 -17687611.021 5  -1708034.90425  24584398.855
 -17531257.188 8 -14272260.58329  20504375.526
  -3435188.463 5  -2424971.67125  23804288.934
 92  6 13  3 59  0.0000000  0  5G 3G23G28G17G21
 -23682929.288 7  -9554929.64527  20949491.479
 -17428358.919 7 -13567828.00329  21096883.481
 -17794829.665 5  -1791581.85725  24563997.588
 -17524736.285 8 -14267179.35029  20505618.945
  -3535567.737 5  -2503189.24025  23785182.381
 92  6 13  3 59 30.0000000  0  5G 3G23G28G17G21
 -23642651.963 7  -9523544.67527  20957154.324
 -17477653.003 7 -13606238.96429  21087508.132
 -17901969.243 5  -1875067.13725  24543603.667
 -17517926.006 8 -14261872.62829  20506913.209
  -3635794.522 5  -2581287.93625  23766107.786
 92  6 13  4  0  0.0000000  0  5G 3G23G28G17G21
 -23601901.790 7  -9491791.31726  20964909.205
 -17526529.130 7 -13644324.22429  21078203.863
 -18009074.029 6  -1958525.35925  24523234.658
 -17510815.923 8 -14256332.29129  20508267.552
  -3735852.522 5  -2659255.09925  23747061.881
 92  6 13  4  0 30.0000000  0  5G 3G23G28G17G21
 -23560680.720 7  -9459670.98327  20972752.346
 -17574991.716 8 -13682087.26229  21068986.474
 -18116157.514 6  -2041966.94025  24502858.184
 -17503397.475 8 -14250551.66529  20509676.217
  -3835740.102 6  -2737089.50825  23728059.896
 92  6 13  4  1  0.0000000  0  5G 3G23G28G17G21
 -23518987.773 7  -9427182.98327  20980685.753
 -17623038.415 7 -13719526.21829  21059843.224
 -18223231.628 5  -2125401.26225  24482472.717
 -17495664.804 8 -14244526.20629  20511148.018
  -3935457.968 5  -2814791.66325  23709089.089
 92  6 13  4  1 30.0000000  0  5G 3G23G28G17G21
 -23476822.359 7  -9394326.82627  20988713.326
 -17670681.595 7 -13756650.73829  21050773.153
 -18330287.097 5  -2208821.07825  24462092.975
 -17487614.153 8 -14238252.95529  20512682.625
  -4034990.172 5  -2892349.13225  23690136.420
 92  6 13  4  2  0.0000000  0  5G 3G23G28G17G21
 -23434184.714 7  -9361102.68426  20996822.802
 -17717899.591 7 -13793443.95229  21041786.125
 -18437299.080 5  -2292206.95225  24441737.217
 -17479259.203 8 -14231742.60029  20514271.885
  -4134330.142 6  -2969756.83525  23671243.109
 92  6 13  4  2 30.0000000  0  5G 3G23G28G17G21
 -23391072.508 7  -9327508.74326  21005029.740
 -17764677.224 7 -13829894.02929  21032888.374
 -18544218.635 5  -2375520.89025  24421393.421
 -17470613.994 8 -14225006.07629  20515918.045
  -4233480.704 5  -3047016.94525  23652374.172
 92  6 13  4  3  0.0000000  0  5G 3G23G28G17G21
 -23347486.232 7  -9293545.42326  21013321.640
 -17810994.249 7 -13865985.19129  21024072.168
 -18651033.863 5  -2458753.50425  24401064.764
 -17461680.956 8 -14218045.26329  20517619.068
  -4332428.867 5  -3124119.35425  23633539.591
 92  6 13  4  3 30.0000000  0  5G 3G23G28G17G21
 -23303425.948 7  -9259212.74226  21021709.084
 -17856835.999 7 -13901706.00629  21015348.717
 -18757725.477 5  -2541889.80525  24380761.650
 -17452464.807 8 -14210863.84229  20519373.363
  -4431159.605 5  -3201052.31425  23614757.953
 92  6 13  4  4  0.0000000  0  5G 3G23G28G17G21
 -23258891.135 7  -9224510.29226  21030182.448
 -17902188.918 7 -13937045.91529  21006715.084
 -18864296.054 5  -2624931.75925  24360493.162
 -17442977.721 8 -14203471.28129  20521180.542
  -4529693.407 5  -3277831.84425  23596012.680
 92  6 13  4  4 30.0000000  0  5G 3G23G28G17G21
 -23213881.657 7  -9189437.95226  21038746.109
 -17947064.304 7 -13972013.71529  20998178.763
 -18970764.067 5  -2707893.83925  24340228.361
 -17433218.130 8 -14195866.39029  20523029.362
  -4628042.850 5  -3354467.71825  23577288.333
 92  6 13  4  5  0.0000000  0  5G 3G23G28G17G21
 -23168399.010 7  -9153996.94826  21047399.618
 -17991473.023 7 -14006617.89329  20989735.498
 -19077153.886 5  -2790794.97425  24319977.260
 -17423180.490 8 -14188044.84829  20524942.788
  -4726222.865 5  -3430971.57325  23558605.447
 92  6 13  4  5 30.0000000  0  5G 3G23G28G17G21
 -23122440.812 7  -9118185.37226  21056151.700
 -18035446.353 7 -14040882.79029  20981359.147
 -19183463.567 5  -2873633.60725  24299743.907
 -17412869.010 8 -14180009.94029  20526905.769
  -4824240.283 6  -3507348.71925  23539960.754
 92  6 13  4  6  0.0000000  0  5G 3G23G28G17G21
 -23076009.804 7  -9082005.36126  21064985.324
 -18079009.453 7 -14074828.03029  20973073.603
 -19289696.492 6  -2956412.47125  24279536.007
 -17402281.756 8 -14171760.12629  20528918.336
  -4922094.173 5  -3583598.39625  23521325.955
 92  6 13  4  6 30.0000000  0  5G 3G23G28G17G21
 -23029103.940 7  -9045455.34626  21073906.938
 -18122173.598 7 -14108462.42729  20964858.630
 -19395839.161 5  -3039120.97925  24259336.891
 -17391403.442 8 -14163283.50929  20530990.321
  -5019744.673 5  -3659689.64025  23502753.392
 92  6 13  4  7  0.0000000  0  5G 3G23G28G17G21
 -22981721.711 7  -9008534.13526  21082926.674
 -18164938.474 7 -14141785.66829  20956720.974
 -19501884.089 5  -3121753.34225  24239153.603
 -17380227.418 8 -14154574.92329  20533118.368
  -5117168.853 5  -3735604.51725  23484211.049
 92  6 13  4  7 30.0000000  0  5G 3G23G28G17G21
 -22933863.372 7  -8971241.93326  21092034.249
 -18207294.457 7 -14174790.31729  20948661.264
 -19607822.073 5  -3204302.36525  24218993.310
 -17368755.754 8 -14145635.95529  20535301.726
  -5214346.128 5  -3811326.99525  23465713.225
 92  6 13  4  8  0.0000000  0  5G 3G23G28G17G21
 -22885527.087 7  -8933577.28826  21101232.601
 -18249212.267 7 -14207453.53129  20940681.868
 -19713643.361 5  -3286760.45325  24198857.510
 -17356982.292 8 -14136461.81029  20537542.255
  -5311273.987 6  -3886855.15725  23447276.558
 92  6 13  4  8 30.0000000  0  5G 3G23G28G17G21
 -22836715.427 7  -8895542.23526  21110523.259
 -18290670.122 7 -14239758.33429  20932795.227
 -19819353.223 5  -3369131.72925  24178745.303
 -17344910.025 8 -14127054.83129  20539838.995
  -5407979.264 5  -3962209.81325  23428873.139
 92  6 13  4  9  0.0000000  0  5G 3G23G28G17G21
 -22787429.895 7  -8857137.91726  21119900.437
 -18331650.126 7 -14271690.77629  20924996.067
 -19924954.422 5  -3451418.30025  24158650.065
 -17332535.460 8 -14117412.30729  20542192.816
  -5504496.666 6  -4037418.09825  23410505.364
 92  6 13  4  9 30.0000000  0  5G 3G23G28G17G21
 -22737670.813 7  -8818364.62026  21129369.652
 -18372150.725 7 -14303249.67229  20917291.610
 -20030438.479 5  -3533613.63625  24138570.775
 -17319857.235 8 -14107533.15929  20544601.678
  -5600832.099 5  -4112484.55925  23392174.135
 92  6 13  4 10  0.0000000  0  5G 3G23G28G17G21
 -22687438.841 7  -8779222.82126  21138925.117
 -18412173.457 7 -14334436.18129  20909675.473
 -20135812.374 5  -3615723.05625  24118512.621
 -17306882.048 8 -14097422.61829  20547076.315
  -5696995.595 5  -4187417.11625  23373876.992
 92  6 13  4 10 30.0000000  0  5G 3G23G28G17G21
 -22636732.400 7  -8739711.31726  21148574.477
 -18451726.617 7 -14365256.80129  20902145.826
 -20241085.979 5  -3697754.37025  24098490.232
 -17293612.896 8 -14087083.01329  20549600.088
  -5792986.007 6  -4262214.79825  23355614.954
 92  6 13  4 11  0.0000000  0  5G 3G23G28G17G21
 -22585552.452 7  -8699830.83026  21158315.003
 -18490825.565 7 -14395723.48729  20894709.683
 -20346255.617 5  -3779704.71425  24078472.221
 -17280059.278 8 -14076521.73829  20552179.652
  -5888779.275 5  -4336858.82825  23337367.157
 92  6 13  4 11 30.0000000  0  5G 3G23G28G17G21
 -22533900.337 7  -8659582.45426  21168142.500
 -18529490.755 7 -14425852.18629  20887346.781
 -20451322.031 5  -3861574.56625  24058478.822
 -17266245.737 8 -14065757.93429  20554807.603
  -5984354.112 5  -4411332.65525  23319186.273
 92  6 13  4 12  0.0000000  0  5G 3G23G28G17G21
 -22481773.554 7  -8618964.15926  21178061.973
 -18567717.942 7 -14455639.58329  20880074.595
 -20556283.352 5  -3943362.57625  24038505.239
 -17252177.020 7 -14054795.29029  20557485.289
  -6079719.688 5  -4485643.44625  23301049.819
 92  6 13  4 12 30.0000000  0  5G 3G23G28G17G21
 -22429174.080 7  -8577977.57226  21188071.413
 -18605514.946 7 -14485091.76129  20872884.583
 -20661126.172 5  -4025058.24325  24018557.319
 -17237848.273 7 -14043630.02229  20560213.400
  -6174869.950 5  -4559786.43025  23282941.605
 92  6 13  4 13  0.0000000  0  5G 3G23G28G17G21
 -22376098.841 7  -8536620.25526  21198175.618
 -18642879.304 7 -14514206.82529  20865771.617
 -20765833.288 5  -4106648.14125  23998633.112
 -17223253.278 7 -14032257.29729  20562990.228
  -6269794.458 5  -4633753.56025  23264870.955
 92  6 13  4 13 30.0000000  0  5G 3G23G28G17G21
 -22322547.362 7  -8494891.81626  21208363.406
 -18679806.886 7 -14542981.53929  20858744.332
 -20870398.547 5  -4188127.49925  23978742.722
 -17208386.545 7 -14020672.84229  20565816.342
  -6364500.923 5  -4707550.74925  23246860.953
 92  6 13  4 14  0.0000000  0  5G 3G23G28G17G21
 -22268520.188 7  -8452792.74026  21218643.799
 -18716288.908 7 -14571409.05029  20851802.398
 -20974816.288 5  -4269491.94625  23958862.555
 -17193225.404 7 -14008858.94729  20568705.352
  -6459001.444 6  -4781187.48725  23228866.241
 92  6 13  4 14 30.0000000  0  5G 3G23G28G17G21
 -22214018.437 7  -8410323.84526  21229019.376
 -18752332.573 7 -14599494.99629  20844940.538
 -21079084.150 5  -4350739.60925  23939028.256
 -17177764.288 7 -13996811.32029  20571647.875
  -6553280.789 6  -4854651.79325  23210932.446
 92  6 13  4 15  0.0000000  0  5G 3G23G28G17G21
 -22159043.984 7  -8367486.61826  21239473.079
 -18787932.886 7 -14627235.48229  20838167.807
 -21183212.628 6  -4431878.61125  23919212.664
 -17161999.598 7 -13984527.13329  20574644.600
  -6647337.662 6  -4927942.83925  23193027.521
 92  6 13  4 15 30.0000000  0  5G 3G23G28G17G21
 -22103590.909 7  -8324276.43526  21250028.921
 -18823086.409 7 -14654627.82629  20831474.430
 -21287207.230 6  -4512913.32525  23899418.807
 -17145926.858 8 -13972002.92229  20577703.592
  -6741162.129 6  -5001052.77725  23175171.013
 92  6 13  4 16  0.0000000  0  5G 3G23G28G17G21
 -22047663.187 7  -8280696.39526  21260671.373
 -18857795.299 7 -14681673.69029  20824874.589
 -21391080.926 6  -4593853.79525  23879656.997
 -17129553.153 7 -13959244.16629  20580823.173
  -6834753.110 6  -5073980.74225  23157362.621
 92  6 13  4 16 30.0000000  0  5G 3G23G28G17G21
 -21991259.577 7  -8236745.54226  21271405.742
 -18892051.737 7 -14708367.00929  20818352.724
 -21494837.801 5  -4674703.23125  23859907.869
 -17112886.398 7 -13946257.09029  20583994.287
  -6928092.049 5  -5146712.35025  23139605.105
 92  6 13  4 17  0.0000000  0  5G 3G23G28G17G21
 -21934381.263 7  -8192424.78626  21282230.349
 -18925847.518 7 -14734701.34429  20811921.606
 -21598476.964 5  -4755460.97825  23840190.130
 -17095926.045 7 -13933041.21529  20587219.125
  -7021175.573 6  -5219244.91225  23121888.989
 92  6 13  4 17 30.0000000  0  5G 3G23G28G17G21
 -21877025.393 7  -8147731.89326  21293138.957
 -18959179.512 7 -14760674.32529  20805582.765
 -21701988.126 5  -4836118.94325  23820481.894
 -17078678.284 7 -13919601.41129  20590498.495
  -7114006.406 5  -5291580.57525  23104221.620
 92  6 13  4 18  0.0000000  0  5G 3G23G28G17G21
 -21819192.828 7  -8102667.53026  21304147.606
 -18992046.120 7 -14786284.64529  20799327.895
 -21805346.490 6  -4916657.87725  23800823.902
 -17061142.740 8 -13905937.33129  20593838.033
  -7206584.413 6  -5363719.20925  23086610.702
 92  6 13  4 18 30.0000000  0  5G 3G23G28G17G21
 -21760883.111 7  -8057231.40026  21315246.012
 -19024443.178 7 -14811529.08429  20793163.862
 -21908527.478 5  -4997058.58225  23781190.974
 -17043320.425 7 -13892049.80829  20597229.105
  -7298906.954 5  -5435658.78725  23069038.277
 92  6 13  4 19  0.0000000  0  5G 3G23G28G17G21
 -21702097.104 7  -8011424.12726  21326434.267
 -19056380.181 7 -14836415.04229  20787084.821
 -22011518.900 5  -5077311.57825  23761581.969
 -17025225.523 7 -13877949.87429  20600673.181
  -7390991.229 6  -5507412.74525  23051519.755
 92  6 13  4 19 30.0000000  0  5G 3G23G28G17G21
 -21642834.732 7  -7965245.66726  21337711.740
 -19087857.577 7 -14860942.86029  20781094.578
 -22114309.931 5  -5157408.41225  23742022.370
 -17006871.074 7 -13863647.69729  20604165.883
  -7482852.690 6  -5578993.05825  23034034.120
 92  6 13  4 20  0.0000000  0  5G 3G23G28G17G21
 -21583094.961 6  -7918695.20326  21349077.291
 -19118871.125 7 -14885109.22929  20775192.084
 -22216897.016 5  -5237346.33825  23722504.622
 -16988263.429 7 -13849148.22129  20607705.412
  -7574491.275 6  -5650399.70525  23016599.330
 92  6 13  4 20 30.0000000  0  5G 3G23G28G17G21
 -21522879.323 6  -7871773.92626  21360535.209
 -19149421.440 7 -14908914.65729  20769378.658
 -22319298.795 5  -5317139.85725  23703016.493
 -16969400.380 7 -13834449.73829  20611296.087
  -7665912.337 6  -5721636.78925  22999195.658
 92  6 13  4 21  0.0000000  0  5G 3G23G28G17G21
 -21462188.165 7  -7824482.16126  21372086.722
 -19179518.777 7 -14932367.10129  20763654.571
 -22421526.595 6  -5396797.86725  23683562.361
 -16950268.270 8 -13819541.58829  20614938.535
  -7757118.495 6  -5792706.51025  22981841.422
 92  6 13  4 21 30.0000000  0  5G 3G23G28G17G21
 -21401019.797 7  -7776818.50626  21383725.805
 -19209160.687 7 -14955464.67129  20758012.777
 -22523583.541 6  -5476322.67925  23664141.566
 -16930845.817 8 -13804407.20629  20618631.588
  -7848097.776 6  -5863599.38525  22964529.637
 92  6 13  4 22  0.0000000  0  5G 3G23G28G17G21
 -21339374.900 6  -7728783.54026  21395453.566
 -19238356.707 7 -14978214.78529  20752456.273
 -22625480.231 6  -5555722.68925  23644747.752
 -16911122.590 7 -13789038.45529  20622384.510
  -7938839.808 6  -5934307.40225  22947266.688
 92  6 13  4 22 30.0000000  0  5G 3G23G28G17G21
 -21277249.992 7  -7680374.51826  21407276.391
 -19267110.006 7 -15000619.95229  20746984.312
 -22727205.894 6  -5634989.37125  23625402.954
 -16891077.482 7 -13773418.87429  20626199.519
  -8029334.173 6  -6004822.40125  22930045.050
 92  6 13  4 23  0.0000000  0  5G 3G23G28G17G21
 -21214647.580 7  -7631593.44026  21419189.993
 -19295419.840 7 -15022679.54429  20741596.172
 -22828762.672 5  -5714124.47725  23606070.148
 -16870722.622 7 -13757557.92729  20630073.977
  -8119578.157 6  -6075142.35025  22912872.638
 92  6 13  4 23 30.0000000  0  5G 3G23G28G17G21
 -21151568.497 6  -7582440.89426  21431191.345
 -19323275.251 7 -15044385.03829  20736296.531
 -22930156.014 5  -5793132.24325  23586769.929
 -16850061.347 7 -13741458.22029  20634006.834
  -8209567.514 6  -6145263.83325  22895741.238
 92  6 13  4 24  0.0000000  0  5G 3G23G28G17G21
 -21088016.650 6  -7532919.98326  21443286.082
 -19350678.278 7 -15065738.04029  20731081.251
 -23031388.600 5  -5872014.73125  23567514.979
 -16829098.685 7 -13725123.68829  20637998.331
  -8299302.160 6  -6215186.88725  22878676.302
 92  6 13  4 24 30.0000000  0  5G 3G23G28G17G21
 -21023990.112 7  -7483029.16726  21455469.677
 -19377631.111 7 -15086740.21129  20725950.453
 -23132447.722 5  -5950762.05525  23548274.569
 -16807832.580 7 -13708552.67329  20642041.902
  -8388771.899 6  -6284903.50125  22861637.837
 92  6 13  4 25  0.0000000  0  5G 3G23G28G17G21
 -20959486.545 6  -7432766.68526  21467744.260
 -19404119.811 7 -15107380.75729  20720913.490
 -23233323.891 6  -6029366.79325  23529088.331
 -16786260.927 7 -13691743.58029  20646146.960
  -8477975.485 6  -6354412.69425  22844667.096
 92  6 13  4 25 30.0000000  0  5G 3G23G28G17G21
 -20894509.514 6  -7382135.24126  21480104.583
 -19430153.565 7 -15127666.76729  20715955.402
 -23333989.036 6  -6107807.17125  23509920.321
 -16764383.609 7 -13674696.30829  20650308.679
  -8566916.148 6  -6423717.08725  22827741.204
 92  6 13  4 26  0.0000000  0  5G 3G23G28G17G21
 -20829056.170 6  -7331132.64326  21492564.917
 -19455736.365 7 -15147601.40529  20711091.030
 -23434417.753 6  -6186063.24025  23490822.432
 -16742207.068 7 -13657415.90029  20654530.656
  -8655591.350 6  -6492814.57025  22810870.923
 92  6 13  4 26 30.0000000  0  5G 3G23G28G17G21
 -20763128.758 6  -7279760.60626  21505109.612
 -19480864.806 7 -15167181.99029  20706307.452
 -23534603.731 6  -6264130.17625  23471755.872
 -16719738.864 7 -13639908.19229  20658804.617
  -8743998.223 6  -6561702.98125  22794050.407
 92  6 13  4 27  0.0000000  0  5G 3G23G28G17G21
 -20696728.790 6  -7228020.39026  21517747.034
 -19505525.348 7 -15186397.97229  20701616.659
 -23634550.526 6  -6342010.72125  23452736.978
 -16696982.977 7 -13622176.34329  20663135.809
  -8832140.365 6  -6630385.10225  22777278.878
 92  6 13  4 27 30.0000000  0  5G 3G23G28G17G21
 -20629857.670 7  -7175913.03626  21530470.316
 -19529739.146 7 -15205265.84329  20697004.022
 -23734270.532 6  -6419714.58725  23433755.049
 -16673954.919 8 -13604232.38829  20667516.196
  -8920009.886 6  -6698854.82625  22760552.318
 92  6 13  4 28  0.0000000  0  5G 3G23G28G17G21
 -20562515.163 7  -7123438.37926  21543289.201
 -19553501.735 7 -15223782.11829  20692486.030
 -23833783.545 6  -6497257.12525  23414819.408
 -16650648.941 8 -13586071.87429  20671950.546
  -9007606.654 6  -6767111.97425  22743877.861
 92  6 13  4 28 30.0000000  0  5G 3G23G28G17G21
 -20494701.532 7  -7070596.59926  21556190.230
 -19576807.374 7 -15241942.36929  20688049.701
 -23933099.883 6  -6574646.38425  23395917.433
 -16627059.325 8 -13567690.36829  20676441.138
  -9094921.815 6  -6835149.71926  22727269.898
 92  6 13  4 29  0.0000000  0  5G 3G23G28G17G21
 -20426418.569 7  -7017389.10526  21569182.486
 -19599665.293 7 -15259753.70929  20683703.190
 -24032227.611 6  -6651888.75325  23377056.561
 -16603184.882 7 -13549086.88129  20680983.983
  -9181968.279 6  -6902978.06426  22710698.840
 92  6 13  4 29 30.0000000  0  5G 3G23G28G17G21
 -20357666.552 7  -6963816.10226  21582268.786
 -19622071.378 7 -15277212.97829  20679434.086
 -24131162.166 6  -6728980.50525  23358220.001
 -16579030.639 8 -13530265.38929  20685580.940
  -9268744.630 6  -6970595.95726  22694194.996
 92  6 13  4 30  0.0000000  0  5G 3G23G28G17G21
 -20288445.716 6  -6909877.80025  21595440.168
 -19644007.319 7 -15294305.90129  20675264.063
 -24229896.804 6  -6805916.55325  23339441.841
 -16554592.772 7 -13511222.89629  20690231.980
  -9355252.616 6  -7038004.70726  22677730.214
 92  6 13  4 30 30.0000000  0  5G 3G23G28G17G21
 -20218759.196 6  -6855576.63525  21608697.770
 -19665472.620 7 -15311032.10229  20671176.212
 -24328425.033 6  -6882691.75025  23320696.328
 -16529884.864 7 -13491969.95929  20694940.101
  -9441487.896 6  -7105200.97026  22661321.673
 92  6 13  4 31  0.0000000  0  5G 3G23G28G17G21
 -20148607.580 7  -6800913.03225  21622050.706
 -19686465.431 7 -15327390.12629  20667183.696
 -24426741.364 6  -6959301.82425  23301980.704
 -16504917.180 7 -13472514.61629  20699680.809
  -9527462.626 6  -7172194.25826  22644952.406
 92  6 13  4 31 30.0000000  0  5G 3G23G28G17G21
 -20077989.902 6  -6745886.26125  21635488.573
 -19706980.634 7 -15343375.96129  20663278.330
 -24524827.652 6  -7035732.65925  23283324.020
 -16479695.740 7 -13452861.56029  20704486.482
  -9613170.559 6  -7238979.59426  22628649.572
 92  6 13  4 32  0.0000000  0  5G 3G23G28G17G21
 -20006907.688 6  -6690497.58426  21649012.481
 -19727037.679 7 -15359004.82129  20659460.683
 -24622686.786 6  -7111986.49125  23264696.746
 -16454214.155 7 -13433005.77429  20709332.777
  -9698622.704 6  -7305565.61826  22612390.688
 92  6 13  4 32 30.0000000  0  5G 3G23G28G17G21
 -19935364.225 6  -6634749.39926  21662626.776
 -19746651.341 7 -15374288.18029  20655731.265
 -24720320.740 6  -7188064.86725  23246115.159
 -16428465.648 7 -13412942.01829  20714232.435
  -9783826.898 6  -7371958.42926  22596176.922
 92  6 13  4 33  0.0000000  0  5G 3G23G28G17G21
 -19863361.008 7  -6578643.02626  21676330.229
 -19765823.307 7 -15389227.36029  20652081.621
 -24817720.114 6  -7263960.44525  23227585.017
 -16402442.027 7 -13392663.84329  20719183.088
  -9868784.048 6  -7438158.74426  22580004.948
 92  6 13  4 33 30.0000000  0  5G 3G23G28G17G21
 -19790897.824 6  -6522178.23226  21690116.035
 -19784562.620 7 -15403829.40029  20648514.931
 -24914874.635 6  -7339665.26025  23209095.767
 -16376130.695 7 -13372161.50329  20724191.361
  -9953479.574 6  -7504155.20726  22563888.975
 92  6 13  4 34  0.0000000  0  5G 3G23G28G17G21
 -19717974.799 7  -6465355.07826  21703999.094
 -19802856.150 7 -15418084.09529  20645035.509
 -25011780.641 6  -7415176.36925  23190652.985
 -16349517.291 7 -13351423.77529  20729255.305
 -10037908.071 6  -7569943.60126  22547821.538
 92  6 13  4 34 30.0000000  0  5G 3G23G28G17G21
 -19644593.823 7  -6408175.10325  21717961.238
 -19820685.581 7 -15431977.13529  20641642.248
 -25108426.909 6  -7490485.12925  23172259.788
 -16322596.792 7 -13330446.75029  20734376.240
 -10122046.665 6  -7635506.09326  22531817.327
 92  6 13  4 35  0.0000000  0  5G 3G23G28G17G21
 -19570754.659 6  -6350638.10525  21732009.903
 -19838039.824 7 -15445499.90829  20638339.015
 -25204803.644 6  -7565583.84025  23153925.921
 -16295366.741 7 -13309228.53229  20739558.902
 -10205890.920 6  -7700839.18626  22515858.775
 92  6 13  4 35 30.0000000  0  5G 3G23G28G17G21
 -19496459.795 6  -6292746.03125  21746148.984
 -19854923.186 7 -15458655.75929  20635124.221
 -25300921.968 6  -7640481.15525  23135629.377
 -16267818.481 7 -13287762.35629  20744803.741
 -10289444.627 6  -7765945.92826  22499955.385
 92  6 13  4 36  0.0000000  0  5G 3G23G28G17G21
 -19421708.543 6  -6234498.31625  21760372.637
 -19871332.123 7 -15471441.93929  20632005.720
 -25396789.267 6  -7715182.93525  23117388.115
 -16239948.858 7 -13266045.76829  20750106.860
 -10372706.868 6  -7830825.57126  22484115.161
 92  6 13  4 36 30.0000000  0  5G 3G23G28G17G21
 -19346502.690 6  -6175896.36225  21774682.721
 -19887292.536 7 -15483878.60129  20628968.222
 -25492412.486 6  -7789694.47725  23099199.107
 -16211772.557 7 -13244090.20829  20755466.070
 -10455671.988 6  -7895473.66726  22468325.812
 92  6 13  4 37  0.0000000  0  5G 3G23G28G17G21
 -19270843.830 6  -6116941.41625  21789082.862
 -19902820.067 7 -15495977.94829  20626009.870
 -25587792.146 6  -7864016.22225  23081038.699
 -16183310.322 7 -13221911.82929  20760885.388
 -10538358.024 6  -7959904.27426  22452577.954
 92  6 13  4 37 30.0000000  0  5G 3G23G28G17G21
 -19194735.109 6  -6057635.93325  21803570.692
 -19917931.633 7 -15507753.19329  20623136.390
 -25682932.879 6  -7938151.86625  23062933.993
 -16154581.910 7 -13199526.04429  20766349.615
 -10620755.241 6  -8024109.86526  22436909.181
 92  6 13  4 38  0.0000000  0  5G 3G23G28G17G21
 -19118174.725 6  -5997978.52925  21818134.400
 -19932633.731 7 -15519209.35529  20620335.908
 -25777819.658 6  -8012089.54625  23044884.149
 -16125604.068 7 -13176945.90629  20771864.597
 -10702855.566 6  -8088084.07426  22421285.767
 92  6 13  4 38 30.0000000  0  5G 3G23G28G17G21
 -19041164.378 6  -5937970.47925  21832788.105
 -19946923.058 7 -15530343.89929  20617619.969
 -25872440.100 6  -8085819.71525  23026874.926
 -16096381.365 7 -13154174.94829  20777425.777
 -10784666.397 6  -8151832.76526  22405729.746
 92  6 13  4 39  0.0000000  0  5G 3G23G28G17G21
 -18963705.347 6  -5877612.81425  21847529.410
 -19960783.990 7 -15541144.61629  20614987.461
 -25966790.624 6  -8159339.54525  23008921.495
 -16066901.665 7 -13131203.75529  20783034.625
 -10866202.591 6  -8215367.39126  22390211.949
 92  6 13  4 39 30.0000000  0  5G 3G23G28G17G21
 -18885799.135 6  -5816906.68925  21862355.646
 -19974211.781 7 -15551607.81929  20612425.765
 -26060862.977 6  -8232642.63825  22991025.354
 -16037138.079 7 -13108011.33029  20788700.882
 -10947453.313 6  -8278679.54426  22374746.945
 92  6 13  4 40  0.0000000  0  5G 3G23G28G17G21
 -18807444.443 6  -5755851.11525  21877264.865
 -19987184.732 7 -15561716.61729  20609958.503
 -26154642.449 6  -8305717.49725  22973177.540
 -16007074.331 7 -13084585.03529  20794422.331
 -11028429.888 6  -8341778.19526  22359354.851
 92  6 13  4 40 30.0000000  0  5G 3G23G28G17G21
 -18728640.302 6  -5694445.27525  21892261.473
 -19999688.782 7 -15571459.99829  20607580.699
 -26248139.828 6  -8378572.54425  22955382.699
 -15976700.853 7 -13060917.38729  20800199.991
 -11109136.804 6  -8404666.62226  22343984.791
 92  6 13  4 41  0.0000000  0  5G 3G23G28G17G21
 -18649392.334 7  -5632693.64025  21907342.023
 -20011730.232 7 -15580842.95429  20605283.629
 -26341354.144 6  -8451207.02025  22937641.581
 -15946028.293 8 -13037016.69029  20806033.473
 -11189567.008 6  -8467339.47926  22328667.525
 92  6 13  4 41 30.0000000  0  5G 3G23G28G17G21
 -18569702.416 6  -5570597.63725  21922500.219
 -20023324.696 7 -15589877.59129  20603078.566
 -26434279.385 6  -8523616.23925  22919956.614
 -15915068.926 8 -13012892.49529  20811926.733
 -11269703.094 6  -8529783.14826  22313419.031
 92  6 13  4 42  0.0000000  0  5G 3G23G28G17G21
 -18489568.832 6  -5508155.87625  21937751.291
 -20034471.488 7 -15598563.39629  20600956.575
 -26526930.126 6  -8595811.58425  22902331.816
 -15883839.628 8 -12988557.97529  20817869.669
 -11349547.167 6  -8591999.25826  22298220.393
 92  6 13  4 42 30.0000000  0  5G 3G23G28G17G21
 -18408992.046 6  -5445368.82525  21953090.801
 -20045187.339 8 -15606913.42029  20598918.765
 -26619312.900 6  -8667798.11025  22884748.838
 -15852340.907 8 -12964013.51429  20823861.141
 -11429079.612 6  -8653972.55626  22283081.354
 92  6 13  4 43  0.0000000  0  5G 3G23G28G17G21
 -18327972.051 7  -5382236.40725  21968508.078
 -20055471.634 8 -15614927.15329  20596962.560
 -26711407.574 6  -8739560.14725  22867225.639
 -15820564.055 8 -12939252.33229  20829908.075
 -11508283.969 6  -8715690.17426  22268012.826
 92  6 13  4 43 30.0000000  0  5G 3G23G28G17G21
 -18246509.354 6  -5318758.97525  21984002.822
 -20065318.486 8 -15622600.02129  20595089.906
 -26803226.824 7  -8811107.56525  22849755.264
 -15788501.693 8 -12914268.65029  20836010.320
 -11587168.870 6  -8777158.90126  22253006.984
 92  6 13  4 44  0.0000000  0  5G 3G23G28G17G21
 -18164605.367 6  -5254937.71525  21999589.391
 -20074714.957 8 -15629921.93429  20593298.796
 -26894772.670 7  -8882441.94825  22832328.928
 -15756153.239 8 -12889062.05729  20842165.899
 -11665743.975 6  -8838386.17826  22238056.124
 92  6 13  4 44 30.0000000  0  5G 3G23G28G17G21
 -18082260.968 6  -5190773.25725  22015256.965
 -20083662.226 8 -15636893.84229  20591596.125
 -26986017.516 6  -8953541.77725  22814969.176
 -15723513.886 8 -12863628.77129  20848379.607
 -11743998.974 6  -8899364.07026  22223164.923
 92  6 13  4 45  0.0000000  0  5G 3G23G28G17G21
 -17999476.843 6  -5126266.17825  22031014.776
 -20092150.290 8 -15643507.89629  20589980.543
 -27076948.791 6  -9024397.27325  22797666.924
 -15690586.577 8 -12837971.13529  20854643.651
 -11821956.519 7  -8960110.16126  22208334.370
 92  6 13  4 45 30.0000000  0  5G 3G23G28G17G21
 -17916256.997 6  -5061419.57025  22046846.576
 -20100196.987 7 -15649778.02229  20588452.321
 -27167577.865 6  -9095017.29925  22780419.024
 -15657389.783 8 -12812103.49429  20860959.978
 -11899637.397 7  -9020640.66726  22193548.906
 92  6 13  4 46  0.0000000  0  5G 3G23G28G17G21
 -17832601.840 6  -4996233.76825  22062768.913
 -20107820.027 8 -15655718.06329  20587003.184
 -27257890.862 6  -9165391.01225  22763230.603
 -15623934.740 8 -12786034.61329  20867328.859
 -11977031.022 6  -9080947.34726  22178811.768
 92  6 13  4 46 30.0000000  0  5G 3G23G28G17G21
 -17748510.682 6  -4930708.21625  22078764.819
 -20115018.773 7 -15661327.45329  20585628.606
 -27347882.839 6  -9235514.59325  22746103.880
 -15590214.955 8 -12759759.45129  20873744.897
 -12054142.260 6  -9141033.98626  22164143.403
 92  6 13  4 47  0.0000000  0  5G 3G23G28G17G21
 -17663983.304 6  -4864842.77125  22094859.267
 -20121787.012 7 -15666601.38929  20584347.233
 -27437567.212 6  -9305398.46925  22729038.494
 -15556235.655 8 -12733282.05729  20880211.241
 -12130979.123 6  -9200906.83926  22149519.347
 92  6 13  4 47 30.0000000  0  5G 3G23G28G17G21
 -17579025.220 6  -4798641.66425  22111019.160
 -20128133.070 7 -15671546.35329  20583132.204
 -27526951.137 6  -9375048.22625  22712028.150
 -15522002.480 8 -12706606.85029  20886722.613
 -12207521.373 7  -9260550.11026  22134957.678
 92  6 13  4 48  0.0000000  0  5G 3G23G28G17G21
 -17493635.565 7  -4732104.32625  22127272.108
 -20134031.601 8 -15676142.61429  20582011.490
 -27616021.119 6  -9444453.38625  22695079.593
 -15487488.839 8 -12679713.10229  20893290.976
 -12283754.135 7  -9319952.21826  22120448.322
 92  6 13  4 48 30.0000000  0  5G 3G23G28G17G21
 -17407814.065 6  -4665230.43825  22143603.692
 -20139463.065 7 -15680374.91129  20580980.474
 -27704771.818 6  -9513609.75625  22678186.198
 -15452677.859 8 -12652587.64829  20899920.136
 -12359676.598 6  -9379112.53426  22105999.825
 92  6 13  4 49  0.0000000  0  5G 3G23G28G17G21
 -17321561.331 6  -4598020.55925  22160012.922
 -20144432.957 7 -15684247.54929  20580033.699
 -27793202.867 7  -9582517.02325  22661365.563
 -15417567.292 8 -12625228.78429  20906599.722
 -12435275.764 7  -9438020.94526  22091617.222
 92  6 13  4 49 30.0000000  0  5G 3G23G28G17G21
 -17234879.162 6  -4530476.06625  22176512.510
 -20148952.753 7 -15687769.45729  20579172.096
 -27881305.315 7  -9651168.25425  22644593.794
 -15382144.823 8 -12597626.83729  20913339.207
 -12510547.923 7  -9496674.51726  22077294.697
 92  6 13  4 50  0.0000000  0  5G 3G23G28G17G21
 -17147771.288 6  -4462599.82225  22193089.564
 -20153034.471 7 -15690950.01029  20578393.834
 -27969076.801 6  -9719561.60425  22627895.414
 -15346412.883 8 -12569783.75829  20920140.718
 -12585505.333 6  -9555082.86826  22063032.371
 92  6 13  4 50 30.0000000  0  5G 3G23G28G17G21
 -17060242.300 6  -4394395.43225  22209745.673
 -20156691.929 7 -15693799.98129  20577696.787
 -28056506.286 6  -9787688.45225  22611259.751
 -15310395.324 8 -12541718.12529  20926992.145
 -12660147.191 6  -9613245.31626  22048822.838
 92  6 13  4 51  0.0000000  0  5G 3G23G28G17G21
 -16972289.927 6  -4325861.15125  22226478.739
 -20159929.385 7 -15696322.67029  20577086.230
 -28143578.875 6  -9855537.19125  22594686.354
 -15274095.295 8 -12513432.39929  20933900.952
 -12734473.203 6  -9671161.63726  22034680.548
 92  6 13  4 51 30.0000000  0  5G 3G23G28G17G21
 -16883912.220 6  -4256995.43825  22243304.681
 -20162742.512 7 -15698514.70329  20576546.303
 -28230284.959 6  -9923100.34825  22578191.563
 -15237510.830 8 -12484924.98929  20940862.612
 -12808479.454 7  -9728828.79326  22020603.913
 92  6 13  4 52  0.0000000  0  5G 3G23G28G17G21
 -16795112.685 6  -4187801.03825  22260197.266
 -20165128.161 8 -15700373.64729  20576097.754
 -28316627.972 6  -9990380.58025  22561761.228
 -15200648.514 8 -12456201.10229  20947874.908
 -12882167.556 7  -9786248.04126  22006576.414
 92  6 13  4 52 30.0000000  0  5G 3G23G28G17G21
 -16705893.792 6  -4118279.85025  22277175.652
 -20167084.602 7 -15701898.13629  20575723.763
 -28402614.902 7 -10057383.33526  22545401.523
 -15163505.783 8 -12427258.69829  20954941.826
 -12955533.418 7  -9843416.19326  21992613.191
 92  6 13  4 53  0.0000000  0  5G 3G23G28G17G21
 -16616256.615 6  -4048432.74625  22294230.186
 -20168623.739 7 -15703097.46129  20575432.035
 -28488275.431 7 -10124131.77326  22529099.469
 -15126074.657 8 -12398091.59129  20962069.271
 -13028581.270 6  -9900336.54826  21978714.423
 92  6 13  4 53 30.0000000  0  5G 3G23G28G17G21
 -16526203.661 6  -3978261.65525  22311366.832
 -20169750.653 8 -15703975.55629  20575216.544
 -28573620.667 6 -10190634.52326  22512853.716
 -15088368.862 8 -12368710.44229  20969240.637
 -13101297.857 7  -9956998.78826  21964882.208
 92  6 13  4 54  0.0000000  0  5G 3G23G28G17G21
 -16435736.123 6  -3907767.50225  22328585.172
 -20170466.936 7 -15704533.69729  20575077.860
 -28658631.918 6 -10256877.02126  22496675.895
 -15050393.759 7 -12339119.44329  20976469.802
 -13173680.969 6 -10013401.15726  21951104.377
 92  6 13  4 54 30.0000000  0  5G 3G23G28G17G21
 -16344858.088 6  -3836953.47325  22345877.681
 -20170766.647 8 -15704767.23429  20575025.636
 -28743294.776 7 -10322848.04726  22480569.576
 -15012152.376 7 -12309320.94629  20983743.936
 -13245735.602 7 -10069547.59126  21937394.928
 92  6 13  4 55  0.0000000  0  5G 3G23G28G17G21
 -16253566.027 6  -3765816.85625  22363250.144
 -20170635.732 7 -15704665.21329  20575048.001
 -28827590.768 7 -10388533.19826  22464526.602
 -14973651.705 8 -12279320.41829  20991071.614
 -13317461.765 7 -10125438.06827  21923742.289
 92  6 13  4 55 30.0000000  0  5G 3G23G28G17G21
 -16161863.180 6  -3694360.13025  22380702.382
 -20170069.333 7 -15704223.86229  20575155.296
 -28911494.952 7 -10453913.03826  22448562.114
 -14934894.940 8 -12249120.32429  20998449.896
 -13388863.635 6 -10181075.84427  21910153.836
 92  6 13  4 56  0.0000000  0  5G 3G23G28G17G21
 -16069750.505 6  -3622584.02825  22398234.155
 -20169064.244 7 -15703440.66629  20575345.305
 -28995008.930 6 -10518988.86126  22432670.146
 -14895857.034 8 -12218701.16429  21005877.883
 -13459965.763 7 -10236480.07027  21896624.262
 92  6 13  4 56 30.0000000  0  5G 3G23G28G17G21
 -15977233.332 6  -3550492.79425  22415830.054
 -20167623.562 7 -15702318.05229  20575618.686
 -29078166.034 6 -10583786.57726  22416835.438
 -14856536.732 7 -12188061.98129  21013357.166
 -13530773.110 7 -10291654.58927  21883151.919
 92  6 13  4 57  0.0000000  0  5G 3G23G28G17G21
 -15884314.124 6  -3478088.22725  22433518.169
 -20165761.149 7 -15700866.81829  20575974.479
 -29160984.541 7 -10648320.48126  22401083.443
 -14816935.462 7 -12157203.85929  21020894.278
 -13601277.711 7 -10346593.21827  21869734.168
 92  6 13  4 57 30.0000000  0  5G 3G23G28G17G21
 -15790994.402 6  -3405371.56725  22451271.788
 -20163488.988 7 -15699096.27929  20576407.889
 -29243464.271 6 -10712590.36226  22385389.188
 -14777039.791 7 -12126116.32029  21028486.762
 -13671484.247 7 -10401299.56926  21856373.108
 92  6 13  4 58  0.0000000  0  5G 3G23G28G17G21
 -15697275.114 6  -3332343.59925  22469111.868
 -20160803.488 7 -15697003.67829  20576917.716
 -29325598.203 6 -10776590.81926  22369759.208
 -14736855.549 7 -12094803.92329  21036132.429
 -13741383.921 7 -10455766.83326  21843075.154
 92  6 13  4 58 30.0000000  0  5G 3G23G28G17G21
 -15603158.352 6  -3259005.94725  22487018.831
 -20157699.457 7 -15694584.93229  20577510.706
 -29407367.538 6 -10840307.14126  22354199.350
 -14696400.194 7 -12063280.25529  21043832.718
 -13810953.155 7 -10509976.59026  21829836.229
 92  6 13  4 59  0.0000000  0  5G 3G23G28G17G21
 -15508647.866 6  -3185361.39025  22505002.631
 -20154181.797 7 -15691843.91429  20578179.932
 -29488750.231 6 -10903722.20526  22338712.161
 -14655682.315 7 -12031552.03329  21051580.704
 -13880197.340 6 -10563933.07526  21816660.051
 92  6 13  4 59 30.0000000  0  5G 3G23G28G17G21
 -15413744.590 6  -3111410.80525  22523067.345
 -20150246.678 7 -15688777.55029  20578929.384
 -29569732.449 6 -10966825.18426  22323305.557
 -14614700.285 7 -11999617.97929  21059378.815
 -13949121.752 6 -10617640.35826  21803538.285
 92  6 13  5  0  0.0000000  0  5G 3G23G28G17G21
 -15318447.826 6  -3037153.65225  22541199.962
 -20145875.786 7 -15685371.66929  20579759.719
 -29650320.288 6 -11029620.88826  22307969.254
 -14573443.362 7 -11967469.73329  21067229.510
 -14017708.052 6 -10671084.21227  21790491.736
 92  6 13  5  0 30.0000000  0  5G 3G23G28G17G21
 -15222758.580 6  -2962590.62325  22559403.090
 -20141068.788 7 -15681625.93029  20580672.377
 -29730531.097 6 -11092122.79526  22292704.902
 -14531899.266 7 -11935097.68229  21075138.006
 -14085957.379 7 -10724265.48127  21777506.766
 92  6 13  5  1  0.0000000  0  5G 3G23G28G17G21
 -15126676.401 6  -2887721.42525  22577692.019
 -20135842.286 7 -15677553.33029  20581669.607
 -29810366.385 6 -11154332.06926  22277515.917
 -14490059.979 7 -11902495.63529  21083099.114
 -14153872.668 7 -10777186.44527  21764580.494
 92  6 13  5  1 30.0000000  0  5G 3G23G28G17G21
 -15030204.712 6  -2812548.72825  22596052.778
 -20130191.753 7 -15673150.31829  20582745.922
 -29889823.492 7 -11216246.66326  22262391.117
 -14447923.013 7 -11869661.65429  21091117.483
 -14221445.530 6 -10829840.59427  21751720.387
 92  6 13  5  2  0.0000000  0  5G 3G23G28G17G21
 -14933345.167 6  -2737073.80225  22614482.070
 -20124120.457 7 -15668419.42429  20583898.474
 -29968886.205 6 -11277853.96726  22247345.973
 -14405491.954 7 -11836598.49129  21099191.793
 -14288662.999 6 -10882217.81227  21738930.552
 92  6 13  5  2 30.0000000  0  5G 3G23G28G17G21
 -14836102.049 6  -2661299.98325  22632988.468
 -20117654.374 7 -15663380.91829  20585129.871
 -30047532.108 6 -11339136.47926  22232379.044
 -14362791.079 7 -11803325.07529  21107314.280
 -14355533.738 6 -10934324.87527  21726206.640
 92  6 13  5  3  0.0000000  0  5G 3G23G28G17G21
 -14738479.255 6  -2585230.32325  22651564.838
 -20110802.508 7 -15658041.77629  20586435.677
 -30125735.783 7 -11400074.40026  22217500.105
 -14319823.255 7 -11769843.64829  21115493.548
 -14422064.712 7 -10986167.16227  21713547.544
 92  6 13  5  3 30.0000000  0  5G 3G23G28G17G21
 -14640474.550 6  -2508863.04525  22670218.165
 -20103534.895 7 -15652378.68929  20587818.830
 -30203490.416 7 -11460662.39426  22202705.677
 -14276576.246 7 -11736144.69929  21123721.562
 -14488258.777 7 -11037746.90327  21700950.565
 92  6 13  5  4  0.0000000  0  5G 3G23G28G17G21
 -14542093.292 6  -2432202.34625  22688932.049
 -20095859.574 7 -15646397.90529  20589278.069
 -30280803.679 7 -11520906.46626  22187990.274
 -14233059.894 7 -11702235.85929  21132002.189
 -14554132.533 7 -11089077.10527  21688413.724
 92  6 13  5  4 30.0000000  0  5G 3G23G28G17G21
 -14443337.379 6  -2355249.72025  22707724.479
 -20087773.444 7 -15640097.01929  20590815.315
 -30357695.119 6 -11580821.85726  22173357.854
 -14189271.028 7 -11668114.62829  21140334.771
 -14619706.255 7 -11140173.45027  21675937.201
 92  6 13  5  5  0.0000000  0  5G 3G23G28G17G21
 -14344208.771 6  -2278006.67425  22726599.173
 -20079264.740 7 -15633466.86829  20592437.522
 -30434183.981 6 -11640423.54526  22158806.438
 -14145213.905 7 -11633784.41829  21148717.987
 -14684979.387 7 -11191035.62527  21663519.557
 92  6 13  5  5 30.0000000  0  5G 3G23G28G17G21
 -14244707.217 6  -2200473.03825  22745521.863
 -20070337.036 7 -15626510.20529  20594133.208
 -30510295.144 7 -11699730.91726  22144317.648
 -14100899.341 7 -11599253.58729  21157153.697
 -14749938.360 7 -11241652.95727  21651156.386
 92  6 13  5  6  0.0000000  0  5G 3G23G28G17G21
 -14144836.295 6  -2122651.58225  22764516.803
 -20061016.982 7 -15619247.82929  20595910.648
 -30586040.269 7 -11758753.07726  22129904.376
 -14056345.280 7 -11564536.14129  21165633.117
 -14814578.511 6 -11292021.89127  21638845.349
 92  6 13  5  6 30.0000000  0  5G 3G23G28G17G21
 -14044594.330 6  -2044540.96325  22783615.891
 -20051318.252 7 -15611690.37029  20597755.750
 -30661414.693 7 -11817486.38526  22115563.084
 -14011540.958 7 -11529623.68529  21174156.097
 -14878884.359 6 -11342130.31827  21626608.540
 92  6 13  5  7  0.0000000  0  5G 3G23G28G17G21
 -13943984.968 6  -1966144.16025  22802742.710
 -20041246.843 7 -15603842.51329  20599671.124
 -30736413.163 7 -11875926.71926  22101288.376
 -13966478.687 7 -11494510.21928  21182728.152
 -14942836.901 7 -11391963.44027  21614444.881
 92  6 13  5  7 30.0000000  0  5G 3G23G28G17G21
 -13843010.146 6  -1887462.46325  22821964.383
 -20030807.188 7 -15595707.69129  20601658.359
 -30811021.183 7 -11934062.83026  22087097.311
 -13921135.717 7 -11459178.03028  21191360.317
 -15006439.307 7 -11441523.72827  21602340.011
 92  6 13  5  8  0.0000000  0  5G 3G23G28G17G21
 -13741668.880 6  -1808495.29125  22841252.130
 -20019985.575 7 -15587275.24029  20603715.055
 -30885199.958 6 -11991864.44726  22072971.090
 -13875499.307 7 -11423617.18528  21200043.086
 -15069694.260 7 -11490813.27927  21590303.044
 92  6 13  5  8 30.0000000  0  5G 3G23G28G17G21
 -13639964.273 6  -1729245.02225  22860599.177
 -20008775.630 7 -15578540.22129  20605848.108
 -30958925.307 6 -12049312.75226  22058942.962
 -13829560.374 7 -11387820.60328  21208787.522
 -15132604.910 7 -11539834.56127  21578331.822
 92  6 13  5  9  0.0000000  0  5G 3G23G28G17G21
 -13537898.780 6  -1649713.51425  22880025.098
 -19997155.185 7 -15569485.32329  20608060.756
 -31032186.762 7 -12106399.61326  22045007.529
 -13783326.463 7 -11351794.19328  21217584.482
 -15195179.572 7 -11588594.00027  21566423.975
 92  6 13  5  9 30.0000000  0  5G 3G23G28G17G21
 -13435475.783 6  -1569903.41725  22899519.702
 -19985128.834 7 -15560114.12829  20610347.303
 -31104977.835 7 -12163119.90826  22031153.430
 -13736824.209 7 -11315558.66928  21226430.578
 -15257430.413 7 -11637101.13827  21554581.304
 92  6 13  5 10  0.0000000  0  5G 3G23G28G17G21
 -13332695.156 6  -1489814.65325  22919078.102
 -19972691.688 7 -15550422.83529  20612717.013
 -31177294.271 7 -12219470.36226  22017391.877
 -13690066.770 7 -11279124.28228  21235332.345
 -15319351.870 7 -11685351.59127  21542796.103
 92  6 13  5 10 30.0000000  0  5G 3G23G28G17G21
 -13229559.303 6  -1409449.08325  22938703.296
 -19959843.416 7 -15540411.19829  20615160.951
 -31249155.936 7 -12275466.43126  22003718.583
 -13643047.620 7 -11242485.99428  21244278.932
 -15380939.390 7 -11733341.84127  21531074.997
 92  6 13  5 11  0.0000000  0  5G 3G23G28G17G21
 -13126070.103 6  -1328808.19125  22958392.346
 -19946583.828 7 -15530079.05929  20617684.904
 -31320574.678 7 -12331117.38326  21990129.530
 -13595764.302 7 -11205641.85528  21253274.654
 -15442181.363 7 -11781062.83127  21519419.336
 92  6 13  5 11 30.0000000  0  5G 3G23G28G17G21
 -13022229.454 6  -1247893.43725  22978156.403
 -19932926.728 7 -15519437.13729  20620283.835
 -31391549.278 7 -12386422.24826  21976620.762
 -13548209.491 7 -11168586.15228  21262324.879
 -15503071.565 7 -11828509.71627  21507834.306
 92  6 13  5 12  0.0000000  0  5G 3G23G28G17G21
 -12918038.669 6  -1166705.89325  22997981.828
 -19918868.227 7 -15508482.49229  20622958.823
 -31462079.192 7 -12441380.60326  21963202.471
 -13500355.057 7 -11131297.00228  21271432.034
 -15563612.057 6 -11875684.10727  21496310.164
 92  6 13  5 12 30.0000000  0  5G 3G23G28G17G21
 -12813502.600 6  -1085249.21125  23017877.045
 -19904419.125 7 -15497223.46229  20625708.789
 -31532170.330 7 -12495997.06526  21949862.666
 -13452202.263 7 -11093775.33928  21280592.013
 -15623803.788 7 -11922586.72527  21484861.390
 92  6 13  5 13  0.0000000  0  5G 3G23G28G17G21
 -12708622.947 6  -1003524.86525  23037829.133
 -19889601.416 7 -15485677.15829  20628528.067
 -31601823.186 7 -12550272.00626  21936608.572
 -13403765.974 7 -11056032.77028  21289812.400
 -15683654.332 6 -11969223.50727  21473469.007
 92  6 13  5 13 30.0000000  0  5G 3G23G28G17G21
 -12603403.023 5   -921535.36525  23057852.031
 -19874422.034 7 -15473849.02529  20631415.698
 -31671040.071 7 -12604207.21826  21923436.801
 -13355057.202 7 -11018077.91228  21299083.421
 -15743180.329 7 -12015607.37327  21462144.856
 92  6 13  5 14  0.0000000  0  5G 3G23G28G17G21
 -12497843.769 5   -839281.39625  23077939.265
 -19858876.493 7 -15461735.60329  20634373.600
 -31739824.479 7 -12657805.45026  21910349.301
 -13306072.731 7 -10979908.17428  21308402.470
 -15802385.354 7 -12061741.14827  21450873.619
 92  6 13  5 14 30.0000000  0  5G 3G23G28G17G21
 -12391947.022 5   -756764.55725  23098093.832
 -19842973.931 7 -15449344.01629  20637401.654
 -31808171.628 7 -12711062.94326  21897341.186
 -13256828.275 7 -10941535.87128  21317774.522
 -15861255.206 7 -12107613.73527  21439681.168
 92  6 13  5 15  0.0000000  0  5G 3G23G28G17G21
 -12285715.169 5   -673986.53025  23118300.414
 -19826718.764 7 -15436677.63929  20640493.893
 -31876067.780 7 -12763969.01926  21884415.365
 -13207318.941 7 -10902957.18128  21327195.350
 -15919794.352 7 -12153228.60127  21428533.385
 92  6 13  5 15 30.0000000  0  5G 3G23G28G17G21
 -12179150.925 6   -590949.44025  23138590.337
 -19810090.562 7 -15423720.60729  20643657.184
 -31943482.552 7 -12816500.00926  21871591.502
 -13157540.373 7 -10864168.69328  21336667.233
 -15977994.513 7 -12198579.36827  21417457.673
 92  6 13  5 16  0.0000000  0  5G 3G23G28G17G21
 -12072257.766 5   -507656.14125  23158933.504
 -19793090.842 7 -15410474.07529  20646893.803
 -32010401.191 7 -12868644.36326  21858860.456
 -13107494.796 7 -10825172.13728  21346194.337
 -16035841.007 7 -12243654.51127  21406452.351
 92  6 13  5 16 30.0000000  0  5G 3G23G28G17G21
 -11965037.405 6   -424107.84225  23179334.201
 -19775726.890 7 -15396943.71629  20650198.895
 -32076813.462 7 -12920394.19526  21846222.405
 -13057199.249 7 -10785980.80028  21355761.764
 -16093329.092 7 -12288450.41628  21395513.164
 92  6 13  5 17  0.0000000  0  5G 3G23G28G17G21
 -11857489.257 6   -340304.12225  23199796.325
 -19757983.407 7 -15383117.61729  20653570.721
 -32142721.528 7 -12971751.09026  21833679.328
 -13006653.929 7 -10746594.85028  21365381.834
 -16150468.101 7 -12332974.28428  21384640.561
 92  6 13  5 17 30.0000000  0  5G 3G23G28G17G21
 -11749615.826 6   -256246.97225  23220327.402
 -19739844.464 7 -15368983.37229  20657025.139
 -32208142.988 7 -13022728.84426  21821230.327
 -12955878.590 7 -10707029.65928  21375041.836
 -16207254.760 7 -12377223.61228  21373832.983
 92  6 13  5 18  0.0000000  0  5G 3G23G28G17G21
 -11641420.396 6   -171938.86925  23240919.606
 -19721314.006 7 -15354544.04829  20660545.242
 -32273110.266 7 -13073352.67526  21808863.918
 -12904868.329 7 -10667281.39528  21384752.324
 -16263699.637 7 -12421206.62228  21363091.030
 92  6 13  5 18 30.0000000  0  5G 3G23G28G17G21
 -11532904.511 6    -87381.09725  23261560.707
 -19702386.412 7 -15339795.25329  20664150.366
 -32337627.536 7 -13123625.86627  21796589.185
 -12853613.874 7 -10627342.88328  21394502.414
 -16319814.630 7 -12464932.56728  21352415.960
 92  6 13  5 19  0.0000000  0  6G 3G23G28G11G17G21
 -11424067.816 6     -2573.30925  23282279.213
 -19683053.536 7 -15324730.68929  20667828.730
 -32401697.804 7 -13173550.72927  21784395.097
    757282.76815   -225123.86131  25106748.779
 -12802096.227 7 -10587199.23928  21404309.525
 -16375592.505 7 -12508395.82827  21341799.560
 92  6 13  5 19 30.0000000  0  6G 3G23G28G11G17G21
 -11314915.296 5     82480.54925  23303042.749
 -19663338.226 7 -15309368.13529  20671582.281
 -32465311.019 7 -13223119.44127  21772292.925
    648244.118 5   -310077.87721  25085981.616
 -12750294.523 7 -10546834.27928  21414164.333
 -16431035.325 7 -12551597.99327  21331250.642
 92  6 13  5 20  0.0000000  0  6G 3G23G28G11G17G21
 -11205447.810 6    167779.82525  23323879.914
 -19643264.755 7 -15293726.48829  20675403.466
 -32528452.623 7 -13272320.69127  21760274.276
    539198.201 5   -395047.47021  25065228.843
 -12698187.154 7 -10506231.11828  21424076.790
 -16486143.209 7 -12594539.19327  21320762.883
 92  6 13  5 20 30.0000000  0  6G 3G23G28G11G17G21
 -11095665.810 5    253324.22025  23344764.626
 -19622841.015 7 -15277811.87529  20679290.275
 -32591102.464 7 -13321138.72927  21748352.849
    430149.410 5   -480020.46522  25044499.724
 -12645768.786 7 -10465385.64028  21434053.763
 -16540901.461 7 -12637207.94327  21310341.947
 92  6 13  5 21  0.0000000  0  6G 3G23G28G11G17G21
 -10985573.425 6    339110.43525  23365722.787
 -19602074.874 7 -15261630.46429  20683244.808
 -32653263.227 7 -13369575.66927  21736523.518
    321097.648 5   -564995.81423  25023728.543
 -12593042.860 7 -10424300.51228  21444086.918
 -16595309.304 7 -12679603.62727  21299988.405
 92  6 13  5 21 30.0000000  0  6G 3G23G28G11G17G21
 -10875171.478 6    425137.91425  23386730.323
 -19580965.212 7 -15245181.38529  20687257.530
 -32714923.076 7 -13417622.28627  21724792.489
    212046.424 5   -649970.70824  25002977.659
 -12540021.566 7 -10382985.22927  21454176.703
 -16649366.163 7 -12721725.81927  21289701.296
 92  6 13  5 22  0.0000000  0  6G 3G23G28G11G17G21
 -10764463.305 5    511403.91325  23407796.320
 -19559489.346 7 -15228446.94829  20691344.151
 -32776087.229 7 -13465282.64627  21713148.910
    102997.052 5   -734944.17324  24982241.764
 -12486728.683 7 -10341458.33127  21464319.581
 -16703063.477 7 -12763567.86827  21279488.387
 92  6 13  5 22 30.0000000  0  6G 3G23G28G11G17G21
 -10653451.141 5    597906.88125  23428922.155
 -19537632.431 7 -15211415.52329  20695503.681
 -32836745.775 7 -13512549.01127  21701609.928
     -6048.314 5   -819914.50724  24961485.783
 -12433178.359 7 -10299730.76228  21474508.507
 -16756399.661 7 -12805128.50727  21269334.026
 92  6 13  5 23  0.0000000  0  6G 3G23G28G11G17G21
 -10542139.771 5    684642.98425  23450101.233
 -19515403.434 7 -15194094.22329  20699736.031
 -32896890.377 7 -13559414.92627  21690166.820
   -115090.201 5   -904882.18225  24940736.308
 -12379388.862 7 -10257816.85928  21484743.871
 -16809381.767 7 -12846413.25727  21259252.546
 92  6 13  5 23 30.0000000  0  6G 3G23G28G11G17G21
 -10430528.125 6    771613.01225  23471343.477
 -19492803.183 7 -15176483.62029  20704033.436
 -32956517.298 7 -13605877.43627  21678818.446
   -224123.165 5   -989842.80825  24919990.879
 -12325372.270 7 -10215726.05327  21495022.226
 -16862008.245 7 -12887420.84128  21249239.538
 92  6 13  5 24  0.0000000  0  6G 3G23G28G11G17G21
 -10318619.299 5    858814.66625  23492639.174
 -19469842.350 7 -15158592.07029  20708406.419
 -33015618.920 7 -13651930.63827  21667572.332
   -333145.328 5  -1074795.16625  24899237.027
 -12271126.450 7 -10173456.54628  21505347.048
 -16914296.543 7 -12928164.96728  21239287.117
 92  6 13  5 24 30.0000000  0  6G 3G23G28G11G17G21
 -10206414.622 5    946246.85925  23513992.462
 -19446540.010 7 -15140434.40829  20712837.621
 -33074186.367 7 -13697567.60627  21656428.327
   -442154.045 5  -1159736.87825  24878487.521
 -12216641.341 7 -10131000.59028  21515715.340
 -16966252.892 7 -12968650.43828  21229400.832
 92  6 13  5 25  0.0000000  0  6G 3G23G28G11G17G21
 -10093916.425 5   1033907.70525  23535395.635
 -19422892.334 7 -15122007.66829  20717339.904
 -33132234.576 7 -13742799.94427  21645381.304
   -551147.068 5  -1244666.44925  24857754.625
 -12161907.021 7 -10088350.51328  21526127.522
 -17017885.903 7 -13008883.90328  21219574.894
 92  6 13  5 25 30.0000000  0  6G 3G23G28G11G17G21
  -9981127.999 5   1121794.76425  23556854.059
 -19398883.760 7 -15103299.69729  20721908.771
 -33189772.494 7 -13787634.66927  21634431.385
   -660122.734 5  -1329582.54225  24837014.323
 -12106902.101 7 -10045489.55528  21536600.052
 -17069200.437 7 -13048869.25128  21209812.063
 92  6 13  5 26  0.0000000  0  6G 3G23G28G11G17G21
  -9868050.664 5   1209906.91125  23578376.969
 -19374509.361 7 -15084306.61729  20726543.832
 -33246790.060 7 -13832063.91927  21623584.054
   -769078.275 5  -1414482.83725  24816283.255
 -12051595.643 7 -10002393.56028  21547124.746
 -17120184.324 7 -13088596.91828  21200113.267
 92  6 13  5 26 30.0000000  0  6G 3G23G28G11G17G21
  -9754686.331 5   1298242.68625  23599957.649
 -19349754.938 7 -15065017.46629  20731255.101
 -33303304.616 7 -13876101.21527  21612830.948
   -878010.650 5  -1499365.17925  24795563.099
 -11995973.739 7  -9959051.82227  21557707.090
 -17170807.152 7 -13128043.25328  21190473.680
 92  6 13  5 27  0.0000000  0  6G 3G23G28G11G17G21
  -9641037.669 5   1386800.02725  23621577.182
 -19324616.965 7 -15045429.40229  20736039.459
 -33359323.363 7 -13919752.17127  21602162.684
   -986918.489 5  -1584228.36425  24774826.035
 -11940045.184 6  -9915471.11327  21568347.624
 -17221063.383 7 -13167203.92228  21180911.740
 92  6 13  5 27 30.0000000  0  6G 3G23G28G11G17G21
  -9527106.666 6   1475577.41525  23643261.501
 -19299119.060 7 -15025560.89229  20740893.098
 -33414833.493 7 -13963006.79627  21591603.484
  -1095798.904 5  -1669070.23125  24754110.286
 -11883818.231 7  -9871657.92427  21579048.326
 -17270936.050 7 -13206065.74628  21171424.508
 92  6 13  5 28  0.0000000  0  6G 3G23G28G11G17G21
  -9412895.464 5   1564573.09625  23665007.786
 -19273276.618 7 -15005423.93029  20745810.234
 -33469829.587 7 -14005860.87227  21581139.768
  -1204649.029 5  -1753888.47625  24733400.773
 -11827314.595 6  -9827629.11027  21589803.050
 -17320414.911 7 -13244620.68628  21162006.977
 92  6 13  5 28 30.0000000  0  6G 3G23G28G11G17G21
  -9298405.625 5   1653785.87825  23686784.081
 -19247105.783 7 -14985031.07729  20750790.327
 -33524306.097 7 -14048310.09527  21570770.966
  -1313466.216 5  -1838681.06425  24712687.333
 -11770560.342 6  -9783404.99527  21600599.686
 -17369504.527 7 -13282872.33928  21152666.913
 92  6 13  5 29  0.0000000  0  6G 3G23G28G11G17G21
  -9183639.956 6   1743213.70225  23708617.336
 -19220628.556 7 -14964399.47329  20755831.187
 -33578248.487 7 -14090343.10927  21560508.501
  -1422248.698 5  -1923446.56525  24691974.582
 -11713575.663 7  -9739001.34327  21611446.117
 -17418223.113 7 -13320834.86628  21143391.575
 92  6 13  5 29 30.0000000  0  6G 3G23G28G11G17G21
  -9068598.114 5   1832856.64125  23730523.770
 -19193847.714 7 -14943531.27329  20760928.378
 -33631642.397 7 -14131948.74127  21550347.635
  -1530991.083 5  -2008180.90525  24671299.095
 -11656354.448 6  -9694413.41627  21622337.367
 -17466565.082 7 -13358503.90228  21134199.758
 92  6 13  5 30  0.0000000  0  6G 3G23G28G11G17G21
  -8953286.110 5   1922710.05825  23752440.997
 -19166750.168 7 -14922416.29229  20766082.620
 -33684492.531 7 -14173130.64927  21540292.116
  -1639694.720 5  -2092885.00125  24650610.028
 -11598892.086 7  -9649637.50827  21633269.689
 -17514547.359 7 -13395892.68028  21125069.729
 92  6 13  5 30 30.0000000  0  6G 3G23G28G11G17G21
  -8837704.514 5   2012773.60025  23774435.751
 -19139327.620 7 -14901048.06929  20771303.206
 -33736804.919 7 -14213893.50927  21530331.871
  -1748355.487 5  -2177555.67525  24629927.076
 -11541181.703 7  -9604668.39027  21644251.297
 -17562184.005 7 -13433012.11028  21116001.846
 92  6 13  5 31  0.0000000  0  6G 3G23G28G11G17G21
  -8721856.769 5   2103044.49825  23796488.963
 -19111565.070 7 -14879414.88929  20776578.264
 -33788586.601 7 -14254242.87527  21520481.291
  -1856972.208 5  -2262192.07325  24609266.429
 -11483215.867 6  -9559500.23427  21655281.770
 -17609484.028 7 -13469869.27128  21106995.991
 92  6 13  5 31 30.0000000  0  6G 3G23G28G11G17G21
  -8605741.524 5   2193523.89325  23818583.608
 -19083446.933 7 -14857504.62929  20781933.397
 -33839821.108 7 -14294165.84527  21510731.560
  -1965538.643 5  -2346789.29125  24588604.823
 -11424974.870 7  -9514117.59527  21666365.367
 -17656444.617 7 -13506461.90028  21098057.589
 92  6 13  5 32  0.0000000  0  6G 3G23G28G11G17G21
  -8489362.431 5   2284208.84125  23840735.212
 -19054966.369 7 -14835311.94829  20787352.895
 -33890504.282 7 -14333659.21927  21501091.314
  -2074053.832 5  -2431346.51925  24567953.919
 -11366458.099 6  -9468520.13927  21677497.261
 -17703073.748 7 -13542796.27428  21089189.518
 92  6 13  5 32 30.0000000  0  6G 3G23G28G11G17G21
  -8372724.404 5   2375095.59625  23862927.169
 -19026133.933 7 -14812845.10029  20792838.048
 -33940629.749 7 -14372718.00227  21491546.462
  -2182517.714 5  -2515863.84025  24547309.551
 -11307677.701 7  -9422717.26026  21688687.854
 -17749367.005 7 -13578868.93328  21080376.999
 92  6 13  5 33  0.0000000  0  6G 3G23G28G11G17G21
  -8255830.131 5   2466182.04325  23885168.232
 -18996950.369 7 -14790104.63329  20798394.191
 -33990176.447 7 -14411325.81027  21482124.105
  -2290928.131 5  -2600339.44425  24526683.950
 -11248625.821 7  -9376702.78627  21699924.465
 -17795313.395 7 -13614671.28128  21071639.068
 92  6 13  5 33 30.0000000  0  6G 3G23G28G11G17G21
  -8138679.229 5   2557468.37925  23907460.829
 -18967413.611 7 -14767088.98229  20804015.899
 -34039139.565 7 -14449478.86427  21472803.018
  -2399280.177 5  -2684769.60725  24506069.351
 -11189295.878 6  -9330471.66427  21711210.062
 -17840909.641 7 -13650200.78228  21062962.085
 92  6 13  5 34  0.0000000  0  6G 3G23G28G11G17G21
  -8021273.858 5   2648953.02225  23929802.832
 -18937531.356 7 -14743804.10829  20809700.204
 -34087538.312 7 -14487192.18027  21463591.115
  -2507570.657 5  -2769151.73325  24485456.101
 -11129697.659 6  -9284031.51027  21722551.540
 -17886159.253 7 -13685460.17028  21054348.268
 92  6 13  5 34 30.0000000  0  6G 3G23G28G11G17G21
  -7903616.404 5   2740634.17425  23952193.521
 -18907316.214 7 -14720259.84829  20815450.434
 -34135386.267 7 -14524476.26627  21454488.846
  -2615797.527 5  -2853484.33825  24464863.717
 -11069832.522 7  -9237383.32227  21733945.093
 -17931060.731 7 -13720448.30028  21045806.431
 92  6 13  5 35  0.0000000  0  6G 3G23G28G11G17G21
  -7785709.701 5   2832509.48125  23974641.861
 -18876765.505 7 -14696454.09129  20821263.739
 -34182692.211 7 -14561338.01527  21445482.032
  -2723958.408 5  -2937765.48225  24444273.671
 -11009695.829 7  -9190523.57027  21745388.711
 -17975619.016 7 -13755169.00728  21037328.900
 92  6 13  5 35 30.0000000  0  6G 3G23G28G11G17G21
  -7667555.056 5   2924577.91525  23997115.353
 -18845888.255 7 -14672393.88829  20827141.410
 -34229464.096 7 -14597783.63627  21436586.860
  -2832049.732 5  -3021992.47525  24423720.800
 -10949297.780 7  -9143460.16127  21756885.182
 -18019823.032 7 -13789613.68728  21028917.323
 92  6 13  5 36  0.0000000  0  6G 3G23G28G11G17G21
  -7549156.216 5   3016836.77525  24019644.186
 -18814702.213 7 -14648093.05229  20833076.311
 -34275693.355 7 -14633806.41927  21427788.191
  -2940070.367 5  -3106164.39225  24403156.626
 -10888650.518 7  -9096202.56427  21768423.954
 -18063660.602 7 -13823772.78728  21020568.403
 92  6 13  5 36 30.0000000  0  6G 3G23G28G11G17G21
  -7430515.657 5   3109283.89425  24042225.604
 -18783202.427 7 -14623547.75729  20839070.002
 -34321367.090 7 -14669396.32327  21419096.848
  -3048017.999 5  -3190279.39625  24382621.382
 -10827744.262 7  -9048743.13227  21780014.650
 -18107122.660 7 -13857639.30728  21012300.247
 92  6 13  5 37  0.0000000  0  6G 3G23G28G11G17G21
  -7311635.470 5   3201917.78925  24064850.790
 -18751388.005 7 -14598757.28329  20845123.022
 -34366468.697 7 -14704540.41227  21410510.642
  -3155889.754 6  -3274335.25525  24362088.297
 -10766577.537 6  -9001080.76927  21791652.743
 -18150201.801 7 -13891207.45528  21004104.281
 92  6 13  5 37 30.0000000  0  6G 3G23G28G11G17G21
  -7192518.504 5   3294736.13725  24087526.522
 -18719271.043 7 -14573731.06329  20851233.871
 -34410997.190 7 -14739237.93427  21402037.368
  -3263683.002 5  -3358330.00225  24341575.928
 -10705148.411 6  -8953213.90827  21803342.580
 -18192890.495 7 -13924471.35228  20995981.105
 92  6 13  5 38  0.0000000  0  6G 3G23G28G11G17G21
  -7073166.605 5   3387737.56125  24110221.621
 -18686842.192 7 -14548461.84429  20857404.140
 -34454957.153 7 -14773492.43427  21393672.978
  -3371395.120 5  -3442261.46325  24321083.194
 -10643446.112 6  -8905134.18427  21815087.639
 -18235204.208 7 -13957443.04728  20987927.300
 92  6 13  5 38 30.0000000  0  6G 3G23G28G11G17G21
  -6953583.078 5   3480919.52925  24132982.704
 -18654094.226 7 -14522943.92929  20863635.776
 -34498362.423 7 -14807314.68627  21385414.955
  -3479024.303 5  -3526128.30425  24300597.267
 -10581471.215 6  -8856842.05726  21826876.558
 -18277154.812 7 -13990131.81428  20979943.467
 92  6 13  5 39  0.0000000  0  6G 3G23G28G11G17G21
  -6833770.287 5   3574280.02425  24155782.520
 -18621029.653 7 -14497179.32229  20869927.190
 -34541213.553 7 -14840705.17427  21377263.958
  -3586567.887 5  -3609928.49225  24280128.517
 -10519235.737 6  -8808346.90126  21838721.358
 -18318748.295 7 -14022542.30528  20972029.816
 92  6 13  5 39 30.0000000  0  6G 3G23G28G11G17G21
  -6713733.014 5   3667815.57925  24178631.622
 -18587638.095 7 -14471159.92429  20876282.310
 -34583520.168 7 -14873671.35227  21369210.154
  -3694025.703 5  -3693661.84925  24259675.146
 -10456745.048 7  -8759652.87326  21850610.347
 -18360004.968 7 -14054690.33028  20964175.343
 92  6 13  5 40  0.0000000  0  6G 3G23G28G11G17G21
  -6593473.338 5   3761524.31825  24201505.786
 -18553904.453 7 -14444873.95529  20882705.094
 -34625264.549 7 -14906199.43427  21361265.144
  -3801394.313 5  -3777325.64725  24239248.757
 -10394005.210 7  -8710764.69626  21862549.402
 -18400937.884 7 -14086586.11428  20956390.123
 92  6 13  5 40 30.0000000  0  6G 3G23G28G11G17G21
  -6472991.675 5   3855406.15424  24224434.243
 -18519836.063 7 -14418327.16729  20889184.479
 -34666430.100 7 -14938276.45627  21353431.087
  -3908669.619 5  -3860916.76625  24218836.968
 -10331021.398 7  -8661686.39227  21874537.982
 -18441548.724 7 -14118230.92228  20948659.045
 92  6 13  5 41  0.0000000  0  6G 3G23G28G11G17G21
  -6352293.327 5   3949456.76124  24247401.973
 -18485440.916 7 -14391525.75429  20895731.496
 -34707002.704 7 -14969891.46228  21345714.849
  -4015851.560 5  -3944435.14825  24198442.927
 -10267786.519 6  -8612412.42527  21886571.292
 -18481834.155 7 -14149622.13328  20940993.622
 92  6 13  5 41 30.0000000  0  6G 3G23G28G11G17G21
  -6231378.407 5   4043676.16024  24270418.089
 -18450728.278 7 -14364476.96229  20902334.095
 -34746972.464 7 -15001036.71428  21338105.997
  -4122935.249 5  -4027876.91525  24178068.641
 -10204296.293 6  -8562939.51527  21898655.266
 -18521778.640 7 -14180747.70629  20933389.206
 92  6 13  5 42  0.0000000  0  6G 3G23G28G11G17G21
  -6110249.765 5   4138062.03325  24293468.082
 -18415716.613 7 -14337195.13229  20908997.732
 -34786330.587 7 -15031705.37928  21330617.361
  -4229918.253 5  -4111240.27425  24157700.022
 -10140551.931 6  -8513268.59927  21910783.011
 -18561362.731 7 -14211592.47829  20925858.839
 92  6 13  5 42 30.0000000  0  6G 3G23G28G11G17G21
  -5988908.668 5   4232613.52125  24316557.498
 -18380422.759 7 -14309693.45329  20915711.974
 -34825094.042 7 -15061910.65928  21323239.798
  -4336796.893 5  -4194522.30825  24137365.999
 -10076544.027 6  -8463392.32027  21922959.141
 -18600566.534 7 -14242140.90029  20918400.782
 92  6 13  5 43  0.0000000  0  6G 3G23G28G11G17G21
  -5867356.769 5   4327329.23924  24339691.162
 -18344845.450 7 -14281970.86929  20922485.125
 -34863273.855 7 -15091661.14728  21315972.469
  -4443567.526 6  -4277720.16125  24117052.572
 -10012273.817 6  -8413311.66527  21935191.663
 -18639376.003 7 -14272382.02629  20911016.145
 92  6 13  5 43 30.0000000  0  6G 3G23G28G11G17G21
  -5745596.088 5   4422207.58524  24362856.935
 -18308977.762 7 -14254022.01229  20929310.620
 -34900878.258 7 -15120963.25228  21308821.880
  -4550227.019 6  -4360831.42425  24096753.625
  -9947742.538 6  -8363027.57126  21947471.192
 -18677802.161 7 -14302324.43529  20903699.590
 92  6 13  5 44  0.0000000  0  6G 3G23G28G11G17G21
  -5623629.881 5   4517246.18624  24386073.373
 -18272808.497 7 -14225838.17229  20936195.114
 -34937914.851 7 -15149822.93628  21301771.391
  -4656773.393 6  -4443854.57625  24076477.731
  -9882947.430 6  -8312537.87226  21959800.427
 -18715866.595 7 -14331985.03329  20896461.551
 92  6 13  5 44 30.0000000  0  6G 3G23G28G11G17G21
  -5501460.787 5   4612442.85424  24409312.235
 -18236332.901 7 -14197415.60629  20943132.371
 -34974389.433 7 -15178244.66128  21294830.805
  -4763204.013 5  -4526787.46025  24056222.853
  -9817895.294 7  -8261847.92226  21972182.125
 -18753587.010 7 -14361377.53829  20889285.059
 92  6 13  5 45  0.0000000  0  6G 3G23G28G11G17G21
  -5379091.490 5   4707795.57124  24432594.297
 -18199539.459 7 -14168745.37029  20950137.232
 -35010283.370 7 -15206213.95428  21288003.062
  -4869516.416 6  -4609628.26925  24035996.936
  -9752593.299 6  -8210963.25327  21984607.983
 -18790973.530 7 -14390509.87429  20882168.855
 92  6 13  5 45 30.0000000  0  6G 3G23G28G11G17G21
  -5256524.598 5   4803302.21824  24455924.296
 -18162423.056 7 -14139823.49629  20957198.393
 -35045577.918 7 -15233716.17828  21281281.086
  -4975708.087 6  -4692374.94525  24015796.200
  -9687039.037 6  -8159882.05227  21997082.677
 -18828030.862 7 -14419385.71829  20875113.749
 92  6 13  5 46  0.0000000  0  6G 3G23G28G11G17G21
  -5133761.069 5   4898962.05824  24479283.675
 -18124990.157 7 -14110655.00329  20964321.312
 -35080263.175 7 -15260743.63128  21274678.547
  -5081774.849 5  -4775024.30425  23995603.679
  -9621231.189 6  -8108603.17126  22009606.447
 -18864741.179 7 -14447991.11229  20868130.504
 92  6 13  5 46 30.0000000  0  6G 3G23G28G11G17G21
  -5010803.166 5   4994773.42724  24502677.140
 -18087245.069 7 -14081243.26629  20971503.170
 -35114327.366 7 -15287287.14728  21268200.002
  -5187713.351 6  -4857573.74325  23975448.872
  -9555172.184 6  -8057128.62226  22022173.716
 -18901080.989 7 -14476307.80829  20861214.772
 92  6 13  5 47  0.0000000  0  6G 3G23G28G11G17G21
  -4887655.868 5   5090732.21424  24526117.013
 -18049183.266 7 -14051584.73429  20978747.715
 -35147756.217 7 -15313335.58628  21261842.303
  -5293523.720 6  -4940023.35625  23955307.706
  -9488856.766 6  -8005454.25326  22034794.619
 -18937039.213 7 -14504327.19929  20854371.019
 92  6 13  5 47 30.0000000  0  6G 3G23G28G11G17G21
  -4764321.097 5   5186837.29324  24549581.768
 -18010813.435 7 -14021686.14929  20986049.970
 -35180556.734 7 -15338894.41828  21255597.896
  -5399202.481 6  -5022370.39925  23935201.885
  -9422288.643 6  -7953582.98626  22047461.270
 -18972613.074 7 -14532047.04529  20847599.127
 92  6 13  5 48  0.0000000  0  6G 3G23G28G11G17G21
  -4640800.067 5   5283087.32225  24573086.636
 -17972140.894 7 -13991551.69129  20993407.716
 -35212738.916 7 -15363971.42928  21249473.496
  -5504745.320 6  -5104611.54325  23915114.171
  -9355468.955 6  -7901515.70426  22060178.226
 -19007795.537 7 -14559461.92229  20840903.473
 92  6 13  5 48 30.0000000  0  6G 3G23G28G11G17G21
  -4517096.143 5   5379480.06424  24596634.884
 -17933170.890 7 -13961185.46029  21000824.402
 -35244308.487 7 -15388571.07128  21243464.905
  -5610150.382 5  -5186745.31725  23895059.614
  -9288400.568 6  -7849254.72826  22072944.049
 -19042595.111 7 -14586578.44629  20834281.867
 92  6 13  5 49  0.0000000  0  6G 3G23G28G11G17G21
  -4393213.598 5   5476011.87024  24620204.597
 -17893909.455 7 -13930592.13829  21008297.178
 -35275278.632 7 -15412703.63828  21237573.714
  -5715416.729 5  -5268771.02425  23875016.690
  -9221072.511 6  -7796791.28726  22085749.864
 -19077033.560 7 -14613413.58629  20827734.909
 92  6 13  5 49 30.0000000  0  6G 3G23G28G11G17G21
  -4269153.991 5   5572681.67424  24643817.840
 -17854368.621 7 -13899781.06829  21015820.830
 -35305656.128 7 -15436374.39728  21231795.784
  -5820540.425 5  -5350685.54025  23855019.364
  -9153474.773 6  -7744117.72626  22098620.104
 -19111118.785 7 -14639973.48629  20821246.591
 92  6 13  5 50  0.0000000  0  6G 3G23G28G11G17G21
  -4144919.117 5   5669488.04124  24667445.083
 -17814544.606 7 -13868749.35929  21023396.885
 -35335440.384 7 -15459582.89628  21226123.800
  -5925518.341 5  -5432486.47825  23835048.120
  -9085596.776 6  -7691225.76626  22111535.223
 -19144855.514 7 -14666261.80429  20814824.557
 92  6 13  5 50 30.0000000  0  6G 3G23G28G11G17G21
  -4020512.897 5   5766427.96824  24691124.370
 -17774441.905 7 -13837500.49329  21031028.192
 -35364621.295 7 -15482321.24528  21220570.805
  -6030348.583 6  -5514172.34825  23815098.400
  -9017442.166 6  -7638118.27626  22124500.527
 -19178257.659 7 -14692289.45829  20808469.676
 92  6 13  5 51  0.0000000  0  6G 3G23G28G11G17G21
  -3895936.899 5   5863500.16524  24714838.403
 -17734051.521 7 -13806027.47629  21038718.528
 -35393185.604 7 -15504579.14828  21215137.366
  -6135027.298 6  -5595740.14925  23795179.290
  -8949010.645 6  -7584795.03526  22137524.830
 -19211326.070 7 -14718057.04129  20802177.962
 92  6 13  5 51 30.0000000  0  6G 3G23G28G11G17G21
  -3771193.166 5   5960703.11223  24738560.621
 -17693381.407 7 -13774336.47929  21046455.692
 -35421125.359 7 -15526350.36828  21209819.408
  -6239551.325 5  -5677187.36025  23775281.225
  -8880313.363 6  -7531264.69826  22150595.242
 -19244049.093 7 -14743555.45729  20795950.373
 92  6 13  5 52  0.0000000  0  6G 3G23G28G11G17G21
  -3646282.504 5   6058035.96124  24762341.807
 -17652425.418 7 -13742422.73029  21054249.576
 -35448452.973 7 -15547644.58628  21204620.976
  -6343916.046 6  -5758510.48825  23755429.239
  -8811363.860 6  -7477537.78726  22163716.079
 -19276420.392 7 -14768779.81829  20789792.396
 92  6 13  5 52 30.0000000  0  6G 3G23G28G11G17G21
  -3521210.606 5   6155494.62024  24786137.594
 -17611183.641 7 -13710286.27029  21062095.954
 -35475173.927 7 -15568466.10028  21199533.828
  -6448121.697 6  -5839709.61625  23735597.518
  -8742170.084 6  -7423620.61726  22176890.009
 -19308439.843 7 -14793730.02629  20783694.138
 92  6 13  5 53  0.0000000  0  5G23G28G11G17G21
 -17569652.036 7 -13677923.99329  21069999.863
 -35501298.689 7 -15588823.05528  21194563.059
  -6552162.406 6  -5920780.21425  23715797.785
  -8672728.661 6  -7369510.42526  22190103.721
 -19340094.442 7 -14818395.93629  20777675.085
 92  6 13  5 53 30.0000000  0  5G23G28G11G17G21
 -17527841.527 7 -13645344.36629  21077955.635
 -35526841.227 7 -15608726.31528  21189704.413
  -6656037.668 6  -6001721.93625  23696031.898
  -8603049.534 6  -7315215.01826  22203360.304
 -19371379.104 7 -14842773.55029  20771720.667
 92  6 13  5 54  0.0000000  0  5G23G28G11G17G21
 -17485735.038 7 -13612534.09329  21085968.308
 -35551786.401 7 -15628164.08328  21184952.343
  -6759742.116 5  -6082530.55425  23676290.895
  -8533144.127 6  -7260743.27726  22216663.774
 -19402288.727 7 -14866858.97929  20765835.531
 92  6 13  5 54 30.0000000  0  5G23G28G11G17G21
 -17443345.797 7 -13579503.49429  21094035.813
 -35576104.133 7 -15647112.96628  21180331.941
  -6863272.758 5  -6163203.74525  23656591.712
  -8463014.270 6  -7206096.63426  22230009.904
 -19432824.097 7 -14890652.73429  20760030.290
 92  6 13  5 55  0.0000000  0  5G23G28G11G17G21
 -17400690.595 7 -13546265.70129  21102152.514
 -35599773.960 7 -15665556.98428  21175824.772
  -6966625.608 6  -6243738.38025  23636933.182
  -8392662.362 6  -7151276.95226  22243391.830
 -19462984.966 7 -14914154.71829  20754289.504
 92  6 13  5 55 30.0000000  0  5G23G28G11G17G21
 -17357778.218 7 -13512827.46729  21110318.321
 -35622777.993 7 -15683482.17228  21171443.814
  -7069799.640 6  -6324133.70125  23617301.572
  -8322090.179 6  -7096285.66726  22256820.674
 -19492779.477 7 -14937371.19629  20748617.461
 92  6 13  5 56  0.0000000  0  5G23G28G11G17G21
 -17314612.590 7 -13479191.91629  21118531.645
 -35645106.236 7 -15700880.79928  21167198.873
  -7172790.728 6  -6404386.41625  23597691.128
  -8251282.377 6  -7041110.73526  22270300.152
 -19522220.808 7 -14960312.47129  20743014.580
 92  6 13  5 56 30.0000000  0  5G23G28G11G17G21
 -17271209.341 7 -13445371.17529  21126789.218
 -35666778.768 7 -15717768.47328  21163073.579
  -7275596.398 6  -6484494.69825  23578130.540
  -8180220.576 6  -6985737.93726  22283817.194
 -19551328.597 7 -14982993.87429  20737478.522
 92  6 13  5 57  0.0000000  0  5G23G28G11G17G21
 -17227554.098 7 -13411354.12729  21135098.536
 -35687820.417 7 -15734164.54928  21159069.641
  -7378214.535 6  -6564456.84225  23558610.663
  -8108890.980 6  -6930156.44626  22297393.506
 -19580106.444 7 -15005418.15329  20731999.336
 92  6 13  5 57 30.0000000  0  5G23G28G11G17G21
 -17183632.553 7 -13377129.53529  21143456.330
 -35708247.037 7 -15750081.39828  21155187.239
  -7480641.520 6  -6644270.00925  23539119.237
  -8037286.747 6  -6874360.95826  22311022.461
 -19608554.165 7 -15027585.17929  20726587.032
 92  6 13  5 58  0.0000000  0  5G23G28G11G17G21
 -17139432.831 7 -13342688.19129  21151867.817
 -35728080.053 7 -15765535.65628  21151412.732
  -7582876.800 6  -6723933.79725  23519660.578
  -7965411.826 6  -6818354.52626  22324696.984
 -19636670.796 7 -15049494.22629  20721235.707
 92  6 13  5 58 30.0000000  0  5G23G28G11G17G21
 -17094946.192 7 -13308023.26429  21160330.748
 -35747324.623 7 -15780531.44428  21147744.681
  -7684916.440 6  -6803445.14325  23500244.699
  -7893275.845 6  -6762144.68026  22338423.401
 -19664448.225 7 -15071139.00629  20715949.467
 92  6 13  5 59  0.0000000  0  5G23G28G11G17G21
 -17050165.777 7 -13273129.44529  21168853.997
 -35765963.429 7 -15795055.15828  21144200.055
  -7786759.204 6  -6882803.05425  23480865.335
  -7820879.238 6  -6705731.73126  22352201.743
 -19691866.064 7 -15092503.52829  20710734.457
 92  6 13  5 59 30.0000000  0  5G23G28G11G17G21
 -17005099.380 7 -13238012.80629  21177429.830
 -35783978.078 7 -15809092.55028  21140773.307
  -7888400.030 6  -6962003.66525  23461517.090
  -7748236.226 6  -6649126.82226  22366022.475
 -19718914.096 7 -15113579.90629  20705587.260
 92  6 13  6  0  0.0000000  0  5G23G28G11G17G21
 -16959752.674 7 -13202677.69829  21186060.525
 -35801369.976 7 -15822644.66428  21137458.772
  -7989838.467 6  -7041046.53625  23442214.053
  -7675345.582 6  -6592328.91226  22379892.972
 -19745590.255 7 -15134366.49129  20700506.917
 92  6 13  6  0 30.0000000  0  5G23G28G11G17G21
 -16914150.863 7 -13167143.83029  21194737.479
 -35818113.528 7 -15835691.56728  21134278.064
  -8091071.292 6  -7119929.22925  23422956.884
  -7602191.973 6  -6535326.07826  22393816.413
 -19771890.753 7 -15154860.39129  20695506.619
 92  6 13  6  1  0.0000000  0  5G23G28G11G17G21
 -16868307.954 7 -13131422.07629  21203458.771
 -35834195.108 7 -15848222.68328  21131214.844
  -8192096.780 6  -7198650.33325  23403731.914
  -7528784.543 6  -6478125.54826  22407783.864
 -19797811.703 7 -15175058.50829  20690570.836
 92  6 13  6  1 30.0000000  0  5G23G28G11G17G21
 -16822226.211 7 -13095514.23629  21212231.118
 -35849626.204 7 -15860246.90329  21128280.836
  -8292911.985 6  -7277207.61125  23384546.635
  -7455135.016 6  -6420736.31826  22421800.570
 -19823363.319 7 -15194969.59529  20685710.601
 92  6 13  6  2  0.0000000  0  5G23G28G11G17G21
 -16775904.178 7 -13059419.15329  21221043.367
 -35864410.848 7 -15871767.38029  21125468.003
  -8393512.755 6  -7355597.78125  23365401.649
  -7381239.794 6  -6363155.64526  22435863.595
 -19848558.914 7 -15214601.76329  20680918.628
 92  6 13  6  2 30.0000000  0  5G23G28G11G17G21
 -16729339.615 7 -13023135.09429  21229902.744
 -35878541.075 7 -15882777.96429  21122776.286
  -8493897.034 6  -7433819.26925  23346296.056
  -7307121.923 6  -6305401.48826  22449966.851
 -19873393.087 7 -15233953.09429  20676190.601
 92  6 13  6  3  0.0000000  0  5G23G28G11G17G21
 -16682501.155 7 -12986637.58029  21238818.242
 -35892043.030 7 -15893298.95628  21120209.103
  -8594060.849 6  -7511868.95925  23327234.801
  -7232790.225 6  -6247480.68726  22464106.743
 -19897874.121 7 -15253029.17329  20671530.777
 92  6 13  6  3 30.0000000  0  5G23G28G11G17G21
 -16635381.326 7 -12949920.84529  21247782.396
 -35904941.466 7 -15903349.65629  21117756.531
  -8694003.489 6  -7589746.27625  23308219.745
  -7158232.974 6  -6189384.18926  22478298.618
 -19922013.955 7 -15271839.45229  20666937.927
 92  6 13  6  4  0.0000000  0  5G23G28G11G17G21
 -16587990.865 7 -12912993.17729  21256802.522
 -35917234.108 7 -15912928.32529  21115411.285
  -8793721.942 6  -7667448.93425  23289245.071
  -7083442.391 6  -6131105.78226  22492528.806
 -19945815.830 7 -15290386.35129  20662410.431
 92  6 13  6  4 30.0000000  0  5G23G28G11G17G21
 -16540337.352 7 -12875860.55729  21265870.404
 -35928922.596 7 -15922036.25929  21113188.024
  -8893210.809 6  -7744972.65925  23270307.991
  -7008409.868 6  -6072638.90726  22506811.848
 -19969271.256 7 -15308663.31529  20657944.123
 92  6 13  6  5  0.0000000  0  5G23G28G11G17G21
 -16492439.731 7 -12838537.71829  21274983.286
 -35940010.161 7 -15930675.90029  21111079.194
  -8992465.577 6  -7822314.00025  23251415.520
  -6933126.227 6  -6013976.39625  22521134.073
 -19992394.839 7 -15326681.65329  20653543.140
 92  6 13  6  5 30.0000000  0  5G23G28G11G17G21
 -16444334.550 7 -12801053.14629  21284138.108
 -35950475.822 7 -15938830.95529  21109084.105
  -9091487.056 6  -7899473.52125  23232584.177
  -6857610.747 6  -5955133.12126  22535504.715
 -20015182.087 7 -15344437.93429  20649203.104
 92  6 13  6  6  0.0000000  0  5G23G28G11G17G21
 -16396035.239 7 -12763417.35129  21293332.053
 -35960296.433 7 -15946483.37928  21107218.377
  -9190272.762 6  -7976449.35125  23213787.190
  -6781878.667 6  -5896121.11126  22549915.408
 -20037621.938 7 -15361923.51229  20644936.968
 92  6 13  6  6 30.0000000  0  5G23G28G11G17G21
 -16347534.032 7 -12725624.15729  21302561.044
 -35969458.877 7 -15953622.92029  21105469.747
  -9288818.908 6  -8053238.49125  23195030.165
  -6705930.879 6  -5836941.00425  22564369.062
 -20059702.562 7 -15379129.13629  20640735.496
 92  6 13  6  7  0.0000000  0  5G23G28G11G17G21
 -16298812.534 7 -12687659.34529  21311832.665
 -35977943.438 7 -15960234.25729  21103864.778
  -9387121.549 6  -8129837.89625  23176321.676
  -6629763.634 6  -5777589.94126  22578863.488
 -20081429.284 7 -15396059.04629  20636600.878
 92  6 13  6  7 30.0000000  0  5G23G28G11G17G21
 -16249862.561 7 -12649516.48629  21321145.568
 -35985747.861 7 -15966315.62529  21102372.472
  -9485179.697 6  -8206246.80925  23157663.673
  -6553369.012 6  -5718061.64926  22593402.673
 -20102786.258 7 -15412700.81729  20632536.772
 92  6 13  6  8  0.0000000  0  5G23G28G11G17G21
 -16200659.800 7 -12611176.68629  21330512.404
 -35992880.823 7 -15971873.78129  21101022.986
  -9582988.927 6  -8282461.70625  23139051.328
  -6476722.713 6  -5658337.31426  22607986.017
 -20123774.886 7 -15429055.57829  20628543.956
 92  6 13  6  8 30.0000000  0  5G23G28G11G17G21
 -16151185.709 7 -12572625.47029  21339924.598
 -35999349.223 7 -15976914.07729  21099786.911
  -9680544.930 6  -8358479.36725  23120482.963
  -6399813.423 6  -5598407.98025  22622624.793
 -20144410.487 7 -15445135.29029  20624616.045
 92  6 13  6  9  0.0000000  0  5G23G28G11G17G21
 -16101443.982 7 -12533865.65328  21349389.675
 -36005168.108 7 -15981448.26929  21098682.356
  -9777846.339 6  -8434298.58825  23101970.359
  -6322650.973 6  -5538281.46325  22637307.518
 -20164709.981 7 -15460953.06829  20620751.331
 92  6 13  6  9 30.0000000  0  5G23G28G11G17G21
 -16051455.535 7 -12494913.64428  21358902.270
 -36010356.259 6 -15985490.98729  21097690.583
  -9874889.980 6  -8509916.96025  23083502.124
  -6245245.776 6  -5477965.67926  22652037.251
 -20184662.312 7 -15476500.35129  20616953.500
 92  6 13  6 10  0.0000000  0  5G23G28G11G17G21
 -16001211.514 7 -12455762.47728  21368463.491
 -36014920.335 7 -15989047.39329  21096824.093
  -9971673.128 6  -8585332.35325  23065086.083
  -6167605.318 6  -5417466.64026  22666811.893
 -20204286.797 7 -15491792.16429  20613221.204
 92  6 13  6 10 30.0000000  0  5G23G28G11G17G21
 -15950740.553 7 -12416434.47128  21378068.181
 -36018868.650 7 -15992123.99229  21096075.661
 -10068194.645 6  -8660543.88125  23046707.846
  -6089750.001 6  -5356800.16226  22681624.668
 -20223594.543 7 -15506837.16429  20609547.097
 92  6 13  6 11  0.0000000  0  5G23G28G11G17G21
 -15900064.854 7 -12376946.91828  21387710.466
 -36022201.573 7 -15994721.07729  21095439.981
 -10164449.626 6  -8735547.69525  23028408.904
  -6011683.894 6  -5295969.41626  22696480.643
 -20242562.078 7 -15521617.05729  20605938.675
 92  6 13  6 11 30.0000000  0  5G23G28G11G17G21
 -15849188.509 7 -12337303.01229  21397391.904
 -36024916.410 7 -15996836.52029  21094917.622
 -10260435.807 6  -8810342.07825  23010131.038
  -5933398.350 6  -5234967.71325  22711379.879
 -20261178.733 7 -15536123.55929  20602396.148
 92  6 13  6 12  0.0000000  0  5G23G28G11G17G21
 -15798091.680 7 -12297487.29129  21407114.053
 -36027002.897 7 -15998462.35129  21094525.614
 -10356150.087 6  -8884924.59125  22991919.455
  -5854887.127 6  -5173790.17026  22726315.299
 -20279458.203 7 -15550367.28829  20598918.885
 92  6 13  6 12 30.0000000  0  5G23G28G11G17G21
 -15746782.214 7 -12257505.88929  21416877.394
 -36028449.241 7 -15999589.37329  21094250.734
 -10451585.802 6  -8959290.03825  22973769.270
  -5776149.009 6  -5112435.83525  22741300.815
 -20297372.187 7 -15564326.22829  20595510.005
 92  6 13  6 13  0.0000000  0  5G23G28G11G17G21
 -15695239.482 7 -12217342.72729  21426686.034
 -36029250.800 7 -16000213.95929  21094095.771
 -10546742.404 6  -9033438.01925  22955653.082
  -5697175.861 6  -5050898.32026  22756332.109
 -20314913.163 7 -15577994.51729  20592172.506
 92  6 13  6 13 30.0000000  0  5G23G28G11G17G21
 -15643438.884 7 -12176978.62429  21436545.308
 -36029398.922 7 -16000329.37229  21094068.310
 -10641612.139 6  -9107362.42325  22937608.454
  -5617957.918 6  -4989170.05526  22771399.048
 -20332098.775 7 -15591385.94029  20588898.202
 92  6 13  6 14  0.0000000  0  5G23G28G11G17G21
 -15591391.100 7 -12136421.89129  21446453.329
 -36028896.150 7 -15999937.61129  21094167.062
 -10736193.226 6  -9181061.93625  22919601.180
  -5538503.139 6  -4927257.27026  22786522.649
 -20348929.036 7 -15604500.44229  20585699.387
 92  6 13  6 14 30.0000000  0  5G23G28G11G17G21
 -15539119.861 7 -12095691.04529  21456395.047
 -36027758.612 6 -15999051.21929  21094378.835
 -10830484.979 6  -9254535.97925  22901652.966
  -5458823.225 6  -4865169.02426  22801682.883
 -20365403.325 7 -15617337.54129  20582561.579
 92  6 13  6 15  0.0000000  0  5G23G28G11G17G21
 -15486623.044 7 -12054784.43429  21466387.039
 -36025972.167 7 -15997659.21429  21094720.989
 -10924481.534 6  -9327779.97525  22883768.727
  -5378905.298 6  -4802895.34825  22816894.293
 -20381548.447 7 -15629918.10829  20579487.867
 92  6 13  6 15 30.0000000  0  5G23G28G11G17G21
 -15433913.932 7 -12013712.40629  21476417.436
 -36023537.285 7 -15995761.88829  21095188.125
 -11018180.791 6  -9400792.33525  22865944.656
  -5298758.202 6  -4740443.10525  22832144.585
 -20397375.616 7 -15642250.95729  20576480.379
 92  6 13  6 16  0.0000000  0  5G23G28G11G17G21
 -15381000.126 7 -11972480.85129  21486487.105
 -36020461.206 7 -15993364.94229  21095768.733
 -11111579.570 6  -9473570.56025  22848164.115
  -5218380.408 6  -4677811.06325  22847442.904
 -20412874.953 7 -15654328.35929  20573532.460
 92  6 13  6 16 30.0000000  0  5G23G28G11G17G21
 -15327869.307 7 -11931080.22729  21496598.235
 -36016731.534 7 -15990458.71929  21096478.882
 -11204673.570 6  -9546111.32425  22830455.345
  -5137765.570 6  -4614994.29425  22862779.087
 -20428058.683 7 -15666159.81729  20570642.191
 92  6 13  6 17  0.0000000  0  5G23G28G11G17G21
 -15274517.486 7 -11889507.38229  21506747.948
 -36012329.976 7 -15987028.93329  21097316.772
 -11297460.653 6  -9618412.91425  22812798.858
  -5056905.007 6  -4551986.08825  22878165.935
 -20442924.492 7 -15677743.55029  20567811.221
 92  6 13  6 17 30.0000000  0  5G23G28G11G17G21
 -15220953.430 7 -11847769.14829  21516941.611
 -36007283.229 7 -15983096.40828  21098275.268
 -11389938.245 6  -9690473.34725  22795194.115
  -4975809.901 6  -4488795.10625  22893597.182
 -20457449.624 7 -15689061.83929  20565051.031
 92  6 13  6 18  0.0000000  0  5G23G28G11G17G21
 -15167190.958 7 -11805876.31428  21527172.748
 -36001591.396 7 -15978661.22728  21099360.217
 -11482103.738 6  -9762290.59625  22777657.156
  -4894483.245 5  -4425423.70325  22909074.268
 -20471623.161 7 -15700106.15829  20562352.210
 92  6 13  6 18 30.0000000  0  5G23G28G11G17G21
 -15113240.357 7 -11763836.90028  21537438.242
 -35995240.963 7 -15973712.81728  21100575.246
 -11573950.750 6  -9833859.65925  22760182.374
  -4812933.445 6  -4361878.43925  22924592.725
 -20485440.692 7 -15710873.07329  20559726.328
 92  6 13  6 19  0.0000000  0  5G23G28G11G17G21
 -15059104.427 7 -11721653.04728  21547740.580
 -35988251.136 7 -15968266.20428  21101901.108
 -11665477.174 6  -9905178.91525  22742762.213
  -4731174.267 6  -4298169.99525  22940148.566
 -20498879.104 7 -15721344.51829  20557163.192
 92  6 13  6 19 30.0000000  0  5G23G28G11G17G21
 -15004779.351 7 -11679321.82528  21558078.323
 -35980641.373 7 -15962336.53228  21103346.078
 -11756678.922 6  -9976245.18825  22725412.354
  -4649222.408 5  -4234311.43525  22955745.268
 -20511936.718 7 -15731519.31929  20554680.491
 92  6 13  6 20  0.0000000  0  5G23G28G11G17G21
 -14950243.341 7 -11636826.23828  21568455.279
 -35972389.178 7 -15955906.24028  21104918.279
 -11847553.691 6 -10047056.64025  22708117.178
  -4567082.197 6  -4170306.07225  22971379.835
 -20524627.836 7 -15741408.47429  20552266.352
 92  6 13  6 20 30.0000000  0  5G23G28G11G17G21
 -14895474.837 7 -11594149.50728  21578873.817
 -35963493.649 7 -15948974.68428  21106611.237
 -11938096.865 6 -10117609.73925  22690886.426
  -4484746.575 6  -4106148.45925  22987041.892
 -20536949.786 7 -15751009.95429  20549919.247
 92  6 13  6 21  0.0000000  0  5G23G28G11G17G21
 -14840461.299 7 -11551281.82528  21589346.466
 -35953960.806 7 -15941546.47229  21108425.221
 -12028307.042 6 -10187903.34825  22673718.991
  -4402209.110 6  -4041833.60325  23002752.036
 -20548912.144 7 -15760331.25729  20547642.353
 92  6 13  6 21 30.0000000  0  5G23G28G11G17G21
 -14785216.719 7 -11508234.08729  21599857.400
 -35943774.323 7 -15933608.97329  21110358.703
 -12118178.236 6 -10257932.80725  22656619.339
  -4319454.524 6  -3977349.56625  23018502.232
 -20560545.289 7 -15769396.04429  20545429.255
 92  6 13  6 22  0.0000000  0  5G23G28G11G17G21
 -14729755.830 7 -11465017.80629  21610414.052
 -35932930.865 7 -15925159.52129  21112424.723
 -12207708.438 6 -10327696.55725  22639580.604
  -4236460.543 6  -3912678.93825  23034295.209
 -20571849.516 7 -15778204.50529  20543277.765
 92  6 13  6 22 30.0000000  0  5G23G28G11G17G21
 -14674109.221 7 -11421656.79629  21621001.342
 -35921457.011 7 -15916218.85329  21114607.481
 -12296894.500 6 -10397192.16426  22622606.326
  -4153223.864 6  -3847819.24425  23050132.435
 -20582826.922 7 -15786758.30029  20541188.661
 92  6 13  6 23  0.0000000  0  5G23G28G11G17G21
 -14618294.052 7 -11378164.46029  21631622.329
 -35909356.291 7 -15906789.74129  21116911.416
 -12385735.996 6 -10466419.27726  22605705.436
  -4069756.038 6  -3782779.35725  23066018.648
 -20593502.823 7 -15795077.16629  20539157.567
 92  6 13  6 23 30.0000000  0  5G23G28G11G17G21
 -14562318.368 7 -11334547.06728  21642275.964
 -35896633.239 7 -15896875.67929  21119340.455
 -12474231.385 6 -10535376.68626  22588865.254
  -3986064.729 6  -3717565.41325  23081941.704
 -20603867.827 7 -15803153.78229  20537182.355
 92  6 13  6 24  0.0000000  0  5G23G28G11G17G21
 -14506158.922 8 -11290786.45828  21652963.445
 -35883286.997 7 -15886476.04629  21121870.613
 -12562375.739 6 -10604060.57826  22572087.489
  -3902156.348 6  -3652182.25425  23097907.631
 -20613900.160 7 -15810971.14229  20535277.923
 92  6 13  6 24 30.0000000  0  5G23G28G11G17G21
 -14449804.145 7 -11246873.68628  21663686.812
 -35869295.504 7 -15875573.55629  21124534.179
 -12650165.192 6 -10672467.91326  22555385.212
  -3818047.510 6  -3586642.88925  23113916.519
 -20623614.772 7 -15818540.87929  20533426.734
 92  6 13  6 25  0.0000000  0  5G23G28G11G17G21
 -14393231.004 7 -11202790.69428  21674450.770
 -35854632.326 6 -15864147.73529  21127319.041
 -12737599.630 6 -10740598.61526  22538745.801
  -3733736.050 5  -3520945.70425  23129961.411
 -20633005.834 7 -15825858.57929  20531640.601
 92  6 13  6 25 30.0000000  0  5G23G28G11G17G21
 -14336431.327 7 -11158531.20528  21685259.427
 -35839305.740 7 -15852204.92729  21130241.268
 -12824674.765 6 -10808449.33526  22522174.983
  -3649207.962 6  -3455079.65525  23146047.795
 -20642054.837 7 -15832909.73429  20529915.056
 92  6 13  6 26  0.0000000  0  5G23G28G11G17G21
 -14279400.024 7 -11114091.19528  21696115.812
 -35823316.866 7 -15839746.07229  21133285.181
 -12911386.368 6 -10876016.78626  22505675.035
  -3564462.490 6  -3389044.26025  23162165.387
 -20650774.521 7 -15839704.29429  20528259.302
 92  6 13  6 26 30.0000000  0  5G23G28G11G17G21
 -14222148.420 7 -11069479.57828  21707009.580
 -35806679.114 7 -15826781.58029  21136452.638
 -12997732.971 6 -10943299.80626  22489242.751
  -3479494.969 6  -3322835.85425  23178335.982
 -20659164.483 7 -15846241.98029  20526665.635
 92  6 13  6 27  0.0000000  0  5G23G28G11G17G21
 -14164687.068 7 -11024704.48928  21717943.161
 -35789424.778 6 -15813336.64528  21139730.299
 -13083711.000 6 -11010295.63526  22472883.826
  -3394300.617 6  -3256450.66425  23194549.238
 -20667207.751 7 -15852509.45329  20525131.537
 92  6 13  6 27 30.0000000  0  5G23G28G11G17G21
 -14107040.251 7 -10979784.92728  21728912.327
 -35771570.995 7 -15799424.62528  21143131.714
 -13169317.595 6 -11077002.04126  22456590.796
  -3308884.621 6  -3189892.73725  23210811.929
 -20674910.591 7 -15858511.67029  20523663.903
 92  6 13  6 28  0.0000000  0  5G23G28G11G17G21
 -14049213.110 8 -10934724.81428  21739917.738
 -35753103.826 7 -15785034.61628  21146644.053
 -13254547.087 6 -11143414.62026  22440367.827
  -3223253.185 6  -3123166.97025  23227099.564
 -20682272.340 7 -15864248.10629  20522266.511
 92  6 13  6 28 30.0000000  0  5G23G28G11G17G21
 -13991225.553 7 -10889539.69828  21750952.949
 -35734015.944 7 -15770160.96728  21150278.407
 -13339400.975 6 -11209534.51826  22424226.521
  -3137406.585 6  -3056273.55425  23243441.970
 -20689287.398 7 -15869714.36329  20520931.984
 92  6 13  6 29  0.0000000  0  5G23G28G11G17G21
 -13933085.568 7 -10844235.81428  21762013.671
 -35714293.671 7 -15754792.95128  21154030.729
 -13423876.413 6 -11275359.52526  22408155.457
  -3051354.891 5  -2989220.32125  23259807.910
 -20695967.185 7 -15874919.38529  20519656.547
 92  6 13  6 29 30.0000000  0  5G23G28G11G17G21
 -13874781.154 7 -10798803.82428  21773109.860
 -35693918.742 7 -15738916.42828  21157903.268
 -13507967.031 6 -11340884.66126  22392149.567
  -2965102.658 5  -2922010.83825  23276226.584
 -20702311.435 7 -15879862.95429  20518451.382
 92  6 13  6 30  0.0000000  0  5G23G28G11G17G21
 -13816311.014 7 -10753242.66327  21784234.468
 -35672890.438 7 -15722530.71329  21161906.787
 -13591671.067 6 -11406108.55226  22376217.547
  -2878648.079 6  -2854643.64425  23292685.310
 -20708319.964 7 -15884544.91129  20517309.982
 92  6 13  6 30 30.0000000  0  5G23G28G11G17G21
 -13757676.446 7 -10707553.38527  21795393.403
 -35651222.815 7 -15705646.87728  21166031.511
 -13674985.297 6 -11471028.71126  22360368.899
  -2792000.532 5  -2787126.07825  23309162.892
 -20713994.197 7 -15888966.37029  20516230.039
 92  6 13  6 31  0.0000000  0  5G23G28G11G17G21
 -13698869.421 7 -10661729.74528  21806582.617
 -35628935.002 7 -15688279.75228  21170273.185
 -13757906.784 7 -11535642.84926  22344589.862
  -2705164.825 6  -2719461.90925  23325694.138
 -20719336.640 7 -15893129.31129  20515210.415
 92  6 13  6 31 30.0000000  0  5G23G28G11G17G21
 -13639889.807 7 -10615771.62528  21817808.046
 -35606032.994 7 -15670434.05728  21174632.827
 -13840433.761 6 -11599949.54226  22328884.125
  -2618134.305 6  -2651645.97725  23342253.054
 -20724349.648 7 -15897035.52729  20514258.934
 92  6 13  6 32  0.0000000  0  5G23G28G11G17G21
 -13580747.091 7 -10569686.37528  21829062.674
 -35582512.921 7 -15652106.73328  21179110.197
 -13922563.173 6 -11663946.45126  22313255.944
  -2530901.490 6  -2583672.37625  23358855.081
 -20729034.419 7 -15900685.99629  20513367.831
 92  6 13  6 32 30.0000000  0  5G23G28G11G17G21
 -13521429.667 7 -10523465.02428  21840350.670
 -35558369.442 7 -15633293.66028  21183706.255
 -14004292.305 6 -11727631.46726  22297702.232
  -2443470.205 5  -2515544.17625  23375488.586
 -20733390.479 7 -15904080.38429  20512536.926
 92  6 13  6 33  0.0000000  0  5G23G28G11G17G21
 -13461929.914 7 -10477101.58128  21851674.221
 -35533583.109 7 -15613979.64328  21188420.162
 -14085619.669 6 -11791003.41226  22282228.354
  -2355832.706 5  -2447255.26225  23392166.640
 -20737433.128 7 -15907230.50729  20511771.046
 92  6 13  6 33 30.0000000  0  5G23G28G11G17G21
 -13402236.578 7 -10430587.29928  21863032.488
 -35508150.518 7 -15594162.04928  21193258.422
 -14166539.514 6 -11854057.82626  22266830.984
  -2267986.316 6  -2378803.52725  23408880.669
 -20741170.253 7 -15910142.54329  20511053.553
 92  6 13  6 34  0.0000000  0  5G23G28G11G17G21
 -13342339.637 7 -10383914.33427  21874431.526
 -35482085.273 7 -15573851.49128  21198214.292
 -14247047.515 6 -11916791.32026  22251507.752
  -2179944.714 6  -2310199.65625  23425637.988
 -20744595.670 7 -15912811.69229  20510403.213
 92  6 13  6 34 30.0000000  0  5G23G28G11G17G21
 -13282240.915 7 -10337084.20427  21885866.780
 -35455402.653 7 -15553059.86128  21203301.740
 -14327143.884 7 -11979204.04426  22236268.881
  -2091715.860 5  -2241449.97525  23442422.738
 -20747724.202 7 -15915249.48829  20509805.667
 92  6 13  6 35  0.0000000  0  5G23G28G11G17G21
 -13221957.050 7 -10290109.78127  21897339.208
 -35428115.641 7 -15531797.26128  21208489.828
 -14406823.225 7 -12041291.79926  22221106.038
  -2003297.575 5  -2172552.61725  23459255.305
 -20750550.639 7 -15917451.90129  20509271.767
 92  6 13  6 35 30.0000000  0  5G23G28G11G17G21
 -13161506.011 7 -10243005.10327  21908843.773
 -35400247.906 7 -15510082.15428  21213789.109
 -14486083.328 7 -12103052.89126  22206019.373
  -1914688.847 5  -2103506.89925  23476109.188
 -20753050.685 7 -15919399.99329  20508798.694
 92  6 13  6 36  0.0000000  0  5G23G28G11G17G21
 -13100909.239 7 -10195786.84227  21920371.303
 -35371784.870 7 -15487903.18128  21219209.747
 -14564920.509 7 -12164484.43226  22191020.396
  -1825891.866 6  -2034314.49825  23493007.739
 -20755201.271 7 -15921075.77729  20508386.150
 92  6 13  6 36 30.0000000  0  5G23G28G11G17G21
 -13040174.261 7 -10148460.87727  21931929.861
 -35342701.254 7 -15465240.62728  21224740.648
 -14643329.048 7 -12225581.96926  22176098.197
  -1736887.631 5  -1964960.56925  23509944.934
 -20756998.253 7 -15922476.00929  20508045.376
 92  6 13  6 37  0.0000000  0  5G23G28G11G17G21
 -12979292.968 7 -10101020.90727  21943514.201
 -35312991.741 6 -15442090.39928  21230393.984
 -14721307.184 7 -12286344.12626  22161258.920
  -1647681.556 6  -1895449.38725  23526922.391
 -20758428.113 7 -15923590.19529  20507773.194
 92  6 13  6 37 30.0000000  0  5G23G28G11G17G21
 -12918253.667 7 -10053457.77127  21955129.510
 -35282651.399 7 -15418448.55228  21236169.066
 -14798851.533 7 -12346768.27626  22146502.385
  -1558283.855 6  -1825788.88325  23543936.062
 -20759501.742 7 -15924426.75929  20507568.915
 92  6 13  6 38  0.0000000  0  5G23G28G11G17G21
 -12857045.058 7 -10005762.78227  21966778.995
 -35251673.781 6 -15394310.18728  21242065.324
 -14875959.437 7 -12406852.33326  22131831.682
  -1468702.434 5  -1755985.21325  23560980.493
 -20760245.418 7 -15925006.25629  20507427.533
 92  6 13  6 38 30.0000000  0  5G23G28G11G17G21
 -12795651.829 7  -9957923.90727  21978461.128
 -35220070.612 7 -15369684.34928  21248076.253
 -14952627.065 7 -12466593.30826  22117243.181
  -1378935.154 5  -1686036.75325  23578064.166
 -20760682.106 7 -15925346.51029  20507344.041
 92  6 13  6 39  0.0000000  0  5G23G28G11G17G21
 -12734084.573 7  -9909949.43727  21990176.867
 -35187867.256 6 -15344590.85928  21254205.869
 -15028850.780 7 -12525988.38626  22102734.305
  -1288997.060 5  -1615955.15825  23595177.938
 -20760820.073 7 -15925454.00529  20507318.499
 92  6 13  6 39 30.0000000  0  5G23G28G11G17G21
 -12672360.180 7  -9861852.51827  22001926.213
 -35155064.484 7 -15319030.27828  21260447.698
 -15104627.343 7 -12585035.01626  22088319.055
  -1198888.576 5  -1545740.75525  23612331.763
 -20760671.775 7 -15925338.44129  20507344.911
 92  6 13  6 40  0.0000000  0  5G23G28G11G17G21
 -12610481.139 7  -9813635.08427  22013697.684
 -35121653.115 7 -15292995.46828  21266807.046
 -15179954.709 7 -12643731.66826  22073979.622
  -1108591.411 5  -1475379.38025  23629500.997
 -20760230.301 7 -15924994.41129  20507432.300
 92  6 13  6 40 30.0000000  0  5G23G28G11G17G21
 -12548458.245 7  -9765305.53827  22025499.404
 -35087630.516 6 -15266484.37728  21273279.355
 -15254828.843 7 -12702075.13326  22059732.645
  -1018095.537 5  -1404863.14725  23646730.579
 -20759481.047 7 -15924410.55629  20507575.661
 92  6 13  6 41  0.0000000  0  5G23G28G11G17G21
 -12486297.698 7  -9716868.74027  22037329.574
 -35053000.723 7 -15239500.14828  21279871.851
 -15329249.598 7 -12760065.30226  22045569.969
   -927405.447 5  -1334195.56925  23663986.423
 -20758412.813 7 -15923578.12029  20507776.492
 92  6 13  6 41 30.0000000  0  5G23G28G11G17G21
 -12423975.292 7  -9668305.86027  22049188.105
 -35017754.677 7 -15212035.70628  21286580.397
 -15403209.553 7 -12817696.42726  22031495.943
   -836498.966 5  -1263359.38025  23681287.356
 -20757013.380 7 -15922487.64929  20508041.418
 92  6 13  6 42  0.0000000  0  5G23G28G11G17G21
 -12361494.204 7  -9619619.31627  22061080.212
 -34981917.033 7 -15184110.28328  21293399.626
 -15476710.864 7 -12874970.12326  22017509.635
   -745382.199 5  -1192359.34725  23698623.005
 -20755281.815 7 -15921138.37029  20508372.749
 92  6 13  6 42 30.0000000  0  5G23G28G11G17G21
 -12298853.427 6  -9570808.31027  22072997.322
 -34945508.461 6 -15155739.97628  21300325.042
 -15549748.748 7 -12931882.74026  22003615.214
   -654076.965 5  -1121212.39425  23716005.571
 -20753219.249 7 -15919531.16629  20508767.426
 92  6 13  6 43  0.0000000  0  5G23G28G11G17G21
 -12236048.095 6  -9521869.09927  22084950.437
 -34908531.677 7 -15126926.92328  21307360.751
 -15622320.058 7 -12988431.82026  21989802.756
   -562596.493 5  -1049928.93325  23733406.095
 -20750834.753 7 -15917673.14829  20509217.294
 92  6 13  6 43 30.0000000  0  5G23G28G11G17G21
 -12173080.388 6  -9472803.36627  22096930.683
 -34870980.326 7 -15097666.12028  21314516.377
 -15694419.537 7 -13044613.20426  21976080.236
   -470934.477 5   -978504.01425  23750851.108
 -20748134.251 7 -15915568.89029  20509731.738
 92  6 13  6 44  0.0000000  0  5G23G28G11G17G21
 -12109959.296 7  -9423618.14527  22108947.984
 -34832840.524 7 -15067946.83728  21321766.198
 -15766044.271 7 -13100424.66126  21962447.834
   -379105.049 5   -906948.63525  23768326.850
 -20745120.458 7 -15913220.45029  20510305.631
 92  6 13  6 44 30.0000000  0  5G23G28G11G17G21
 -12046678.968 7  -9374308.77628  22120986.360
 -34794081.027 7 -15037744.65428  21329140.823
 -15837189.434 7 -13155862.41526  21948914.303
   -287103.425 5   -835259.04725  23785832.691
 -20741791.949 7 -15910626.77429  20510939.422
 92  6 13  6 45  0.0000000  0  5G23G28G11G17G21
 -11983241.219 7  -9324876.80428  22133059.512
 -34754687.830 6 -15007048.67228  21336637.373
 -15907852.997 7 -13210924.91326  21935464.924
   -194914.439 5   -763423.49725  23803371.749
 -20738150.105 7 -15907788.97929  20511630.354
 92  6 13  6 45 30.0000000  0  5G23G28G11G17G21
 -11919647.522 6  -9275323.26128  22145158.896
 -34714669.546 6 -14975865.58028  21344252.551
 -15978034.545 7 -13265611.81726  21922112.857
   -102538.236 5   -691442.03025  23820958.683
 -20734185.175 7 -15904699.44229  20512387.689
 92  6 13  6 46  0.0000000  0  5G23G28G11G17G21
 -11855895.326 7  -9225646.23828  22157291.556
 -34674038.995 7 -14944205.46028  21351984.948
 -16047731.604 7 -13319921.21126  21908848.030
     -9991.849 5   -619328.03925  23838556.860
 -20729895.034 7 -15901356.52729  20513202.256
 92  6 13  6 46 30.0000000  0  5G23G28G11G17G21
 -11791981.720 7  -9175843.43628  22169452.967
 -34632810.521 7 -14912079.37528  21359835.883
 -16116937.122 7 -13373847.58526  21895679.197
     82736.523 5   -547072.16425  23856212.987
 -20725279.363 7 -15897759.90829  20514078.879
 92  6 13  6 47  0.0000000  0  5G23G28G11G17G21
 -11727912.034 7  -9125919.00428  22181646.366
 -34591008.759 7 -14879506.60228  21367782.362
 -16185649.436 7 -13427389.63526  21882603.479
    175639.486 5   -474680.26125  23873889.560
 -20720343.528 7 -15893913.76929  20515017.979
 92  6 13  6 47 30.0000000  0  5G23G28G11G17G21
 -11663697.808 7  -9075881.95027  22193863.688
 -34548648.561 7 -14846498.66728  21375847.469
 -16253865.777 7 -13480545.20826  21869623.155
    268710.936 5   -402157.02825  23891598.690
 -20715096.740 7 -15889825.33729  20516018.536
 92  6 13  6 48  0.0000000  0  5G23G28G11G17G21
 -11599350.784 7  -9025741.44127  22206109.610
 -34505720.391 7 -14813048.17928  21384011.657
 -16321581.354 7 -13533310.57026  21856737.505
    361962.819 5   -329493.19425  23909347.273
 -20709548.791 7 -15885502.30029  20517074.975
 92  6 13  6 48 30.0000000  0  5G23G28G11G17G21
 -11534881.282 7  -8975505.44827  22218376.878
 -34462216.317 7 -14779148.91228  21392294.623
 -16388792.877 7 -13585683.16426  21843947.670
    455404.106 5   -256681.86425  23927121.758
 -20703700.777 7 -15880945.39029  20518190.232
 92  6 13  6 49  0.0000000  0  5G23G28G11G17G21
 -11470291.263 7  -8925175.56227  22230667.529
 -34418137.800 6 -14744802.03128  21400682.786
 -16455497.250 7 -13637660.57726  21831256.076
    549019.148 5   -183735.13325  23944935.756
 -20697551.506 7 -15876153.74229  20519357.175
 92  6 13  6 49 30.0000000  0  5G23G28G11G17G21
 -11405574.535 7  -8874746.93027  22242985.462
 -34373483.834 6 -14710006.76428  21409182.681
 -16521692.659 7 -13689241.40226  21818655.409
    642813.289 5   -110648.74525  23962796.191
 -20691099.981 7 -15871126.54629  20520583.266
 92  6 13  6 50  0.0000000  0  5G23G28G11G17G21
 -11340717.809 7  -8824209.22327  22255326.598
 -34328252.945 6 -14674761.93628  21417785.825
 -16587378.127 7 -13740424.89426  21806159.400
    736784.321 5    -37424.56625  23980673.955
 -20684334.019 7 -15865854.38029  20521874.502
 92  6 13  6 50 30.0000000  0  5G23G28G11G17G21
 -11275703.084 7  -8773548.41327  22267695.525
 -34282458.394 7 -14639077.88628  21426505.619
 -16652549.273 7 -13791207.58326  21793757.945
    830926.559 5     35932.97625  23998585.925
 -20677255.445 7 -15860338.60229  20523218.951
 92  6 13  6 51  0.0000000  0  5G23G28G11G17G21
 -11210524.790 7  -8722760.08027  22280099.408
 -34236096.253 6 -14602951.59227  21435329.680
 -16717201.563 7 -13841585.98826  21781456.441
    925252.064 5    109433.28825  24016539.716
 -20669859.080 7 -15854575.22329  20524627.376
 92  6 13  6 51 30.0000000  0  5G23G28G11G17G21
 -11145186.260 7  -8671846.91827  22292534.260
 -34189154.900 6 -14566373.91227  21444251.024
 -16781331.269 7 -13891557.18827  21769246.674
   1019775.017 5    183087.57225  24034527.503
 -20662136.841 7 -15848557.87329  20526095.460
 92  6 13  6 52  0.0000000  0  5G23G28G11G17G21
 -11079705.098 7  -8620822.64727  22304995.763
 -34141629.644 7 -14529341.27127  21453300.229
 -16844936.148 7 -13941119.42227  21757146.991
   1114480.123 5    256883.72325  24052545.299
 -20654084.312 7 -15842283.14129  20527627.639
 92  6 13  6 52 30.0000000  0  5G23G28G11G17G21
 -11014090.205 7  -8569694.12626  22317478.881
 -34093513.917 6 -14491848.50627  21462455.112
 -16908012.369 7 -13990269.69927  21745142.311
   1209363.626 5    330818.92225  24070614.270
 -20645715.012 7 -15835761.58829  20529220.886
 92  6 13  6 53  0.0000000  0  5G23G28G11G17G21
 -10948350.491 7  -8518468.36626  22329990.869
 -34044797.894 7 -14453888.01427  21471727.992
 -16970556.692 7 -14039005.52327  21733240.431
   1304414.106 5    404884.19125  24088685.790
 -20637022.657 7 -15828988.31929  20530874.781
 92  6 13  6 53 30.0000000  0  5G23G28G11G17G21
 -10882484.186 7  -8467144.01826  22342525.971
 -33995490.289 7 -14415466.49027  21481115.573
 -17032564.025 7 -14087322.91227  21721442.188
   1399618.161 5    479069.10825  24106801.888
 -20628012.462 7 -15821967.43729  20532590.403
 92  6 13  6 54  0.0000000  0  5G23G28G11G17G21
 -10816485.614 7  -8415716.55026  22355086.226
 -33945602.466 6 -14376592.89627  21490596.839
 -17094034.903 7 -14135222.27127  21709744.287
   1494968.688 5    553368.18325  24124952.433
 -20618696.392 7 -15814708.16629  20534361.158
 92  6 13  6 54 30.0000000  0  5G23G28G11G17G21
 -10750344.501 6  -8364178.02426  22367672.023
 -33895143.597 6 -14337274.34327  21500207.196
 -17154965.258 7 -14182700.46527  21698147.715
   1590479.945 5    627792.51725  24143125.462
 -20609078.308 7 -15807213.55329  20536193.129
 92  6 13  6 55  0.0000000  0  5G23G28G11G17G21
 -10684060.791 6  -8312528.39326  22380282.523
 -33844123.303 7 -14297518.29127  21509911.148
 -17215354.909 7 -14229757.35127  21686655.980
   1686152.447 5    702342.50825  24161329.879
 -20599142.552 7 -15799471.35529  20538081.822
 92  6 13  6 55 30.0000000  0  5G23G28G11G17G21
 -10617630.273 6  -8260764.37426  22392923.991
 -33792546.005 6 -14257328.20927  21519726.024
 -17275199.766 7 -14276389.69727  21675269.923
   1782002.846 5    777031.03025  24179575.098
 -20588893.028 7 -15791484.68129  20540033.201
 92  6 13  6 56  0.0000000  0  5G23G28G11G17G21
 -10551057.077 6  -8208889.14426  22405593.460
 -33740421.802 7 -14216711.96627  21529651.013
 -17334497.527 7 -14322595.73627  21663983.157
   1878029.022 5    851856.58225  24197843.282
 -20578339.773 7 -15783261.35229  20542044.898
 92  6 13  6 56 30.0000000  0  5G23G28G11G17G21
 -10484347.488 7  -8156907.64326  22418292.789
 -33687759.421 7 -14175676.36527  21539671.845
 -17393244.650 7 -14368372.68927  21652806.264
   1974225.722 5    926815.03025  24216152.866
 -20567492.142 7 -15774808.65529  20544108.040
 92  6 13  6 57  0.0000000  0  5G23G28G11G17G21
 -10417501.868 6  -8104820.15526  22431006.208
 -33634551.826 6 -14134215.91027  21549796.796
 -17451439.107 7 -14413719.00127  21641730.252
   2070583.812 5   1001899.21825  24234490.122
 -20556352.040 7 -15766128.06229  20546227.723
 92  6 13  6 57 30.0000000  0  5G23G28G11G17G21
 -10350529.828 6  -8052634.19726  22443750.265
 -33580809.671 7 -14092338.94627  21560022.327
 -17509079.523 7 -14458633.59227  21630765.223
   2167094.519 5   1077102.41525  24252849.861
 -20544935.295 7 -15757231.89329  20548399.419
 92  6 13  6 58  0.0000000  0  5G23G28G11G17G21
 -10283431.478 6  -8000349.76326  22456520.794
 -33526537.676 6 -14050049.09527  21570344.211
 -17566161.201 7 -14503112.78627  21619901.823
   2263745.092 5   1152414.44425  24271239.281
 -20533220.723 7 -15748103.69929  20550630.025
 92  6 13  6 58 30.0000000  0  5G23G28G11G17G21
 -10216205.345 6  -7947965.75826  22469309.820
 -33471722.707 7 -14007336.16327  21580779.627
 -17622681.771 7 -14547154.77127  21609143.441
   2360546.438 5   1227844.04625  24289658.349
 -20521184.980 7 -15738725.19029  20552918.041
 92  6 13  6 59  0.0000000  0  5G23G28G11G17G21
 -10148853.484 6  -7895483.79926  22482130.535
 -33416363.304 6 -13964198.98927  21591309.507
 -17678637.934 7 -14590756.96727  21598495.713
   2457500.373 5   1303392.51725  24308110.875
 -20508806.012 7 -15729079.23329  20555275.909
 92  6 13  6 59 30.0000000  0  5G23G28G11G17G21
 -10081372.111 6  -7842900.95227  22494970.106
 -33360468.115 7 -13920644.32627  21601948.662
 -17734027.249 7 -14633917.46527  21587955.819
   2554606.732 5   1379059.76325  24326590.472
 -20496094.340 8 -15719174.01529  20557691.726
 92  6 13  7  0  0.0000000  0  6G12G23G28G11G17G21
     16588.19715    -10471.44931  24310480.255
 -10013743.972 6  -7790203.70727  22507837.408
 -33304034.970 7 -13876670.46427  21612689.686
 -17788845.361 7 -14676632.87327  21577523.431
   2651871.437 5   1454850.44025  24345104.905
 -20483049.622 7 -15709009.31529  20560173.888
 92  6 13  7  0 30.0000000  0  6G12G23G28G11G17G21
    -27827.569 5    -45081.23621  24302028.266
  -9945964.418 6  -7737388.45327  22520739.486
 -33247060.655 6 -13832274.92027  21623532.730
 -17843086.073 7 -14718898.37927  21567203.136
   2749302.237 5   1530770.46225  24363639.633
 -20469689.461 8 -15698598.82729  20562719.426
 92  6 13  7  1  0.0000000  0  6G12G23G28G11G17G21
    -71699.527 5    -79267.54121  24293678.147
  -9878033.319 6  -7684455.14727  22533670.704
 -33189557.173 6 -13787467.04427  21634477.553
 -17896747.460 7 -14760712.46227  21556990.856
   2846892.442 5   1606814.75125  24382209.468
 -20456031.990 7 -15687956.62829  20565316.528
 92  6 13  7  1 30.0000000  0  6G12G23G28G11G17G21
   -115025.716 5   -113028.17021  24285438.381
  -9809952.004 7  -7631404.78427  22546622.488
 -33131526.919 6 -13742248.68427  21645515.611
 -17949827.236 7 -14802073.31327  21546887.580
   2944641.476 5   1682982.80525  24400811.680
 -20442092.225 7 -15677094.47529  20567967.682
 92  6 13  7  2  0.0000000  0  5G23G28G11G17G21
  -9741739.866 7  -7578252.44127  22559600.354
 -33072976.790 6 -13696625.23727  21656655.839
 -18002322.683 7 -14842978.85627  21536904.731
   3042548.572 5   1759274.01325  24419449.057
 -20427854.523 8 -15666000.17029  20570680.085
 92  6 13  7  2 30.0000000  0  5G23G28G11G17G21
  -9673416.818 7  -7525013.73327  22572605.350
 -33013898.830 7 -13650590.49627  21667896.767
 -18054229.818 7 -14883425.98927  21527025.940
   3140609.425 5   1835685.00025  24438097.347
 -20413322.318 8 -15654676.39929  20573444.471
 92  6 13  7  3  0.0000000  0  5G23G28G11G17G21
  -9604986.385 7  -7471691.31427  22585623.778
 -32954283.674 7 -13604137.16627  21679244.571
 -18105546.882 7 -14923413.28427  21517255.374
   3238823.737 5   1912215.58425  24456794.174
 -20398486.172 8 -15643115.76029  20576268.126
 92  6 13  7  3 30.0000000  0  5G23G28G11G17G21
  -9536444.345 7  -7418281.93827  22598667.418
 -32894125.787 6 -13557260.94927  21690691.966
 -18156268.834 7 -14962936.86527  21507605.085
   3337186.109 5   1988861.54825  24475515.943
 -20383332.262 8 -15631307.51229  20579152.759
 92  6 13  7  4  0.0000000  0  6G12G23G28G11G17G21
    -14804.73415    -13540.97931  24245787.890
  -9467787.117 7  -7364782.78727  22611732.493
 -32833424.405 6 -13509961.17027  21702242.550
 -18206395.359 7 -15001996.49827  21498066.648
   3435692.547 5   2065619.77525  24494256.929
 -20367859.821 7 -15619251.02729  20582094.233
 92  6 13  7  4 30.0000000  0  6G12G23G28G11G17G21
    -54793.882 5    -44699.23521  24238182.336
  -9398996.410 7  -7311179.64727  22624827.188
 -32772170.852 6 -13462231.18227  21713898.361
 -18255922.312 7 -15040588.91727  21488639.225
   3534351.598 5   2142496.89625  24513035.029
 -20352068.913 7 -15606946.37729  20585098.963
 92  6 13  7  5  0.0000000  0  6G12G23G28G11G17G21
    -94217.048 5    -75418.92921  24230679.610
  -9330059.505 7  -7257462.57027  22637942.628
 -32710377.021 6 -13414080.17027  21725656.491
 -18304846.791 7 -15078711.88327  21479335.046
   3633175.087 5   2219502.16025  24531813.489
 -20335950.201 7 -15594386.36829  20588167.938
 92  6 13  7  5 30.0000000  0  6G12G23G28G11G17G21
   -133071.245 5   -105694.99821  24223282.171
  -9260980.788 7  -7203635.03827  22651088.468
 -32648060.403 6 -13365521.79927  21737514.272
 -18353166.144 7 -15116363.31027  21470136.064
   3732152.805 5   2296627.60525  24550664.409
 -20319514.238 7 -15581579.13529  20591292.315
 92  6 13  7  6  0.0000000  0  5G23G28G11G17G21
  -9191766.279 7  -7149701.64427  22664258.380
 -32585217.093 6 -13316553.01427  21749474.552
 -18400876.870 7 -15153540.47327  21461058.318
   3831289.599 5   2373877.05225  24569544.348
 -20302769.755 7 -15568531.50529  20594482.976
 92  6 13  7  6 30.0000000  0  5G23G28G11G17G21
  -9122417.039 7  -7095663.31427  22677452.966
 -32521855.029 6 -13267180.01627  21761531.905
 -18447979.753 7 -15190244.00327  21452095.573
   3930583.019 5   2451248.52425  24588440.807
 -20285712.219 7 -15555239.90829  20597726.880
 92  6 13  7  7  0.0000000  0  5G23G28G11G17G21
  -9052939.769 7  -7041525.14426  22690674.083
 -32457984.878 6 -13217411.07527  21773689.089
 -18494470.839 7 -15226470.84827  21443246.749
   4030029.120 5   2528738.91325  24607365.176
 -20268350.508 7 -15541711.30629  20601028.195
 92  6 13  7  7 30.0000000  0  5G23G28G11G17G21
  -8983334.865 7  -6987287.54626  22703921.822
 -32393593.494 6 -13167236.00827  21785938.639
 -18540345.262 7 -15262217.14827  21434518.172
   4129621.407 5   2606343.28725  24626294.701
 -20250689.622 7 -15527949.62029  20604392.016
 92  6 13  7  8  0.0000000  0  5G23G28G11G17G21
  -8913597.269 7  -6932946.55526  22717187.908
 -32328683.852 6 -13116657.07327  21798298.602
 -18585601.664 7 -15297481.87527  21425904.025
   4229385.851 5   2684081.66625  24645298.755
 -20232727.839 7 -15513953.39429  20607810.100
 92  6 13  7  8 30.0000000  0  5G23G28G11G17G21
  -8843723.527 7  -6878499.49126  22730485.053
 -32263272.702 6 -13065687.35527  21810739.839
 -18630237.066 7 -15332262.68927  21417411.565
   4329327.550 5   2761958.38225  24664316.659
 -20214472.365 7 -15499728.33929  20611284.305
 92  6 13  7  9  0.0000000  0  6G12G23G28G11G17G21
    -23697.12815    -23476.44231  24174600.103
  -8773726.708 7  -6823956.51926  22743809.748
 -32197363.429 6 -13014329.51927  21823278.988
 -18674249.969 7 -15366558.45527  21409035.993
   4429436.561 5   2839965.38725  24683365.322
 -20195943.959 7 -15485290.63529  20614809.894
 92  6 13  7  9 30.0000000  0  6G12G23G28G11G17G21
    -57915.420 5    -50137.45621  24168077.938
  -8703608.833 6  -6769319.19726  22757151.022
 -32130954.831 7 -12962582.56627  21835923.395
 -18717638.516 7 -15400367.70527  21400778.719
   4529711.532 5   2918101.68325  24702436.649
 -20177134.104 7 -15470633.62929  20618390.885
 92  6 13  7 10  0.0000000  0  6G12G23G28G11G17G21
    -91540.913 5    -76338.48121  24161689.810
  -8633376.353 6  -6714592.60426  22770514.181
 -32064059.405 6 -12910456.28927  21848648.385
 -18760396.714 7 -15433685.77627  21392643.551
   4630142.974 5   2996359.93725  24721551.986
 -20158036.459 7 -15455752.36529  20622025.089
 92  6 13  7 10 30.0000000  0  6G12G23G28G11G17G21
   -124573.116 5   -102077.93022  24155396.837
  -8563035.310 6  -6659781.37926  22783904.201
 -31996681.813 6 -12857954.30526  21861466.342
 -18802524.273 7 -15466512.44327  21384628.780
   4730698.052 5   3074714.42525  24740678.505
 -20138649.760 7 -15440645.86029  20625712.926
 92  6 13  7 11  0.0000000  0  6G12G23G28G11G17G21
   -157009.859 5   -127353.32522  24149230.226
  -8492585.069 6  -6604885.04826  22797304.564
 -31928817.977 6 -12805073.40026  21874384.429
 -18844018.662 7 -15498845.71927  21376731.976
   4831367.242 5   3153157.97025  24759837.311
 -20118960.027 7 -15425303.22329  20629458.863
 92  6 13  7 11 30.0000000  0  6G12G23G28G11G17G21
   -188849.472 5   -152163.43923  24143166.204
  -8422021.059 6  -6549900.11926  22810732.449
 -31860468.762 6 -12751814.31026  21887387.177
 -18884878.104 8 -15530684.26927  21368956.529
   4932153.220 5   3231692.49625  24779025.078
 -20098951.484 7 -15409712.11429  20633265.238
 92  6 13  7 12  0.0000000  0  6G12G23G28G11G17G21
   -220090.606 5   -176507.18523  24137226.026
  -8351343.085 6  -6494826.40326  22824186.684
 -31791641.243 6 -12698182.50426  21900484.120
 -18925101.098 7 -15562026.85327  21361296.862
   5033048.851 5   3310312.43325  24798232.511
 -20078637.788 7 -15393883.27029  20637128.153
 92  6 13  7 12 30.0000000  0  6G12G23G28G11G17G21
   -250730.676 5   -200382.57624  24131393.804
  -8280541.526 6  -6439656.35126  22837657.319
 -31722325.478 6 -12644170.23626  21913667.464
 -18964685.007 7 -15592871.46227  21353771.741
   5134068.198 5   3389028.78725  24817451.995
 -20058013.815 7 -15377812.62529  20641055.944
 92  6 13  7 13  0.0000000  0  6G12G23G28G11G17G21
   -280765.559 5   -223786.39125  24125680.719
  -8209619.429 6  -6384392.40426  22851153.556
 -31652518.759 6 -12589775.43826  21926961.490
 -19003625.416 7 -15623214.65127  21346359.313
   5235228.731 5   3467855.13225  24836697.832
 -20037073.967 7 -15361495.85429  20645040.606
 92  6 13  7 13 30.0000000  0  5G12G23G28G11G21
   -310193.362 5   -246717.17725  24120077.778
  -8138583.731 6  -6329039.89126  22864672.397
 -31582228.742 6 -12535004.03127  21940340.808
 -19041920.470 7 -15653054.94727  21339072.827
 -20015829.538 7 -15344941.74329  20649082.767
 92  6 13  7 14  0.0000000  0  5G12G23G28G11G21
   -339014.010 6   -269174.80125  24114592.925
  -8067436.527 6  -6273600.48826  22878213.482
 -31511457.736 6 -12479857.85327  21953808.265
 -19079569.799 7 -15682392.10327  21331907.937
 -19994287.136 7 -15328155.47929  20653185.847
 92  6 13  7 14 30.0000000  0  5G12G23G28G11G21
   -367227.126 6   -291159.07125  24109227.179
  -7996168.430 6  -6218066.90326  22891769.708
 -31440199.996 6 -12424332.39427  21967371.955
 -19116572.939 7 -15711225.70027  21324866.682
 -19972435.503 8 -15311128.21529  20657343.069
 92  6 13  7 15  0.0000000  0  5G12G23G28G11G21
   -394828.342 5   -312666.51425  24103967.141
  -7924776.741 6  -6162437.02125  22905355.342
 -31368456.992 6 -12368428.78127  21981018.957
 -19152925.317 7 -15739552.23327  21317948.911
 -19950276.878 8 -15293861.76729  20661558.691
 92  6 13  7 15 30.0000000  0  5G12G23G28G11G21
   -421815.383 6   -333695.39425  24098843.268
  -7853247.851 6  -6106700.24925  22918969.997
 -31296227.065 6 -12312145.75026  21994761.294
 -19188624.583 7 -15767369.84227  21311158.762
 -19927815.843 8 -15276359.66629  20665833.491
 92  6 13  7 16  0.0000000  0  6G12G23G28G11G17G21
   -448190.268 6   -354247.24625  24093816.348
  -7781575.478 6  -6050851.66425  22932606.237
 -31223509.659 6 -12255482.82626  22008596.716
 -19223672.335 7 -15794679.77327  21304481.724
     35729.28915     58320.60531  24952786.076
 -19905045.551 8 -15258616.60129  20670165.762
 92  6 13  7 16 30.0000000  0  6G12G23G28G11G17G21
   -473947.789 6   -374318.06325  24088917.050
  -7709756.159 6  -5994888.51725  22946273.206
 -31150311.703 6 -12198445.46726  22022525.163
 -19258063.567 7 -15821478.14927  21297941.452
    137890.186 5    137921.23821  24972237.750
 -19881959.382 8 -15240627.39029  20674557.422
 92  6 13  7 17  0.0000000  0  6G12G23G28G11G17G21
   -499088.684 6   -393908.32025  24084133.711
  -7637812.525 6  -5938828.58025  22959963.708
 -31076653.745 6 -12141049.67726  22036547.446
 -19291798.651 7 -15847765.22527  21291521.097
    240166.019 5    217616.87721  24991698.777
 -19858576.717 8 -15222407.12129  20679010.359
 92  6 13  7 17 30.0000000  0  7G12G23G28G11G15G17G21
   -523610.504 6   -413016.26925  24079470.350
  -7565758.736 6  -5882682.77025  22973674.026
 -31002557.446 6 -12083312.34026  22050646.235
 -19324875.098 7 -15873539.08227  21285225.845
   -333028.31115   -263361.79234  24839952.649
    342557.614 5    297402.46522  25011184.507
 -19834899.560 7 -15203957.36929  20683514.201
 92  6 13  7 18  0.0000000  0  6G12G23G28G11G15G21
   -547513.213 6   -431641.77425  24074922.048
  -7493611.237 6  -5826463.92325  22987405.780
 -30928033.905 6 -12025242.08226  22064833.823
 -19357292.521 7 -15898799.40927  21279061.992
   -438119.523 5   -345250.96624  24819960.629
 -19810925.701 7 -15185276.44629  20688075.483
 92  6 13  7 18 30.0000000  0  6G12G23G28G11G15G21
   -570792.514 5   -449781.46025  24070487.818
  -7421377.877 6  -5770178.19825  23001155.252
 -30853090.592 6 -11966844.74126  22079089.075
 -19389046.326 7 -15923542.63627  21273013.679
   -543181.379 5   -427117.26924  24799950.502
 -19786667.249 7 -15166373.75429  20692692.917
 92  6 13  7 19  0.0000000  0  6G12G23G28G11G15G21
   -593445.776 6   -467433.44325  24066180.580
  -7349059.869 5  -5713826.52025  23014909.370
 -30777732.319 6 -11908124.05826  22093428.628
 -19420134.115 7 -15947766.90327  21267100.003
   -648215.748 5   -508962.13124  24779973.801
 -19762128.202 7 -15147252.42829  20697363.563
 92  6 13  7 19 30.0000000  0  6G12G23G28G11G15G21
   -615474.561 5   -484598.72625  24061986.603
  -7276642.309 6  -5657397.28025  23028693.377
 -30701948.784 6 -11849072.00526  22107853.052
 -19450557.149 7 -15971473.16027  21261310.111
   -753226.225 5   -590788.45325  24759991.495
 -19737290.709 7 -15127898.53129  20702089.132
 92  6 13  7 20  0.0000000  0  6G12G23G28G11G15G21
   -636873.646 5   -501273.33425  24057922.257
  -7204096.343 5  -5600867.97425  23042496.002
 -30625720.682 6 -11789673.54726  22122358.030
 -19480309.916 7 -15994657.14027  21255648.291
   -858209.179 5   -672593.19225  24740007.989
 -19712150.839 7 -15108309.02729  20706874.719
 92  6 13  7 20 30.0000000  0  6G12G23G28G11G15G21
   -657642.922 5   -517457.10725  24053965.926
  -7131415.585 6  -5544233.58125  23056329.835
 -30549047.361 6 -11729928.15826  22136953.036
 -19509392.162 7 -16017318.62227  21250113.013
   -963159.168 5   -754372.34925  24720039.473
 -19686710.438 7 -15088485.35129  20711714.508
 92  6 13  7 21  0.0000000  0  6G12G23G28G11G15G21
   -677783.113 5   -533150.78525  24050134.069
  -7058593.450 6  -5487489.07725  23070191.069
 -30471921.144 6 -11669829.85826  22151626.078
 -19537804.477 7 -16039458.10427  21244709.763
  -1068067.734 5   -836119.21325  24700075.873
 -19660954.800 7 -15068416.05029  20716615.785
 92  6 13  7 21 30.0000000  0  6G12G23G28G11G15G21
   -697290.713 5   -548351.52625  24046407.738
  -6985622.637 5  -5430628.71725  23084072.089
 -30394332.969 6 -11609371.56526  22166385.251
 -19565543.171 7 -16061072.64627  21239431.048
  -1172944.778 5   -917841.45825  24680120.038
 -19634881.657 7 -15048099.29629  20721574.652
 92  6 13  7 22  0.0000000  0  6G12G23G28G11G15G21
   -716163.373 5   -563057.45825  24042829.685
  -6912513.879 5  -5373660.88525  23097987.016
 -30316285.337 6 -11548555.26526  22181233.102
 -19592605.600 7 -16082160.26527  21234281.033
  -1277796.063 5   -999543.66625  24660173.497
 -19608499.755 7 -15027541.96229  20726597.015
 92  6 13  7 22 30.0000000  0  6G12G23G28G11G15G21
   -734404.270 5   -577271.15825  24039357.909
  -6839297.166 6  -5316608.86125  23111920.710
 -30237786.826 6 -11487387.64426  22196176.287
 -19618994.898 7 -16102723.37227  21229258.070
  -1382627.795 5  -1081230.62425  24640223.628
 -19581812.723 7 -15006746.85929  20731674.480
 92  6 13  7 23  0.0000000  0  6G12G23G28G11G15G21
   -752008.400 6   -590988.64325  24036006.469
  -6765977.957 6  -5259477.06425  23125866.816
 -30158844.558 6 -11425874.26626  22211199.247
 -19644705.828 7 -16122757.85627  21224365.338
  -1487440.729 5  -1162902.96025  24620272.710
 -19554823.339 8 -14985716.17029  20736811.514
 92  6 13  7 23 30.0000000  0  6G12G23G28G11G15G21
   -768974.895 6   -604209.31625  24032776.685
  -6692563.842 6  -5202271.21325  23139841.731
 -30079472.796 6 -11364026.15926  22226298.234
 -19669737.293 7 -16142262.89427  21219601.965
  -1592227.884 5  -1244555.16525  24600332.494
 -19527543.912 8 -14964459.46529  20742000.922
 92  6 13  7 24  0.0000000  0  6G12G23G28G11G15G21
   -785302.861 6   -616932.45425  24029666.428
  -6619069.230 5  -5145002.73125  23153828.068
 -29999683.962 6 -11301853.04126  22241482.752
 -19694088.312 7 -16161237.72327  21214966.664
  -1696966.951 5  -1326169.95225  24580394.197
 -19499981.089 8 -14942981.95429  20747245.581
 92  6 13  7 24 30.0000000  0  6G12G23G28G11G15G21
   -800989.583 6   -629155.88325  24026681.245
  -6545501.509 5  -5087677.20225  23167825.918
 -29919482.956 6 -11239358.77726  22256741.588
 -19717755.769 7 -16179679.88827  21210467.049
  -1801654.638 5  -1407744.61925  24560478.984
 -19472139.087 8 -14921286.89729  20752546.421
 92  6 13  7 25  0.0000000  0  6G12G23G28G11G15G21
   -816035.088 6   -640879.61725  24023818.017
  -6471852.897 6  -5030288.73625  23181838.217
 -29838871.313 6 -11176544.55026  22272091.772
 -19740739.609 7 -16197589.36627  21206091.398
  -1906287.707 5  -1489276.81725  24540572.315
 -19444027.771 8 -14899381.99329  20757893.429
 92  6 13  7 25 30.0000000  0  6G12G23G28G11G15G21
   -830437.564 6   -652102.35125  24021075.216
  -6398112.982 6  -4972829.04925  23195871.023
 -29757846.630 6 -11113408.44726  22287502.813
 -19763038.160 7 -16214964.85827  21201848.376
  -2010858.925 5  -1570760.75325  24520671.402
 -19415646.600 8 -14877266.78429  20763295.270
 92  6 13  7 26  0.0000000  0  6G12G23G28G11G15G21
   -844192.384 6   -662820.39525  24018461.115
  -6324277.366 6  -4915294.73125  23209926.103
 -29676407.845 6 -11049949.68626  22303005.620
 -19784646.139 7 -16231802.26927  21197734.384
  -2115376.910 5  -1652203.24125  24500779.723
 -19386991.510 8 -14854938.11829  20768746.966
 92  6 13  7 26 30.0000000  0  6G12G23G28G11G15G21
   -857300.485 6   -673034.54125  24015955.780
  -6250338.789 6  -4857680.30325  23223994.793
 -29594562.808 6 -10986174.36726  22318577.201
 -19805564.433 7 -16248102.22527  21193753.530
  -2219854.252 5  -1733614.10025  24480897.547
 -19358052.649 8 -14832388.35429  20774253.763
 92  6 13  7 27  0.0000000  0  6G12G23G28G11G15G21
   -869762.012 5   -682744.78925  24013599.621
  -6176275.321 6  -4799968.46825  23238087.887
 -29512331.797 6 -10922098.28426  22334227.836
 -19825793.122 7 -16263864.83627  21189908.871
  -2324286.655 5  -1814989.86625  24461028.023
 -19328828.413 8 -14809616.23129  20779815.363
 92  6 13  7 27 30.0000000  0  6G12G23G28G11G15G21
   -881575.432 5   -691950.02025  24011344.852
  -6102085.087 6  -4742157.94125  23252204.784
 -29429728.005 6 -10857731.68526  22349950.301
 -19845330.305 7 -16279088.63327  21186190.096
  -2428671.394 5  -1896328.52425  24441164.104
 -19299304.385 8 -14786610.50629  20785436.382
 92  6 13  7 28  0.0000000  0  6G12G23G28G11G15G21
   -892741.258 5   -700650.65025  24009225.979
  -6027780.032 5  -4684257.91825  23266340.538
 -29346753.815 6 -10793076.52426  22365735.723
 -19864176.453 7 -16293773.94127  21182597.923
  -2533007.285 5  -1977629.13725  24421311.998
 -19269472.749 8 -14763365.11029  20791112.203
 92  6 13  7 28 30.0000000  0  6G12G23G28G11G15G21
   -903256.574 6   -708844.36325  24007229.271
  -5953356.286 6  -4626265.40525  23280504.982
 -29263400.433 6 -10728125.85826  22381598.732
 -19882328.409 7 -16307918.33027  21179146.652
  -2637278.529 5  -2058879.42125  24401465.077
 -19239328.236 8 -14739875.87129  20796847.112
 92  6 13  7 29  0.0000000  0  6G12G23G28G11G15G21
   -913120.853 5   -716530.85325  24005347.744
  -5878807.327 6  -4568175.29725  23294691.491
 -29179652.381 6 -10662867.69326  22397530.212
 -19899785.574 7 -16321521.32027  21175822.253
  -2741471.141 5  -2140068.34625  24381639.322
 -19208887.416 8 -14716155.75929  20802640.452
 92  6 13  7 29 30.0000000  0  6G12G23G28G11G15G21
   -922333.818 6   -723709.79525  24003594.467
  -5804155.740 5  -4510005.26425  23308902.493
 -29095494.641 6 -10597290.27126  22413554.899
 -19916547.245 7 -16334582.35627  21172636.779
  -2845578.288 5  -2221190.67525  24361826.788
 -19178149.826 7 -14692204.37929  20808490.272
 92  6 13  7 30  0.0000000  0  6G12G23G28G11G15G21
   -930894.637 6   -730380.55125  24001962.457
  -5729403.118 6  -4451756.45925  23323120.450
 -29010923.042 6 -10531390.39626  22429640.863
 -19932612.444 7 -16347100.70427  21169575.268
  -2949607.291 5  -2302252.21425  24342033.831
 -19147131.210 7 -14668034.02829  20814389.768
